<?xml version="1.0" encoding="UTF-8" standalone="no" ?>
<gpx xmlns="http://www.topografix.com/GPX/1/1" xmlns:xsi="http://www.w3.org/2001/XMLSchema-instance" xsi:schemaLocation="http://www.topografix.com/GPX/1/1 http://www.topografix.com/GPX/1/1/gpx.xsd" version="1.1" creator="VisuGPX - https://www.visugpx.com">
  <metadata>
    <name>2023-09-03 6/46 Morbier le marais</name>
    <desc><![CDATA[super randonnée avec des randonneurs super sympa]]></desc>
  </metadata>
  <trk>
    <name><![CDATA[2023-09-03 12:37:14]]></name>
    <trkseg>
      <trkpt lat="46.55634" lon="6.02387">
        <ele>915.38</ele>
        <time>2023-09-03T06:17:55Z</time>
      </trkpt>
      <trkpt lat="46.5563" lon="6.02396">
        <ele>914.53</ele>
        <time>2023-09-03T06:18:07Z</time>
      </trkpt>
      <trkpt lat="46.55617" lon="6.02424">
        <ele>914.56</ele>
        <time>2023-09-03T06:18:32Z</time>
      </trkpt>
      <trkpt lat="46.55617" lon="6.0244">
        <ele>914.59</ele>
        <time>2023-09-03T06:18:49Z</time>
      </trkpt>
      <trkpt lat="46.55616" lon="6.02445">
        <ele>914.6</ele>
        <time>2023-09-03T06:18:53Z</time>
      </trkpt>
      <trkpt lat="46.55612" lon="6.02454">
        <ele>914.63</ele>
        <time>2023-09-03T06:18:58Z</time>
      </trkpt>
      <trkpt lat="46.55599" lon="6.02477">
        <ele>917.08</ele>
        <time>2023-09-03T06:19:15Z</time>
      </trkpt>
      <trkpt lat="46.55591" lon="6.02491">
        <ele>917.1</ele>
        <time>2023-09-03T06:19:24Z</time>
      </trkpt>
      <trkpt lat="46.55581" lon="6.02512">
        <ele>917.18</ele>
        <time>2023-09-03T06:19:39Z</time>
      </trkpt>
      <trkpt lat="46.55581" lon="6.02514">
        <ele>913.4</ele>
        <time>2023-09-03T06:19:40Z</time>
      </trkpt>
      <trkpt lat="46.55581" lon="6.02515">
        <ele>913.4</ele>
        <time>2023-09-03T06:19:41Z</time>
      </trkpt>
      <trkpt lat="46.5558" lon="6.02517">
        <ele>921.4</ele>
        <time>2023-09-03T06:19:42Z</time>
      </trkpt>
      <trkpt lat="46.55579" lon="6.02518">
        <ele>911.81</ele>
        <time>2023-09-03T06:19:43Z</time>
      </trkpt>
      <trkpt lat="46.55579" lon="6.02519">
        <ele>918.09</ele>
        <time>2023-09-03T06:19:44Z</time>
      </trkpt>
      <trkpt lat="46.55578" lon="6.02522">
        <ele>921.91</ele>
        <time>2023-09-03T06:19:46Z</time>
      </trkpt>
      <trkpt lat="46.55577" lon="6.02523">
        <ele>917.47</ele>
        <time>2023-09-03T06:19:47Z</time>
      </trkpt>
      <trkpt lat="46.55577" lon="6.02524">
        <ele>920.97</ele>
        <time>2023-09-03T06:19:48Z</time>
      </trkpt>
      <trkpt lat="46.55575" lon="6.02527">
        <ele>906.16</ele>
        <time>2023-09-03T06:19:50Z</time>
      </trkpt>
      <trkpt lat="46.55575" lon="6.02528">
        <ele>906.19</ele>
        <time>2023-09-03T06:19:51Z</time>
      </trkpt>
      <trkpt lat="46.55574" lon="6.02529">
        <ele>929.42</ele>
        <time>2023-09-03T06:19:52Z</time>
      </trkpt>
      <trkpt lat="46.55574" lon="6.02531">
        <ele>925.51</ele>
        <time>2023-09-03T06:19:53Z</time>
      </trkpt>
      <trkpt lat="46.55573" lon="6.02532">
        <ele>920.75</ele>
        <time>2023-09-03T06:19:54Z</time>
      </trkpt>
      <trkpt lat="46.55572" lon="6.02533">
        <ele>920.78</ele>
        <time>2023-09-03T06:19:55Z</time>
      </trkpt>
      <trkpt lat="46.55571" lon="6.02536">
        <ele>918.84</ele>
        <time>2023-09-03T06:19:57Z</time>
      </trkpt>
      <trkpt lat="46.55566" lon="6.02545">
        <ele>919.8</ele>
        <time>2023-09-03T06:20:04Z</time>
      </trkpt>
      <trkpt lat="46.55557" lon="6.02561">
        <ele>922.24</ele>
        <time>2023-09-03T06:20:16Z</time>
      </trkpt>
      <trkpt lat="46.55552" lon="6.02581">
        <ele>922.31</ele>
        <time>2023-09-03T06:20:27Z</time>
      </trkpt>
      <trkpt lat="46.55548" lon="6.02592">
        <ele>922.33</ele>
        <time>2023-09-03T06:20:33Z</time>
      </trkpt>
      <trkpt lat="46.55543" lon="6.02596">
        <ele>922.37</ele>
        <time>2023-09-03T06:20:37Z</time>
      </trkpt>
      <trkpt lat="46.5553" lon="6.02598">
        <ele>922.43</ele>
        <time>2023-09-03T06:20:46Z</time>
      </trkpt>
      <trkpt lat="46.55522" lon="6.02599">
        <ele>923.7</ele>
        <time>2023-09-03T06:20:52Z</time>
      </trkpt>
      <trkpt lat="46.55495" lon="6.026">
        <ele>925.72</ele>
        <time>2023-09-03T06:21:11Z</time>
      </trkpt>
      <trkpt lat="46.55488" lon="6.026">
        <ele>926.87</ele>
        <time>2023-09-03T06:21:16Z</time>
      </trkpt>
      <trkpt lat="46.55466" lon="6.02596">
        <ele>929.92</ele>
        <time>2023-09-03T06:21:32Z</time>
      </trkpt>
      <trkpt lat="46.5546" lon="6.02593">
        <ele>929.83</ele>
        <time>2023-09-03T06:21:37Z</time>
      </trkpt>
      <trkpt lat="46.55441" lon="6.02584">
        <ele>932.81</ele>
        <time>2023-09-03T06:21:52Z</time>
      </trkpt>
      <trkpt lat="46.55413" lon="6.02574">
        <ele>936.01</ele>
        <time>2023-09-03T06:22:13Z</time>
      </trkpt>
      <trkpt lat="46.55411" lon="6.02574">
        <ele>936.01</ele>
        <time>2023-09-03T06:22:14Z</time>
      </trkpt>
      <trkpt lat="46.55383" lon="6.02577">
        <ele>938.73</ele>
        <time>2023-09-03T06:22:35Z</time>
      </trkpt>
      <trkpt lat="46.55369" lon="6.02586">
        <ele>941.07</ele>
        <time>2023-09-03T06:22:46Z</time>
      </trkpt>
      <trkpt lat="46.55358" lon="6.02598">
        <ele>942.53</ele>
        <time>2023-09-03T06:22:56Z</time>
      </trkpt>
      <trkpt lat="46.5534" lon="6.02612">
        <ele>943.44</ele>
        <time>2023-09-03T06:23:12Z</time>
      </trkpt>
      <trkpt lat="46.55317" lon="6.0261">
        <ele>944.31</ele>
        <time>2023-09-03T06:23:29Z</time>
      </trkpt>
      <trkpt lat="46.55306" lon="6.02606">
        <ele>945.33</ele>
        <time>2023-09-03T06:23:37Z</time>
      </trkpt>
      <trkpt lat="46.55304" lon="6.02605">
        <ele>945.37</ele>
        <time>2023-09-03T06:23:39Z</time>
      </trkpt>
      <trkpt lat="46.55286" lon="6.026">
        <ele>946.22</ele>
        <time>2023-09-03T06:23:54Z</time>
      </trkpt>
      <trkpt lat="46.55266" lon="6.02591">
        <ele>947.04</ele>
        <time>2023-09-03T06:24:09Z</time>
      </trkpt>
      <trkpt lat="46.55246" lon="6.02589">
        <ele>947.04</ele>
        <time>2023-09-03T06:24:22Z</time>
      </trkpt>
      <trkpt lat="46.55235" lon="6.02596">
        <ele>948.02</ele>
        <time>2023-09-03T06:24:29Z</time>
      </trkpt>
      <trkpt lat="46.5523" lon="6.02601">
        <ele>949.29</ele>
        <time>2023-09-03T06:24:33Z</time>
      </trkpt>
      <trkpt lat="46.55227" lon="6.02606">
        <ele>949.13</ele>
        <time>2023-09-03T06:24:37Z</time>
      </trkpt>
      <trkpt lat="46.55211" lon="6.02618">
        <ele>951.98</ele>
        <time>2023-09-03T06:24:53Z</time>
      </trkpt>
      <trkpt lat="46.55194" lon="6.0263">
        <ele>952.74</ele>
        <time>2023-09-03T06:25:10Z</time>
      </trkpt>
      <trkpt lat="46.55178" lon="6.02643">
        <ele>954.04</ele>
        <time>2023-09-03T06:25:23Z</time>
      </trkpt>
      <trkpt lat="46.55164" lon="6.02657">
        <ele>955.91</ele>
        <time>2023-09-03T06:25:34Z</time>
      </trkpt>
      <trkpt lat="46.5516" lon="6.02663">
        <ele>956.86</ele>
        <time>2023-09-03T06:25:38Z</time>
      </trkpt>
      <trkpt lat="46.55156" lon="6.02674">
        <ele>958.88</ele>
        <time>2023-09-03T06:25:45Z</time>
      </trkpt>
      <trkpt lat="46.55145" lon="6.02697">
        <ele>960.57</ele>
        <time>2023-09-03T06:26:00Z</time>
      </trkpt>
      <trkpt lat="46.55133" lon="6.02712">
        <ele>960.86</ele>
        <time>2023-09-03T06:26:16Z</time>
      </trkpt>
      <trkpt lat="46.55129" lon="6.02714">
        <ele>961.6</ele>
        <time>2023-09-03T06:26:22Z</time>
      </trkpt>
      <trkpt lat="46.55111" lon="6.02739">
        <ele>961.33</ele>
        <time>2023-09-03T06:26:39Z</time>
      </trkpt>
      <trkpt lat="46.55102" lon="6.02754">
        <ele>961.09</ele>
        <time>2023-09-03T06:26:52Z</time>
      </trkpt>
      <trkpt lat="46.55102" lon="6.02762">
        <ele>957.9</ele>
        <time>2023-09-03T06:27:01Z</time>
      </trkpt>
      <trkpt lat="46.55101" lon="6.02765">
        <ele>957.9</ele>
        <time>2023-09-03T06:27:02Z</time>
      </trkpt>
      <trkpt lat="46.55088" lon="6.02786">
        <ele>956.72</ele>
        <time>2023-09-03T06:27:14Z</time>
      </trkpt>
      <trkpt lat="46.55077" lon="6.02823">
        <ele>954.44</ele>
        <time>2023-09-03T06:27:36Z</time>
      </trkpt>
      <trkpt lat="46.55075" lon="6.02832">
        <ele>952.99</ele>
        <time>2023-09-03T06:27:42Z</time>
      </trkpt>
      <trkpt lat="46.55074" lon="6.02835">
        <ele>952.92</ele>
        <time>2023-09-03T06:27:44Z</time>
      </trkpt>
      <trkpt lat="46.55073" lon="6.0284">
        <ele>952.84</ele>
        <time>2023-09-03T06:27:47Z</time>
      </trkpt>
      <trkpt lat="46.55069" lon="6.02851">
        <ele>952.72</ele>
        <time>2023-09-03T06:27:56Z</time>
      </trkpt>
      <trkpt lat="46.55048" lon="6.02875">
        <ele>952.3</ele>
        <time>2023-09-03T06:28:19Z</time>
      </trkpt>
      <trkpt lat="46.55047" lon="6.02883">
        <ele>952.16</ele>
        <time>2023-09-03T06:28:24Z</time>
      </trkpt>
      <trkpt lat="46.55041" lon="6.02896">
        <ele>950.73</ele>
        <time>2023-09-03T06:28:34Z</time>
      </trkpt>
      <trkpt lat="46.55031" lon="6.0292">
        <ele>950.49</ele>
        <time>2023-09-03T06:28:47Z</time>
      </trkpt>
      <trkpt lat="46.55023" lon="6.02927">
        <ele>950.27</ele>
        <time>2023-09-03T06:28:56Z</time>
      </trkpt>
      <trkpt lat="46.55022" lon="6.02928">
        <ele>950.16</ele>
        <time>2023-09-03T06:29:00Z</time>
      </trkpt>
      <trkpt lat="46.55019" lon="6.02927">
        <ele>950.05</ele>
        <time>2023-09-03T06:29:05Z</time>
      </trkpt>
      <trkpt lat="46.55017" lon="6.02926">
        <ele>949.9</ele>
        <time>2023-09-03T06:29:09Z</time>
      </trkpt>
      <trkpt lat="46.55013" lon="6.02924">
        <ele>949.82</ele>
        <time>2023-09-03T06:29:17Z</time>
      </trkpt>
      <trkpt lat="46.55004" lon="6.02922">
        <ele>949.58</ele>
        <time>2023-09-03T06:29:23Z</time>
      </trkpt>
      <trkpt lat="46.55002" lon="6.02921">
        <ele>949.54</ele>
        <time>2023-09-03T06:29:26Z</time>
      </trkpt>
      <trkpt lat="46.5499" lon="6.02909">
        <ele>949.22</ele>
        <time>2023-09-03T06:29:38Z</time>
      </trkpt>
      <trkpt lat="46.54983" lon="6.02902">
        <ele>949.18</ele>
        <time>2023-09-03T06:29:42Z</time>
      </trkpt>
      <trkpt lat="46.5498" lon="6.02898">
        <ele>949</ele>
        <time>2023-09-03T06:29:45Z</time>
      </trkpt>
      <trkpt lat="46.54972" lon="6.02891">
        <ele>947.7</ele>
        <time>2023-09-03T06:29:51Z</time>
      </trkpt>
      <trkpt lat="46.54962" lon="6.02877">
        <ele>947.29</ele>
        <time>2023-09-03T06:30:04Z</time>
      </trkpt>
      <trkpt lat="46.54959" lon="6.02873">
        <ele>946.23</ele>
        <time>2023-09-03T06:30:07Z</time>
      </trkpt>
      <trkpt lat="46.54954" lon="6.02864">
        <ele>946.11</ele>
        <time>2023-09-03T06:30:12Z</time>
      </trkpt>
      <trkpt lat="46.54952" lon="6.02859">
        <ele>946.01</ele>
        <time>2023-09-03T06:30:14Z</time>
      </trkpt>
      <trkpt lat="46.54936" lon="6.02844">
        <ele>944.66</ele>
        <time>2023-09-03T06:30:25Z</time>
      </trkpt>
      <trkpt lat="46.54931" lon="6.02837">
        <ele>944.48</ele>
        <time>2023-09-03T06:30:29Z</time>
      </trkpt>
      <trkpt lat="46.54929" lon="6.02834">
        <ele>944.44</ele>
        <time>2023-09-03T06:30:31Z</time>
      </trkpt>
      <trkpt lat="46.54925" lon="6.02831">
        <ele>944.34</ele>
        <time>2023-09-03T06:30:33Z</time>
      </trkpt>
      <trkpt lat="46.5492" lon="6.02826">
        <ele>942.81</ele>
        <time>2023-09-03T06:30:39Z</time>
      </trkpt>
      <trkpt lat="46.54915" lon="6.02822">
        <ele>942.78</ele>
        <time>2023-09-03T06:30:42Z</time>
      </trkpt>
      <trkpt lat="46.54913" lon="6.02819">
        <ele>942.65</ele>
        <time>2023-09-03T06:30:44Z</time>
      </trkpt>
      <trkpt lat="46.54912" lon="6.02815">
        <ele>942.63</ele>
        <time>2023-09-03T06:30:47Z</time>
      </trkpt>
      <trkpt lat="46.54909" lon="6.02807">
        <ele>941.24</ele>
        <time>2023-09-03T06:30:51Z</time>
      </trkpt>
      <trkpt lat="46.54905" lon="6.02798">
        <ele>938.92</ele>
        <time>2023-09-03T06:30:58Z</time>
      </trkpt>
      <trkpt lat="46.549" lon="6.02788">
        <ele>937.83</ele>
        <time>2023-09-03T06:31:02Z</time>
      </trkpt>
      <trkpt lat="46.54892" lon="6.02767">
        <ele>935.43</ele>
        <time>2023-09-03T06:31:15Z</time>
      </trkpt>
      <trkpt lat="46.54886" lon="6.02754">
        <ele>933.93</ele>
        <time>2023-09-03T06:31:24Z</time>
      </trkpt>
      <trkpt lat="46.54879" lon="6.02744">
        <ele>932.66</ele>
        <time>2023-09-03T06:31:30Z</time>
      </trkpt>
      <trkpt lat="46.54871" lon="6.02734">
        <ele>931.32</ele>
        <time>2023-09-03T06:31:36Z</time>
      </trkpt>
      <trkpt lat="46.54861" lon="6.02723">
        <ele>930.26</ele>
        <time>2023-09-03T06:31:43Z</time>
      </trkpt>
      <trkpt lat="46.54851" lon="6.02713">
        <ele>929.14</ele>
        <time>2023-09-03T06:31:51Z</time>
      </trkpt>
      <trkpt lat="46.54847" lon="6.02706">
        <ele>929.01</ele>
        <time>2023-09-03T06:31:55Z</time>
      </trkpt>
      <trkpt lat="46.54832" lon="6.02693">
        <ele>927.01</ele>
        <time>2023-09-03T06:32:07Z</time>
      </trkpt>
      <trkpt lat="46.54825" lon="6.02689">
        <ele>926.03</ele>
        <time>2023-09-03T06:32:12Z</time>
      </trkpt>
      <trkpt lat="46.54802" lon="6.02671">
        <ele>924.35</ele>
        <time>2023-09-03T06:32:29Z</time>
      </trkpt>
      <trkpt lat="46.54784" lon="6.02659">
        <ele>923.27</ele>
        <time>2023-09-03T06:32:40Z</time>
      </trkpt>
      <trkpt lat="46.54782" lon="6.02654">
        <ele>923.19</ele>
        <time>2023-09-03T06:32:43Z</time>
      </trkpt>
      <trkpt lat="46.5478" lon="6.02651">
        <ele>921.63</ele>
        <time>2023-09-03T06:32:45Z</time>
      </trkpt>
      <trkpt lat="46.54774" lon="6.02647">
        <ele>920.77</ele>
        <time>2023-09-03T06:32:51Z</time>
      </trkpt>
      <trkpt lat="46.54772" lon="6.02644">
        <ele>919.45</ele>
        <time>2023-09-03T06:32:54Z</time>
      </trkpt>
      <trkpt lat="46.54772" lon="6.02644">
        <ele>919.43</ele>
        <time>2023-09-03T06:32:55Z</time>
      </trkpt>
      <trkpt lat="46.54766" lon="6.02637">
        <ele>917.38</ele>
        <time>2023-09-03T06:33:00Z</time>
      </trkpt>
      <trkpt lat="46.54757" lon="6.02618">
        <ele>915.69</ele>
        <time>2023-09-03T06:33:11Z</time>
      </trkpt>
      <trkpt lat="46.54746" lon="6.02603">
        <ele>913.4</ele>
        <time>2023-09-03T06:33:22Z</time>
      </trkpt>
      <trkpt lat="46.54729" lon="6.02584">
        <ele>910.19</ele>
        <time>2023-09-03T06:33:35Z</time>
      </trkpt>
      <trkpt lat="46.54728" lon="6.02583">
        <ele>910.17</ele>
        <time>2023-09-03T06:33:36Z</time>
      </trkpt>
      <trkpt lat="46.54721" lon="6.02574">
        <ele>907.68</ele>
        <time>2023-09-03T06:33:45Z</time>
      </trkpt>
      <trkpt lat="46.5471" lon="6.02555">
        <ele>904.98</ele>
        <time>2023-09-03T06:33:56Z</time>
      </trkpt>
      <trkpt lat="46.54709" lon="6.02554">
        <ele>905.01</ele>
        <time>2023-09-03T06:33:57Z</time>
      </trkpt>
      <trkpt lat="46.54697" lon="6.02525">
        <ele>902.45</ele>
        <time>2023-09-03T06:34:07Z</time>
      </trkpt>
      <trkpt lat="46.54685" lon="6.025">
        <ele>898.54</ele>
        <time>2023-09-03T06:34:19Z</time>
      </trkpt>
      <trkpt lat="46.54672" lon="6.0247">
        <ele>896.42</ele>
        <time>2023-09-03T06:34:32Z</time>
      </trkpt>
      <trkpt lat="46.54654" lon="6.02441">
        <ele>894.26</ele>
        <time>2023-09-03T06:34:46Z</time>
      </trkpt>
      <trkpt lat="46.54636" lon="6.02414">
        <ele>892.04</ele>
        <time>2023-09-03T06:35:00Z</time>
      </trkpt>
      <trkpt lat="46.5462" lon="6.02386">
        <ele>889.87</ele>
        <time>2023-09-03T06:35:14Z</time>
      </trkpt>
      <trkpt lat="46.54611" lon="6.02368">
        <ele>888.6</ele>
        <time>2023-09-03T06:35:24Z</time>
      </trkpt>
      <trkpt lat="46.54597" lon="6.02343">
        <ele>887.69</ele>
        <time>2023-09-03T06:35:37Z</time>
      </trkpt>
      <trkpt lat="46.54596" lon="6.02339">
        <ele>886.13</ele>
        <time>2023-09-03T06:35:39Z</time>
      </trkpt>
      <trkpt lat="46.54594" lon="6.02334">
        <ele>886.14</ele>
        <time>2023-09-03T06:35:42Z</time>
      </trkpt>
      <trkpt lat="46.54593" lon="6.02332">
        <ele>886.14</ele>
        <time>2023-09-03T06:35:43Z</time>
      </trkpt>
      <trkpt lat="46.54591" lon="6.02329">
        <ele>886.17</ele>
        <time>2023-09-03T06:35:44Z</time>
      </trkpt>
      <trkpt lat="46.54578" lon="6.02306">
        <ele>884.49</ele>
        <time>2023-09-03T06:35:55Z</time>
      </trkpt>
      <trkpt lat="46.5456" lon="6.02285">
        <ele>882.94</ele>
        <time>2023-09-03T06:36:08Z</time>
      </trkpt>
      <trkpt lat="46.54542" lon="6.02275">
        <ele>880.59</ele>
        <time>2023-09-03T06:36:18Z</time>
      </trkpt>
      <trkpt lat="46.54517" lon="6.02262">
        <ele>878.92</ele>
        <time>2023-09-03T06:36:34Z</time>
      </trkpt>
      <trkpt lat="46.54494" lon="6.02245">
        <ele>878.33</ele>
        <time>2023-09-03T06:36:50Z</time>
      </trkpt>
      <trkpt lat="46.54477" lon="6.02222">
        <ele>877.56</ele>
        <time>2023-09-03T06:37:06Z</time>
      </trkpt>
      <trkpt lat="46.54476" lon="6.02222">
        <ele>877.54</ele>
        <time>2023-09-03T06:37:07Z</time>
      </trkpt>
      <trkpt lat="46.54473" lon="6.02224">
        <ele>876.36</ele>
        <time>2023-09-03T06:37:10Z</time>
      </trkpt>
      <trkpt lat="46.54472" lon="6.02226">
        <ele>876.34</ele>
        <time>2023-09-03T06:37:11Z</time>
      </trkpt>
      <trkpt lat="46.54472" lon="6.02227">
        <ele>876.33</ele>
        <time>2023-09-03T06:37:12Z</time>
      </trkpt>
      <trkpt lat="46.54471" lon="6.02229">
        <ele>876.37</ele>
        <time>2023-09-03T06:37:13Z</time>
      </trkpt>
      <trkpt lat="46.5447" lon="6.0223">
        <ele>875.43</ele>
        <time>2023-09-03T06:37:14Z</time>
      </trkpt>
      <trkpt lat="46.54469" lon="6.0223">
        <ele>875.49</ele>
        <time>2023-09-03T06:37:15Z</time>
      </trkpt>
      <trkpt lat="46.54467" lon="6.02229">
        <ele>875.46</ele>
        <time>2023-09-03T06:37:16Z</time>
      </trkpt>
      <trkpt lat="46.54466" lon="6.02229">
        <ele>875.47</ele>
        <time>2023-09-03T06:37:17Z</time>
      </trkpt>
      <trkpt lat="46.54464" lon="6.02228">
        <ele>874.56</ele>
        <time>2023-09-03T06:37:18Z</time>
      </trkpt>
      <trkpt lat="46.54458" lon="6.02226">
        <ele>873.28</ele>
        <time>2023-09-03T06:37:23Z</time>
      </trkpt>
      <trkpt lat="46.54438" lon="6.02219">
        <ele>870.27</ele>
        <time>2023-09-03T06:37:36Z</time>
      </trkpt>
      <trkpt lat="46.54426" lon="6.02213">
        <ele>867.48</ele>
        <time>2023-09-03T06:37:45Z</time>
      </trkpt>
      <trkpt lat="46.54409" lon="6.02201">
        <ele>865.16</ele>
        <time>2023-09-03T06:37:57Z</time>
      </trkpt>
      <trkpt lat="46.54388" lon="6.02188">
        <ele>863.32</ele>
        <time>2023-09-03T06:38:11Z</time>
      </trkpt>
      <trkpt lat="46.54377" lon="6.0218">
        <ele>860.08</ele>
        <time>2023-09-03T06:38:22Z</time>
      </trkpt>
      <trkpt lat="46.54376" lon="6.0218">
        <ele>860.06</ele>
        <time>2023-09-03T06:38:23Z</time>
      </trkpt>
      <trkpt lat="46.5437" lon="6.02175">
        <ele>860.36</ele>
        <time>2023-09-03T06:38:45Z</time>
      </trkpt>
      <trkpt lat="46.54361" lon="6.02165">
        <ele>859.36</ele>
        <time>2023-09-03T06:38:52Z</time>
      </trkpt>
      <trkpt lat="46.5436" lon="6.02164">
        <ele>859.41</ele>
        <time>2023-09-03T06:38:53Z</time>
      </trkpt>
      <trkpt lat="46.54358" lon="6.02163">
        <ele>859.42</ele>
        <time>2023-09-03T06:38:54Z</time>
      </trkpt>
      <trkpt lat="46.5434" lon="6.02142">
        <ele>856.61</ele>
        <time>2023-09-03T06:39:09Z</time>
      </trkpt>
      <trkpt lat="46.5433" lon="6.02127">
        <ele>856.73</ele>
        <time>2023-09-03T06:39:19Z</time>
      </trkpt>
      <trkpt lat="46.54329" lon="6.02127">
        <ele>856.71</ele>
        <time>2023-09-03T06:39:20Z</time>
      </trkpt>
      <trkpt lat="46.54328" lon="6.02126">
        <ele>855.85</ele>
        <time>2023-09-03T06:39:21Z</time>
      </trkpt>
      <trkpt lat="46.54305" lon="6.02105">
        <ele>853.87</ele>
        <time>2023-09-03T06:39:39Z</time>
      </trkpt>
      <trkpt lat="46.54293" lon="6.02093">
        <ele>852.83</ele>
        <time>2023-09-03T06:39:50Z</time>
      </trkpt>
      <trkpt lat="46.54293" lon="6.02091">
        <ele>852.84</ele>
        <time>2023-09-03T06:39:51Z</time>
      </trkpt>
      <trkpt lat="46.54292" lon="6.0209">
        <ele>852.83</ele>
        <time>2023-09-03T06:39:52Z</time>
      </trkpt>
      <trkpt lat="46.54291" lon="6.02088">
        <ele>852.84</ele>
        <time>2023-09-03T06:39:53Z</time>
      </trkpt>
      <trkpt lat="46.54291" lon="6.02087">
        <ele>852.86</ele>
        <time>2023-09-03T06:39:54Z</time>
      </trkpt>
      <trkpt lat="46.54285" lon="6.0207">
        <ele>851.9</ele>
        <time>2023-09-03T06:40:07Z</time>
      </trkpt>
      <trkpt lat="46.54278" lon="6.02045">
        <ele>851.03</ele>
        <time>2023-09-03T06:40:23Z</time>
      </trkpt>
      <trkpt lat="46.54271" lon="6.02033">
        <ele>850.02</ele>
        <time>2023-09-03T06:40:32Z</time>
      </trkpt>
      <trkpt lat="46.5427" lon="6.02032">
        <ele>850.08</ele>
        <time>2023-09-03T06:40:33Z</time>
      </trkpt>
      <trkpt lat="46.54269" lon="6.02032">
        <ele>850.08</ele>
        <time>2023-09-03T06:40:34Z</time>
      </trkpt>
      <trkpt lat="46.54266" lon="6.02029">
        <ele>848.9</ele>
        <time>2023-09-03T06:40:37Z</time>
      </trkpt>
      <trkpt lat="46.54252" lon="6.02008">
        <ele>848.29</ele>
        <time>2023-09-03T06:40:49Z</time>
      </trkpt>
      <trkpt lat="46.5425" lon="6.02007">
        <ele>848.28</ele>
        <time>2023-09-03T06:40:50Z</time>
      </trkpt>
      <trkpt lat="46.54242" lon="6.01997">
        <ele>847.55</ele>
        <time>2023-09-03T06:41:00Z</time>
      </trkpt>
      <trkpt lat="46.54238" lon="6.01984">
        <ele>847.64</ele>
        <time>2023-09-03T06:41:09Z</time>
      </trkpt>
      <trkpt lat="46.54237" lon="6.01984">
        <ele>847.65</ele>
        <time>2023-09-03T06:41:10Z</time>
      </trkpt>
      <trkpt lat="46.54236" lon="6.01983">
        <ele>847.66</ele>
        <time>2023-09-03T06:41:11Z</time>
      </trkpt>
      <trkpt lat="46.54234" lon="6.01983">
        <ele>847.66</ele>
        <time>2023-09-03T06:41:12Z</time>
      </trkpt>
      <trkpt lat="46.54233" lon="6.01983">
        <ele>847.66</ele>
        <time>2023-09-03T06:41:13Z</time>
      </trkpt>
      <trkpt lat="46.54231" lon="6.01983">
        <ele>847.67</ele>
        <time>2023-09-03T06:41:14Z</time>
      </trkpt>
      <trkpt lat="46.5423" lon="6.01983">
        <ele>847.68</ele>
        <time>2023-09-03T06:41:15Z</time>
      </trkpt>
      <trkpt lat="46.54229" lon="6.01983">
        <ele>847.69</ele>
        <time>2023-09-03T06:41:16Z</time>
      </trkpt>
      <trkpt lat="46.54227" lon="6.01984">
        <ele>847.69</ele>
        <time>2023-09-03T06:41:17Z</time>
      </trkpt>
      <trkpt lat="46.54226" lon="6.01984">
        <ele>847.7</ele>
        <time>2023-09-03T06:41:18Z</time>
      </trkpt>
      <trkpt lat="46.54224" lon="6.01984">
        <ele>847.7</ele>
        <time>2023-09-03T06:41:19Z</time>
      </trkpt>
      <trkpt lat="46.54207" lon="6.01989">
        <ele>847.79</ele>
        <time>2023-09-03T06:41:31Z</time>
      </trkpt>
      <trkpt lat="46.54187" lon="6.02002">
        <ele>847.84</ele>
        <time>2023-09-03T06:41:45Z</time>
      </trkpt>
      <trkpt lat="46.54181" lon="6.02007">
        <ele>850.13</ele>
        <time>2023-09-03T06:41:52Z</time>
      </trkpt>
      <trkpt lat="46.54166" lon="6.02002">
        <ele>850.12</ele>
        <time>2023-09-03T06:42:06Z</time>
      </trkpt>
      <trkpt lat="46.5416" lon="6.02004">
        <ele>850.12</ele>
        <time>2023-09-03T06:42:10Z</time>
      </trkpt>
      <trkpt lat="46.54145" lon="6.02041">
        <ele>850.14</ele>
        <time>2023-09-03T06:42:25Z</time>
      </trkpt>
      <trkpt lat="46.54132" lon="6.02048">
        <ele>851.05</ele>
        <time>2023-09-03T06:42:38Z</time>
      </trkpt>
      <trkpt lat="46.54128" lon="6.02058">
        <ele>851.05</ele>
        <time>2023-09-03T06:42:43Z</time>
      </trkpt>
      <trkpt lat="46.54122" lon="6.02072">
        <ele>851.08</ele>
        <time>2023-09-03T06:42:52Z</time>
      </trkpt>
      <trkpt lat="46.54112" lon="6.02081">
        <ele>851.12</ele>
        <time>2023-09-03T06:42:59Z</time>
      </trkpt>
      <trkpt lat="46.54105" lon="6.02087">
        <ele>851.15</ele>
        <time>2023-09-03T06:43:04Z</time>
      </trkpt>
      <trkpt lat="46.54095" lon="6.02101">
        <ele>851.21</ele>
        <time>2023-09-03T06:43:13Z</time>
      </trkpt>
      <trkpt lat="46.54086" lon="6.02106">
        <ele>851.24</ele>
        <time>2023-09-03T06:43:21Z</time>
      </trkpt>
      <trkpt lat="46.54082" lon="6.0211">
        <ele>851.27</ele>
        <time>2023-09-03T06:43:23Z</time>
      </trkpt>
      <trkpt lat="46.54077" lon="6.02112">
        <ele>851.29</ele>
        <time>2023-09-03T06:43:26Z</time>
      </trkpt>
      <trkpt lat="46.5407" lon="6.02114">
        <ele>851.31</ele>
        <time>2023-09-03T06:43:31Z</time>
      </trkpt>
      <trkpt lat="46.5405" lon="6.02117">
        <ele>851.37</ele>
        <time>2023-09-03T06:43:41Z</time>
      </trkpt>
      <trkpt lat="46.54038" lon="6.02115">
        <ele>851.43</ele>
        <time>2023-09-03T06:43:50Z</time>
      </trkpt>
      <trkpt lat="46.54025" lon="6.02111">
        <ele>851.49</ele>
        <time>2023-09-03T06:43:55Z</time>
      </trkpt>
      <trkpt lat="46.54017" lon="6.02104">
        <ele>851.53</ele>
        <time>2023-09-03T06:43:59Z</time>
      </trkpt>
      <trkpt lat="46.54009" lon="6.02084">
        <ele>851.63</ele>
        <time>2023-09-03T06:44:12Z</time>
      </trkpt>
      <trkpt lat="46.54031" lon="6.02054">
        <ele>851.81</ele>
        <time>2023-09-03T06:44:30Z</time>
      </trkpt>
      <trkpt lat="46.54031" lon="6.02053">
        <ele>851.82</ele>
        <time>2023-09-03T06:44:31Z</time>
      </trkpt>
      <trkpt lat="46.54029" lon="6.02041">
        <ele>853.09</ele>
        <time>2023-09-03T06:44:40Z</time>
      </trkpt>
      <trkpt lat="46.54028" lon="6.02036">
        <ele>853.12</ele>
        <time>2023-09-03T06:44:43Z</time>
      </trkpt>
      <trkpt lat="46.54028" lon="6.02011">
        <ele>853.2</ele>
        <time>2023-09-03T06:44:58Z</time>
      </trkpt>
      <trkpt lat="46.54021" lon="6.02002">
        <ele>854.08</ele>
        <time>2023-09-03T06:45:04Z</time>
      </trkpt>
      <trkpt lat="46.54012" lon="6.01985">
        <ele>854.13</ele>
        <time>2023-09-03T06:45:14Z</time>
      </trkpt>
      <trkpt lat="46.54002" lon="6.01969">
        <ele>851.84</ele>
        <time>2023-09-03T06:45:24Z</time>
      </trkpt>
      <trkpt lat="46.53998" lon="6.01967">
        <ele>848.55</ele>
        <time>2023-09-03T06:45:27Z</time>
      </trkpt>
      <trkpt lat="46.53996" lon="6.01967">
        <ele>848.56</ele>
        <time>2023-09-03T06:45:28Z</time>
      </trkpt>
      <trkpt lat="46.53993" lon="6.01966">
        <ele>851.57</ele>
        <time>2023-09-03T06:45:31Z</time>
      </trkpt>
      <trkpt lat="46.5399" lon="6.01967">
        <ele>853.97</ele>
        <time>2023-09-03T06:45:33Z</time>
      </trkpt>
      <trkpt lat="46.53987" lon="6.01969">
        <ele>853.98</ele>
        <time>2023-09-03T06:45:36Z</time>
      </trkpt>
      <trkpt lat="46.5399" lon="6.01994">
        <ele>855.25</ele>
        <time>2023-09-03T06:45:49Z</time>
      </trkpt>
      <trkpt lat="46.53992" lon="6.02018">
        <ele>858.3</ele>
        <time>2023-09-03T06:46:02Z</time>
      </trkpt>
      <trkpt lat="46.53991" lon="6.0204">
        <ele>860.41</ele>
        <time>2023-09-03T06:46:15Z</time>
      </trkpt>
      <trkpt lat="46.53985" lon="6.02058">
        <ele>862.42</ele>
        <time>2023-09-03T06:46:25Z</time>
      </trkpt>
      <trkpt lat="46.53981" lon="6.0207">
        <ele>863.16</ele>
        <time>2023-09-03T06:46:31Z</time>
      </trkpt>
      <trkpt lat="46.53979" lon="6.02094">
        <ele>866.62</ele>
        <time>2023-09-03T06:46:45Z</time>
      </trkpt>
      <trkpt lat="46.53974" lon="6.02099">
        <ele>867.72</ele>
        <time>2023-09-03T06:46:51Z</time>
      </trkpt>
      <trkpt lat="46.53971" lon="6.02097">
        <ele>867.73</ele>
        <time>2023-09-03T06:46:54Z</time>
      </trkpt>
      <trkpt lat="46.53966" lon="6.02096">
        <ele>869.09</ele>
        <time>2023-09-03T06:46:59Z</time>
      </trkpt>
      <trkpt lat="46.53956" lon="6.02092">
        <ele>869.85</ele>
        <time>2023-09-03T06:47:07Z</time>
      </trkpt>
      <trkpt lat="46.53949" lon="6.02087">
        <ele>869.87</ele>
        <time>2023-09-03T06:47:13Z</time>
      </trkpt>
      <trkpt lat="46.53939" lon="6.02086">
        <ele>869.88</ele>
        <time>2023-09-03T06:47:18Z</time>
      </trkpt>
      <trkpt lat="46.53914" lon="6.02084">
        <ele>869.93</ele>
        <time>2023-09-03T06:47:31Z</time>
      </trkpt>
      <trkpt lat="46.53903" lon="6.02082">
        <ele>867.56</ele>
        <time>2023-09-03T06:47:37Z</time>
      </trkpt>
      <trkpt lat="46.53898" lon="6.0208">
        <ele>867.56</ele>
        <time>2023-09-03T06:47:38Z</time>
      </trkpt>
      <trkpt lat="46.53895" lon="6.02079">
        <ele>867.58</ele>
        <time>2023-09-03T06:47:39Z</time>
      </trkpt>
      <trkpt lat="46.53893" lon="6.02077">
        <ele>867.58</ele>
        <time>2023-09-03T06:47:41Z</time>
      </trkpt>
      <trkpt lat="46.53884" lon="6.02071">
        <ele>867.6</ele>
        <time>2023-09-03T06:47:44Z</time>
      </trkpt>
      <trkpt lat="46.53882" lon="6.02069">
        <ele>867.61</ele>
        <time>2023-09-03T06:47:45Z</time>
      </trkpt>
      <trkpt lat="46.53878" lon="6.02067">
        <ele>867.63</ele>
        <time>2023-09-03T06:47:48Z</time>
      </trkpt>
      <trkpt lat="46.53871" lon="6.02062">
        <ele>867.69</ele>
        <time>2023-09-03T06:47:56Z</time>
      </trkpt>
      <trkpt lat="46.53865" lon="6.02056">
        <ele>867.71</ele>
        <time>2023-09-03T06:47:59Z</time>
      </trkpt>
      <trkpt lat="46.53863" lon="6.02054">
        <ele>867.72</ele>
        <time>2023-09-03T06:48:00Z</time>
      </trkpt>
      <trkpt lat="46.53861" lon="6.02052">
        <ele>867.73</ele>
        <time>2023-09-03T06:48:01Z</time>
      </trkpt>
      <trkpt lat="46.53861" lon="6.02052">
        <ele>867.74</ele>
        <time>2023-09-03T06:48:02Z</time>
      </trkpt>
      <trkpt lat="46.53861" lon="6.0205">
        <ele>866.64</ele>
        <time>2023-09-03T06:48:04Z</time>
      </trkpt>
      <trkpt lat="46.53856" lon="6.02047">
        <ele>866.66</ele>
        <time>2023-09-03T06:48:07Z</time>
      </trkpt>
      <trkpt lat="46.53855" lon="6.02046">
        <ele>866.65</ele>
        <time>2023-09-03T06:48:08Z</time>
      </trkpt>
      <trkpt lat="46.53842" lon="6.02036">
        <ele>865.77</ele>
        <time>2023-09-03T06:48:17Z</time>
      </trkpt>
      <trkpt lat="46.53838" lon="6.02032">
        <ele>865.76</ele>
        <time>2023-09-03T06:48:20Z</time>
      </trkpt>
      <trkpt lat="46.53829" lon="6.02025">
        <ele>864.15</ele>
        <time>2023-09-03T06:48:26Z</time>
      </trkpt>
      <trkpt lat="46.53827" lon="6.02019">
        <ele>864.15</ele>
        <time>2023-09-03T06:48:29Z</time>
      </trkpt>
      <trkpt lat="46.53827" lon="6.02017">
        <ele>864.15</ele>
        <time>2023-09-03T06:48:30Z</time>
      </trkpt>
      <trkpt lat="46.53827" lon="6.02015">
        <ele>864.17</ele>
        <time>2023-09-03T06:48:31Z</time>
      </trkpt>
      <trkpt lat="46.53826" lon="6.02013">
        <ele>864.17</ele>
        <time>2023-09-03T06:48:32Z</time>
      </trkpt>
      <trkpt lat="46.53824" lon="6.02011">
        <ele>864.19</ele>
        <time>2023-09-03T06:48:33Z</time>
      </trkpt>
      <trkpt lat="46.53823" lon="6.0201">
        <ele>864.2</ele>
        <time>2023-09-03T06:48:34Z</time>
      </trkpt>
      <trkpt lat="46.53821" lon="6.02009">
        <ele>864.21</ele>
        <time>2023-09-03T06:48:35Z</time>
      </trkpt>
      <trkpt lat="46.5382" lon="6.02007">
        <ele>863.38</ele>
        <time>2023-09-03T06:48:36Z</time>
      </trkpt>
      <trkpt lat="46.53819" lon="6.02006">
        <ele>863.39</ele>
        <time>2023-09-03T06:48:37Z</time>
      </trkpt>
      <trkpt lat="46.53815" lon="6.01997">
        <ele>863.48</ele>
        <time>2023-09-03T06:48:44Z</time>
      </trkpt>
      <trkpt lat="46.53813" lon="6.01995">
        <ele>863.49</ele>
        <time>2023-09-03T06:48:45Z</time>
      </trkpt>
      <trkpt lat="46.53807" lon="6.01992">
        <ele>863.55</ele>
        <time>2023-09-03T06:48:50Z</time>
      </trkpt>
      <trkpt lat="46.53806" lon="6.01991">
        <ele>863.55</ele>
        <time>2023-09-03T06:48:51Z</time>
      </trkpt>
      <trkpt lat="46.53803" lon="6.01989">
        <ele>863.59</ele>
        <time>2023-09-03T06:48:54Z</time>
      </trkpt>
      <trkpt lat="46.53795" lon="6.01986">
        <ele>863.66</ele>
        <time>2023-09-03T06:49:00Z</time>
      </trkpt>
      <trkpt lat="46.53792" lon="6.01984">
        <ele>862.8</ele>
        <time>2023-09-03T06:49:02Z</time>
      </trkpt>
      <trkpt lat="46.53791" lon="6.01983">
        <ele>862.81</ele>
        <time>2023-09-03T06:49:03Z</time>
      </trkpt>
      <trkpt lat="46.53782" lon="6.01978">
        <ele>862.09</ele>
        <time>2023-09-03T06:49:11Z</time>
      </trkpt>
      <trkpt lat="46.53775" lon="6.01973">
        <ele>860.46</ele>
        <time>2023-09-03T06:49:18Z</time>
      </trkpt>
      <trkpt lat="46.53773" lon="6.0197">
        <ele>860.47</ele>
        <time>2023-09-03T06:49:19Z</time>
      </trkpt>
      <trkpt lat="46.5377" lon="6.01968">
        <ele>860.49</ele>
        <time>2023-09-03T06:49:20Z</time>
      </trkpt>
      <trkpt lat="46.53768" lon="6.01967">
        <ele>860.43</ele>
        <time>2023-09-03T06:49:21Z</time>
      </trkpt>
      <trkpt lat="46.53766" lon="6.01965">
        <ele>860.49</ele>
        <time>2023-09-03T06:49:22Z</time>
      </trkpt>
      <trkpt lat="46.53751" lon="6.01949">
        <ele>859.83</ele>
        <time>2023-09-03T06:49:31Z</time>
      </trkpt>
      <trkpt lat="46.53745" lon="6.01939">
        <ele>859</ele>
        <time>2023-09-03T06:49:36Z</time>
      </trkpt>
      <trkpt lat="46.53743" lon="6.01937">
        <ele>859</ele>
        <time>2023-09-03T06:49:37Z</time>
      </trkpt>
      <trkpt lat="46.53742" lon="6.01936">
        <ele>859.02</ele>
        <time>2023-09-03T06:49:38Z</time>
      </trkpt>
      <trkpt lat="46.53741" lon="6.01934">
        <ele>859.02</ele>
        <time>2023-09-03T06:49:39Z</time>
      </trkpt>
      <trkpt lat="46.53739" lon="6.01933">
        <ele>857.83</ele>
        <time>2023-09-03T06:49:40Z</time>
      </trkpt>
      <trkpt lat="46.53738" lon="6.01932">
        <ele>857.83</ele>
        <time>2023-09-03T06:49:41Z</time>
      </trkpt>
      <trkpt lat="46.53737" lon="6.01929">
        <ele>857.88</ele>
        <time>2023-09-03T06:49:44Z</time>
      </trkpt>
      <trkpt lat="46.53734" lon="6.01926">
        <ele>857.91</ele>
        <time>2023-09-03T06:49:46Z</time>
      </trkpt>
      <trkpt lat="46.53732" lon="6.01919">
        <ele>857.99</ele>
        <time>2023-09-03T06:49:53Z</time>
      </trkpt>
      <trkpt lat="46.53725" lon="6.01913">
        <ele>858.03</ele>
        <time>2023-09-03T06:49:57Z</time>
      </trkpt>
      <trkpt lat="46.53723" lon="6.01911">
        <ele>858.04</ele>
        <time>2023-09-03T06:49:58Z</time>
      </trkpt>
      <trkpt lat="46.53722" lon="6.0191">
        <ele>858.05</ele>
        <time>2023-09-03T06:49:59Z</time>
      </trkpt>
      <trkpt lat="46.53719" lon="6.01908">
        <ele>858.06</ele>
        <time>2023-09-03T06:50:00Z</time>
      </trkpt>
      <trkpt lat="46.53715" lon="6.01902">
        <ele>856.74</ele>
        <time>2023-09-03T06:50:03Z</time>
      </trkpt>
      <trkpt lat="46.53714" lon="6.019">
        <ele>856.75</ele>
        <time>2023-09-03T06:50:04Z</time>
      </trkpt>
      <trkpt lat="46.53711" lon="6.01897">
        <ele>856.77</ele>
        <time>2023-09-03T06:50:06Z</time>
      </trkpt>
      <trkpt lat="46.53708" lon="6.01894">
        <ele>856.8</ele>
        <time>2023-09-03T06:50:08Z</time>
      </trkpt>
      <trkpt lat="46.53707" lon="6.01893">
        <ele>856.73</ele>
        <time>2023-09-03T06:50:09Z</time>
      </trkpt>
      <trkpt lat="46.53706" lon="6.01892">
        <ele>856.03</ele>
        <time>2023-09-03T06:50:10Z</time>
      </trkpt>
      <trkpt lat="46.53705" lon="6.01891">
        <ele>856.04</ele>
        <time>2023-09-03T06:50:11Z</time>
      </trkpt>
      <trkpt lat="46.53705" lon="6.01889">
        <ele>856.04</ele>
        <time>2023-09-03T06:50:12Z</time>
      </trkpt>
      <trkpt lat="46.53704" lon="6.01888">
        <ele>856.05</ele>
        <time>2023-09-03T06:50:13Z</time>
      </trkpt>
      <trkpt lat="46.53703" lon="6.01887">
        <ele>856.07</ele>
        <time>2023-09-03T06:50:14Z</time>
      </trkpt>
      <trkpt lat="46.53701" lon="6.01886">
        <ele>856.07</ele>
        <time>2023-09-03T06:50:15Z</time>
      </trkpt>
      <trkpt lat="46.53694" lon="6.01881">
        <ele>855.35</ele>
        <time>2023-09-03T06:50:20Z</time>
      </trkpt>
      <trkpt lat="46.53693" lon="6.0188">
        <ele>855.35</ele>
        <time>2023-09-03T06:50:21Z</time>
      </trkpt>
      <trkpt lat="46.53682" lon="6.01873">
        <ele>854.64</ele>
        <time>2023-09-03T06:50:27Z</time>
      </trkpt>
      <trkpt lat="46.53681" lon="6.01872">
        <ele>854.64</ele>
        <time>2023-09-03T06:50:28Z</time>
      </trkpt>
      <trkpt lat="46.53679" lon="6.01871">
        <ele>854.65</ele>
        <time>2023-09-03T06:50:29Z</time>
      </trkpt>
      <trkpt lat="46.53678" lon="6.01871">
        <ele>853.43</ele>
        <time>2023-09-03T06:50:30Z</time>
      </trkpt>
      <trkpt lat="46.5368" lon="6.01869">
        <ele>851.66</ele>
        <time>2023-09-03T06:50:35Z</time>
      </trkpt>
      <trkpt lat="46.53679" lon="6.01868">
        <ele>851.67</ele>
        <time>2023-09-03T06:50:36Z</time>
      </trkpt>
      <trkpt lat="46.53677" lon="6.01865">
        <ele>850.11</ele>
        <time>2023-09-03T06:50:38Z</time>
      </trkpt>
      <trkpt lat="46.53675" lon="6.01861">
        <ele>849.7</ele>
        <time>2023-09-03T06:50:40Z</time>
      </trkpt>
      <trkpt lat="46.53672" lon="6.01859">
        <ele>848.75</ele>
        <time>2023-09-03T06:50:43Z</time>
      </trkpt>
      <trkpt lat="46.53662" lon="6.01845">
        <ele>847.79</ele>
        <time>2023-09-03T06:50:48Z</time>
      </trkpt>
      <trkpt lat="46.5366" lon="6.01842">
        <ele>846.07</ele>
        <time>2023-09-03T06:50:49Z</time>
      </trkpt>
      <trkpt lat="46.53659" lon="6.0184">
        <ele>846.09</ele>
        <time>2023-09-03T06:50:50Z</time>
      </trkpt>
      <trkpt lat="46.53655" lon="6.01837">
        <ele>846.16</ele>
        <time>2023-09-03T06:50:52Z</time>
      </trkpt>
      <trkpt lat="46.53654" lon="6.01835">
        <ele>846.1</ele>
        <time>2023-09-03T06:50:53Z</time>
      </trkpt>
      <trkpt lat="46.53651" lon="6.01833">
        <ele>846.16</ele>
        <time>2023-09-03T06:50:54Z</time>
      </trkpt>
      <trkpt lat="46.53651" lon="6.01831">
        <ele>844.4</ele>
        <time>2023-09-03T06:50:55Z</time>
      </trkpt>
      <trkpt lat="46.53649" lon="6.01831">
        <ele>844.42</ele>
        <time>2023-09-03T06:50:56Z</time>
      </trkpt>
      <trkpt lat="46.53643" lon="6.01824">
        <ele>843.33</ele>
        <time>2023-09-03T06:51:03Z</time>
      </trkpt>
      <trkpt lat="46.53642" lon="6.01823">
        <ele>843.33</ele>
        <time>2023-09-03T06:51:04Z</time>
      </trkpt>
      <trkpt lat="46.5364" lon="6.01821">
        <ele>843.38</ele>
        <time>2023-09-03T06:51:06Z</time>
      </trkpt>
      <trkpt lat="46.53634" lon="6.01818">
        <ele>842.56</ele>
        <time>2023-09-03T06:51:10Z</time>
      </trkpt>
      <trkpt lat="46.5363" lon="6.01815">
        <ele>841.77</ele>
        <time>2023-09-03T06:51:12Z</time>
      </trkpt>
      <trkpt lat="46.53628" lon="6.01815">
        <ele>840.92</ele>
        <time>2023-09-03T06:51:13Z</time>
      </trkpt>
      <trkpt lat="46.53626" lon="6.01815">
        <ele>840.94</ele>
        <time>2023-09-03T06:51:14Z</time>
      </trkpt>
      <trkpt lat="46.53625" lon="6.01814">
        <ele>840.96</ele>
        <time>2023-09-03T06:51:15Z</time>
      </trkpt>
      <trkpt lat="46.53623" lon="6.01813">
        <ele>840.98</ele>
        <time>2023-09-03T06:51:16Z</time>
      </trkpt>
      <trkpt lat="46.53621" lon="6.01813">
        <ele>840.99</ele>
        <time>2023-09-03T06:51:17Z</time>
      </trkpt>
      <trkpt lat="46.5362" lon="6.01811">
        <ele>841</ele>
        <time>2023-09-03T06:51:18Z</time>
      </trkpt>
      <trkpt lat="46.53618" lon="6.01811">
        <ele>839.99</ele>
        <time>2023-09-03T06:51:19Z</time>
      </trkpt>
      <trkpt lat="46.53616" lon="6.0181">
        <ele>840.01</ele>
        <time>2023-09-03T06:51:20Z</time>
      </trkpt>
      <trkpt lat="46.53608" lon="6.01806">
        <ele>838.53</ele>
        <time>2023-09-03T06:51:27Z</time>
      </trkpt>
      <trkpt lat="46.53604" lon="6.01804">
        <ele>838.59</ele>
        <time>2023-09-03T06:51:30Z</time>
      </trkpt>
      <trkpt lat="46.53603" lon="6.01804">
        <ele>837.57</ele>
        <time>2023-09-03T06:51:31Z</time>
      </trkpt>
      <trkpt lat="46.53601" lon="6.01804">
        <ele>837.6</ele>
        <time>2023-09-03T06:51:32Z</time>
      </trkpt>
      <trkpt lat="46.53598" lon="6.01803">
        <ele>837.65</ele>
        <time>2023-09-03T06:51:34Z</time>
      </trkpt>
      <trkpt lat="46.53588" lon="6.01795">
        <ele>836.06</ele>
        <time>2023-09-03T06:51:43Z</time>
      </trkpt>
      <trkpt lat="46.53582" lon="6.01793">
        <ele>834.74</ele>
        <time>2023-09-03T06:51:48Z</time>
      </trkpt>
      <trkpt lat="46.5358" lon="6.01794">
        <ele>834</ele>
        <time>2023-09-03T06:51:51Z</time>
      </trkpt>
      <trkpt lat="46.5357" lon="6.01793">
        <ele>832.87</ele>
        <time>2023-09-03T06:51:57Z</time>
      </trkpt>
      <trkpt lat="46.53569" lon="6.01791">
        <ele>832.89</ele>
        <time>2023-09-03T06:51:58Z</time>
      </trkpt>
      <trkpt lat="46.53566" lon="6.01786">
        <ele>831.63</ele>
        <time>2023-09-03T06:52:02Z</time>
      </trkpt>
      <trkpt lat="46.53563" lon="6.01785">
        <ele>831.68</ele>
        <time>2023-09-03T06:52:04Z</time>
      </trkpt>
      <trkpt lat="46.5356" lon="6.01786">
        <ele>828.83</ele>
        <time>2023-09-03T06:52:12Z</time>
      </trkpt>
      <trkpt lat="46.53555" lon="6.0178">
        <ele>828.34</ele>
        <time>2023-09-03T06:52:16Z</time>
      </trkpt>
      <trkpt lat="46.53547" lon="6.01769">
        <ele>826.04</ele>
        <time>2023-09-03T06:52:25Z</time>
      </trkpt>
      <trkpt lat="46.53543" lon="6.01762">
        <ele>824.87</ele>
        <time>2023-09-03T06:52:30Z</time>
      </trkpt>
      <trkpt lat="46.5354" lon="6.01761">
        <ele>822.19</ele>
        <time>2023-09-03T06:52:34Z</time>
      </trkpt>
      <trkpt lat="46.53537" lon="6.01752">
        <ele>822.26</ele>
        <time>2023-09-03T06:52:37Z</time>
      </trkpt>
      <trkpt lat="46.53533" lon="6.01743">
        <ele>821.05</ele>
        <time>2023-09-03T06:52:41Z</time>
      </trkpt>
      <trkpt lat="46.53541" lon="6.01719">
        <ele>819.65</ele>
        <time>2023-09-03T06:52:50Z</time>
      </trkpt>
      <trkpt lat="46.53553" lon="6.01717">
        <ele>817.2</ele>
        <time>2023-09-03T06:53:02Z</time>
      </trkpt>
      <trkpt lat="46.53574" lon="6.01708">
        <ele>817.43</ele>
        <time>2023-09-03T06:53:14Z</time>
      </trkpt>
      <trkpt lat="46.53582" lon="6.01703">
        <ele>816.73</ele>
        <time>2023-09-03T06:53:18Z</time>
      </trkpt>
      <trkpt lat="46.53593" lon="6.01693">
        <ele>814.35</ele>
        <time>2023-09-03T06:53:30Z</time>
      </trkpt>
      <trkpt lat="46.53599" lon="6.01692">
        <ele>813.32</ele>
        <time>2023-09-03T06:53:33Z</time>
      </trkpt>
      <trkpt lat="46.53602" lon="6.01691">
        <ele>813.33</ele>
        <time>2023-09-03T06:53:34Z</time>
      </trkpt>
      <trkpt lat="46.53604" lon="6.01691">
        <ele>813.34</ele>
        <time>2023-09-03T06:53:35Z</time>
      </trkpt>
      <trkpt lat="46.53607" lon="6.01691">
        <ele>813.25</ele>
        <time>2023-09-03T06:53:36Z</time>
      </trkpt>
      <trkpt lat="46.53611" lon="6.01668">
        <ele>810.66</ele>
        <time>2023-09-03T06:53:50Z</time>
      </trkpt>
      <trkpt lat="46.53615" lon="6.01662">
        <ele>810.67</ele>
        <time>2023-09-03T06:53:51Z</time>
      </trkpt>
      <trkpt lat="46.53619" lon="6.01653">
        <ele>810.67</ele>
        <time>2023-09-03T06:53:53Z</time>
      </trkpt>
      <trkpt lat="46.5362" lon="6.01649">
        <ele>810.65</ele>
        <time>2023-09-03T06:53:58Z</time>
      </trkpt>
      <trkpt lat="46.53621" lon="6.01648">
        <ele>810.72</ele>
        <time>2023-09-03T06:53:59Z</time>
      </trkpt>
      <trkpt lat="46.53622" lon="6.01646">
        <ele>810.73</ele>
        <time>2023-09-03T06:54:00Z</time>
      </trkpt>
      <trkpt lat="46.53622" lon="6.01643">
        <ele>810.73</ele>
        <time>2023-09-03T06:54:01Z</time>
      </trkpt>
      <trkpt lat="46.53627" lon="6.01621">
        <ele>809.86</ele>
        <time>2023-09-03T06:54:09Z</time>
      </trkpt>
      <trkpt lat="46.53621" lon="6.01618">
        <ele>809.87</ele>
        <time>2023-09-03T06:54:10Z</time>
      </trkpt>
      <trkpt lat="46.53612" lon="6.01601">
        <ele>809.9</ele>
        <time>2023-09-03T06:54:19Z</time>
      </trkpt>
      <trkpt lat="46.5361" lon="6.01599">
        <ele>808.86</ele>
        <time>2023-09-03T06:54:21Z</time>
      </trkpt>
      <trkpt lat="46.53604" lon="6.01595">
        <ele>808.8</ele>
        <time>2023-09-03T06:54:28Z</time>
      </trkpt>
      <trkpt lat="46.53596" lon="6.01587">
        <ele>806.95</ele>
        <time>2023-09-03T06:54:39Z</time>
      </trkpt>
      <trkpt lat="46.53593" lon="6.01583">
        <ele>806.83</ele>
        <time>2023-09-03T06:54:42Z</time>
      </trkpt>
      <trkpt lat="46.53592" lon="6.01581">
        <ele>806.8</ele>
        <time>2023-09-03T06:54:43Z</time>
      </trkpt>
      <trkpt lat="46.53589" lon="6.0158">
        <ele>806.83</ele>
        <time>2023-09-03T06:54:46Z</time>
      </trkpt>
      <trkpt lat="46.53587" lon="6.0158">
        <ele>806.85</ele>
        <time>2023-09-03T06:54:47Z</time>
      </trkpt>
      <trkpt lat="46.53586" lon="6.01579">
        <ele>805.53</ele>
        <time>2023-09-03T06:54:49Z</time>
      </trkpt>
      <trkpt lat="46.53568" lon="6.01579">
        <ele>803.34</ele>
        <time>2023-09-03T06:55:04Z</time>
      </trkpt>
      <trkpt lat="46.53565" lon="6.01575">
        <ele>803.31</ele>
        <time>2023-09-03T06:55:09Z</time>
      </trkpt>
      <trkpt lat="46.53564" lon="6.01574">
        <ele>803.33</ele>
        <time>2023-09-03T06:55:10Z</time>
      </trkpt>
      <trkpt lat="46.53563" lon="6.01572">
        <ele>803.4</ele>
        <time>2023-09-03T06:55:11Z</time>
      </trkpt>
      <trkpt lat="46.53562" lon="6.01571">
        <ele>803.33</ele>
        <time>2023-09-03T06:55:12Z</time>
      </trkpt>
      <trkpt lat="46.53559" lon="6.0157">
        <ele>803.38</ele>
        <time>2023-09-03T06:55:14Z</time>
      </trkpt>
      <trkpt lat="46.53558" lon="6.01569">
        <ele>803.29</ele>
        <time>2023-09-03T06:55:15Z</time>
      </trkpt>
      <trkpt lat="46.53556" lon="6.01568">
        <ele>803.28</ele>
        <time>2023-09-03T06:55:16Z</time>
      </trkpt>
      <trkpt lat="46.53555" lon="6.01567">
        <ele>803.33</ele>
        <time>2023-09-03T06:55:17Z</time>
      </trkpt>
      <trkpt lat="46.53554" lon="6.01567">
        <ele>803.26</ele>
        <time>2023-09-03T06:55:18Z</time>
      </trkpt>
      <trkpt lat="46.53552" lon="6.01566">
        <ele>803.29</ele>
        <time>2023-09-03T06:55:19Z</time>
      </trkpt>
      <trkpt lat="46.53551" lon="6.01566">
        <ele>803.23</ele>
        <time>2023-09-03T06:55:20Z</time>
      </trkpt>
      <trkpt lat="46.53541" lon="6.01566">
        <ele>802.41</ele>
        <time>2023-09-03T06:55:26Z</time>
      </trkpt>
      <trkpt lat="46.53512" lon="6.01564">
        <ele>801.13</ele>
        <time>2023-09-03T06:55:42Z</time>
      </trkpt>
      <trkpt lat="46.53495" lon="6.01565">
        <ele>800.13</ele>
        <time>2023-09-03T06:55:51Z</time>
      </trkpt>
      <trkpt lat="46.53464" lon="6.01562">
        <ele>798.12</ele>
        <time>2023-09-03T06:56:12Z</time>
      </trkpt>
      <trkpt lat="46.53455" lon="6.01574">
        <ele>798.17</ele>
        <time>2023-09-03T06:56:17Z</time>
      </trkpt>
      <trkpt lat="46.53453" lon="6.01574">
        <ele>796.83</ele>
        <time>2023-09-03T06:56:19Z</time>
      </trkpt>
      <trkpt lat="46.53452" lon="6.01575">
        <ele>796.81</ele>
        <time>2023-09-03T06:56:20Z</time>
      </trkpt>
      <trkpt lat="46.53443" lon="6.01584">
        <ele>796.03</ele>
        <time>2023-09-03T06:56:28Z</time>
      </trkpt>
      <trkpt lat="46.53437" lon="6.01584">
        <ele>795.16</ele>
        <time>2023-09-03T06:56:33Z</time>
      </trkpt>
      <trkpt lat="46.53436" lon="6.01583">
        <ele>795.09</ele>
        <time>2023-09-03T06:56:34Z</time>
      </trkpt>
      <trkpt lat="46.53436" lon="6.01582">
        <ele>795.09</ele>
        <time>2023-09-03T06:56:35Z</time>
      </trkpt>
      <trkpt lat="46.53423" lon="6.01565">
        <ele>794</ele>
        <time>2023-09-03T06:56:46Z</time>
      </trkpt>
      <trkpt lat="46.53417" lon="6.01558">
        <ele>793.88</ele>
        <time>2023-09-03T06:56:50Z</time>
      </trkpt>
      <trkpt lat="46.53414" lon="6.01554">
        <ele>793.94</ele>
        <time>2023-09-03T06:56:52Z</time>
      </trkpt>
      <trkpt lat="46.53415" lon="6.0155">
        <ele>793.83</ele>
        <time>2023-09-03T06:56:54Z</time>
      </trkpt>
      <trkpt lat="46.53415" lon="6.01547">
        <ele>793.82</ele>
        <time>2023-09-03T06:56:55Z</time>
      </trkpt>
      <trkpt lat="46.53415" lon="6.01545">
        <ele>793.81</ele>
        <time>2023-09-03T06:56:56Z</time>
      </trkpt>
      <trkpt lat="46.53415" lon="6.01543">
        <ele>793.86</ele>
        <time>2023-09-03T06:56:57Z</time>
      </trkpt>
      <trkpt lat="46.53415" lon="6.01541">
        <ele>793.79</ele>
        <time>2023-09-03T06:56:58Z</time>
      </trkpt>
      <trkpt lat="46.53415" lon="6.01541">
        <ele>793.81</ele>
        <time>2023-09-03T06:56:59Z</time>
      </trkpt>
      <trkpt lat="46.53416" lon="6.01539">
        <ele>793.8</ele>
        <time>2023-09-03T06:57:00Z</time>
      </trkpt>
      <trkpt lat="46.53416" lon="6.01536">
        <ele>793.75</ele>
        <time>2023-09-03T06:57:01Z</time>
      </trkpt>
      <trkpt lat="46.53416" lon="6.01534">
        <ele>793.74</ele>
        <time>2023-09-03T06:57:02Z</time>
      </trkpt>
      <trkpt lat="46.53416" lon="6.01532">
        <ele>793.7</ele>
        <time>2023-09-03T06:57:03Z</time>
      </trkpt>
      <trkpt lat="46.53414" lon="6.01502">
        <ele>792.63</ele>
        <time>2023-09-03T06:57:17Z</time>
      </trkpt>
      <trkpt lat="46.53413" lon="6.01498">
        <ele>792.61</ele>
        <time>2023-09-03T06:57:19Z</time>
      </trkpt>
      <trkpt lat="46.53413" lon="6.01496">
        <ele>792.61</ele>
        <time>2023-09-03T06:57:20Z</time>
      </trkpt>
      <trkpt lat="46.53413" lon="6.01494">
        <ele>792.59</ele>
        <time>2023-09-03T06:57:21Z</time>
      </trkpt>
      <trkpt lat="46.53411" lon="6.01489">
        <ele>791.58</ele>
        <time>2023-09-03T06:57:24Z</time>
      </trkpt>
      <trkpt lat="46.53411" lon="6.01485">
        <ele>791.48</ele>
        <time>2023-09-03T06:57:28Z</time>
      </trkpt>
      <trkpt lat="46.53413" lon="6.01484">
        <ele>791.49</ele>
        <time>2023-09-03T06:57:29Z</time>
      </trkpt>
      <trkpt lat="46.53414" lon="6.01481">
        <ele>791.41</ele>
        <time>2023-09-03T06:57:30Z</time>
      </trkpt>
      <trkpt lat="46.53417" lon="6.0147">
        <ele>791.5</ele>
        <time>2023-09-03T06:57:35Z</time>
      </trkpt>
      <trkpt lat="46.53417" lon="6.01469">
        <ele>791.56</ele>
        <time>2023-09-03T06:57:36Z</time>
      </trkpt>
      <trkpt lat="46.53423" lon="6.01448">
        <ele>790.62</ele>
        <time>2023-09-03T06:57:47Z</time>
      </trkpt>
      <trkpt lat="46.53424" lon="6.01432">
        <ele>790.64</ele>
        <time>2023-09-03T06:57:55Z</time>
      </trkpt>
      <trkpt lat="46.53423" lon="6.0143">
        <ele>790.52</ele>
        <time>2023-09-03T06:57:56Z</time>
      </trkpt>
      <trkpt lat="46.53416" lon="6.01409">
        <ele>788.89</ele>
        <time>2023-09-03T06:58:05Z</time>
      </trkpt>
      <trkpt lat="46.53415" lon="6.01406">
        <ele>788.91</ele>
        <time>2023-09-03T06:58:06Z</time>
      </trkpt>
      <trkpt lat="46.53413" lon="6.01401">
        <ele>788.88</ele>
        <time>2023-09-03T06:58:07Z</time>
      </trkpt>
      <trkpt lat="46.53414" lon="6.01398">
        <ele>788.89</ele>
        <time>2023-09-03T06:58:08Z</time>
      </trkpt>
      <trkpt lat="46.53413" lon="6.01395">
        <ele>788.88</ele>
        <time>2023-09-03T06:58:09Z</time>
      </trkpt>
      <trkpt lat="46.53413" lon="6.01393">
        <ele>788.88</ele>
        <time>2023-09-03T06:58:10Z</time>
      </trkpt>
      <trkpt lat="46.53412" lon="6.01391">
        <ele>788.87</ele>
        <time>2023-09-03T06:58:11Z</time>
      </trkpt>
      <trkpt lat="46.53413" lon="6.01389">
        <ele>788.87</ele>
        <time>2023-09-03T06:58:12Z</time>
      </trkpt>
      <trkpt lat="46.53413" lon="6.01387">
        <ele>788.87</ele>
        <time>2023-09-03T06:58:13Z</time>
      </trkpt>
      <trkpt lat="46.53413" lon="6.01385">
        <ele>788.86</ele>
        <time>2023-09-03T06:58:14Z</time>
      </trkpt>
      <trkpt lat="46.53412" lon="6.01383">
        <ele>788.81</ele>
        <time>2023-09-03T06:58:15Z</time>
      </trkpt>
      <trkpt lat="46.53412" lon="6.01381">
        <ele>788.86</ele>
        <time>2023-09-03T06:58:16Z</time>
      </trkpt>
      <trkpt lat="46.53412" lon="6.0138">
        <ele>787.92</ele>
        <time>2023-09-03T06:58:17Z</time>
      </trkpt>
      <trkpt lat="46.53412" lon="6.01377">
        <ele>787.93</ele>
        <time>2023-09-03T06:58:18Z</time>
      </trkpt>
      <trkpt lat="46.53411" lon="6.01375">
        <ele>787.91</ele>
        <time>2023-09-03T06:58:19Z</time>
      </trkpt>
      <trkpt lat="46.53411" lon="6.01373">
        <ele>787.91</ele>
        <time>2023-09-03T06:58:20Z</time>
      </trkpt>
      <trkpt lat="46.53412" lon="6.01366">
        <ele>787.92</ele>
        <time>2023-09-03T06:58:24Z</time>
      </trkpt>
      <trkpt lat="46.53413" lon="6.01364">
        <ele>787.86</ele>
        <time>2023-09-03T06:58:25Z</time>
      </trkpt>
      <trkpt lat="46.53414" lon="6.01363">
        <ele>787.92</ele>
        <time>2023-09-03T06:58:26Z</time>
      </trkpt>
      <trkpt lat="46.53415" lon="6.01361">
        <ele>787.87</ele>
        <time>2023-09-03T06:58:27Z</time>
      </trkpt>
      <trkpt lat="46.53415" lon="6.0136">
        <ele>786.82</ele>
        <time>2023-09-03T06:58:28Z</time>
      </trkpt>
      <trkpt lat="46.53436" lon="6.01345">
        <ele>785.88</ele>
        <time>2023-09-03T06:58:41Z</time>
      </trkpt>
      <trkpt lat="46.53436" lon="6.01339">
        <ele>784.65</ele>
        <time>2023-09-03T06:58:43Z</time>
      </trkpt>
      <trkpt lat="46.53436" lon="6.01331">
        <ele>784.66</ele>
        <time>2023-09-03T06:58:45Z</time>
      </trkpt>
      <trkpt lat="46.53436" lon="6.01329">
        <ele>784.67</ele>
        <time>2023-09-03T06:58:46Z</time>
      </trkpt>
      <trkpt lat="46.53436" lon="6.01325">
        <ele>784.66</ele>
        <time>2023-09-03T06:58:47Z</time>
      </trkpt>
      <trkpt lat="46.53436" lon="6.01323">
        <ele>784.69</ele>
        <time>2023-09-03T06:58:48Z</time>
      </trkpt>
      <trkpt lat="46.53436" lon="6.01319">
        <ele>784.71</ele>
        <time>2023-09-03T06:58:49Z</time>
      </trkpt>
      <trkpt lat="46.53435" lon="6.01316">
        <ele>784.67</ele>
        <time>2023-09-03T06:58:50Z</time>
      </trkpt>
      <trkpt lat="46.53436" lon="6.01313">
        <ele>783.88</ele>
        <time>2023-09-03T06:58:51Z</time>
      </trkpt>
      <trkpt lat="46.53436" lon="6.01311">
        <ele>783.89</ele>
        <time>2023-09-03T06:58:52Z</time>
      </trkpt>
      <trkpt lat="46.53438" lon="6.01308">
        <ele>783.91</ele>
        <time>2023-09-03T06:58:53Z</time>
      </trkpt>
      <trkpt lat="46.53438" lon="6.01304">
        <ele>783.95</ele>
        <time>2023-09-03T06:58:54Z</time>
      </trkpt>
      <trkpt lat="46.53437" lon="6.01299">
        <ele>783.95</ele>
        <time>2023-09-03T06:58:55Z</time>
      </trkpt>
      <trkpt lat="46.53435" lon="6.01262">
        <ele>783.08</ele>
        <time>2023-09-03T06:59:07Z</time>
      </trkpt>
      <trkpt lat="46.53434" lon="6.0126">
        <ele>783.07</ele>
        <time>2023-09-03T06:59:08Z</time>
      </trkpt>
      <trkpt lat="46.53435" lon="6.01257">
        <ele>783.08</ele>
        <time>2023-09-03T06:59:09Z</time>
      </trkpt>
      <trkpt lat="46.53436" lon="6.01256">
        <ele>781.62</ele>
        <time>2023-09-03T06:59:10Z</time>
      </trkpt>
      <trkpt lat="46.53437" lon="6.01253">
        <ele>781.63</ele>
        <time>2023-09-03T06:59:11Z</time>
      </trkpt>
      <trkpt lat="46.53437" lon="6.01251">
        <ele>781.63</ele>
        <time>2023-09-03T06:59:12Z</time>
      </trkpt>
      <trkpt lat="46.53438" lon="6.01249">
        <ele>781.64</ele>
        <time>2023-09-03T06:59:13Z</time>
      </trkpt>
      <trkpt lat="46.53438" lon="6.01247">
        <ele>781.63</ele>
        <time>2023-09-03T06:59:14Z</time>
      </trkpt>
      <trkpt lat="46.53438" lon="6.01245">
        <ele>774.89</ele>
        <time>2023-09-03T06:59:15Z</time>
      </trkpt>
      <trkpt lat="46.53439" lon="6.01243">
        <ele>782.54</ele>
        <time>2023-09-03T06:59:16Z</time>
      </trkpt>
      <trkpt lat="46.53458" lon="6.01226">
        <ele>780.02</ele>
        <time>2023-09-03T06:59:32Z</time>
      </trkpt>
      <trkpt lat="46.53459" lon="6.01224">
        <ele>780.08</ele>
        <time>2023-09-03T06:59:34Z</time>
      </trkpt>
      <trkpt lat="46.5346" lon="6.01223">
        <ele>780.04</ele>
        <time>2023-09-03T06:59:35Z</time>
      </trkpt>
      <trkpt lat="46.53472" lon="6.01219">
        <ele>778.51</ele>
        <time>2023-09-03T06:59:50Z</time>
      </trkpt>
      <trkpt lat="46.53475" lon="6.0122">
        <ele>778.51</ele>
        <time>2023-09-03T06:59:53Z</time>
      </trkpt>
      <trkpt lat="46.53487" lon="6.01225">
        <ele>777.51</ele>
        <time>2023-09-03T07:00:01Z</time>
      </trkpt>
      <trkpt lat="46.53488" lon="6.01226">
        <ele>777.57</ele>
        <time>2023-09-03T07:00:02Z</time>
      </trkpt>
      <trkpt lat="46.53504" lon="6.01234">
        <ele>776.5</ele>
        <time>2023-09-03T07:00:14Z</time>
      </trkpt>
      <trkpt lat="46.53506" lon="6.01235">
        <ele>776.55</ele>
        <time>2023-09-03T07:00:16Z</time>
      </trkpt>
      <trkpt lat="46.53507" lon="6.01237">
        <ele>776.54</ele>
        <time>2023-09-03T07:00:18Z</time>
      </trkpt>
      <trkpt lat="46.53522" lon="6.01251">
        <ele>774.81</ele>
        <time>2023-09-03T07:00:31Z</time>
      </trkpt>
      <trkpt lat="46.53543" lon="6.01268">
        <ele>773.82</ele>
        <time>2023-09-03T07:00:43Z</time>
      </trkpt>
      <trkpt lat="46.53547" lon="6.01273">
        <ele>773.79</ele>
        <time>2023-09-03T07:00:46Z</time>
      </trkpt>
      <trkpt lat="46.53549" lon="6.01274">
        <ele>773.76</ele>
        <time>2023-09-03T07:00:47Z</time>
      </trkpt>
      <trkpt lat="46.5355" lon="6.01276">
        <ele>773.76</ele>
        <time>2023-09-03T07:00:48Z</time>
      </trkpt>
      <trkpt lat="46.53553" lon="6.0128">
        <ele>773.81</ele>
        <time>2023-09-03T07:00:50Z</time>
      </trkpt>
      <trkpt lat="46.53554" lon="6.01282">
        <ele>773.75</ele>
        <time>2023-09-03T07:00:51Z</time>
      </trkpt>
      <trkpt lat="46.53557" lon="6.01286">
        <ele>772.82</ele>
        <time>2023-09-03T07:00:54Z</time>
      </trkpt>
      <trkpt lat="46.53558" lon="6.01288">
        <ele>772.82</ele>
        <time>2023-09-03T07:00:55Z</time>
      </trkpt>
      <trkpt lat="46.53559" lon="6.0129">
        <ele>772.79</ele>
        <time>2023-09-03T07:00:56Z</time>
      </trkpt>
      <trkpt lat="46.5357" lon="6.01314">
        <ele>771.55</ele>
        <time>2023-09-03T07:01:08Z</time>
      </trkpt>
      <trkpt lat="46.53574" lon="6.01328">
        <ele>770.79</ele>
        <time>2023-09-03T07:01:15Z</time>
      </trkpt>
      <trkpt lat="46.53576" lon="6.01333">
        <ele>769.59</ele>
        <time>2023-09-03T07:01:18Z</time>
      </trkpt>
      <trkpt lat="46.53576" lon="6.01336">
        <ele>769.6</ele>
        <time>2023-09-03T07:01:19Z</time>
      </trkpt>
      <trkpt lat="46.53577" lon="6.01337">
        <ele>769.62</ele>
        <time>2023-09-03T07:01:20Z</time>
      </trkpt>
      <trkpt lat="46.53577" lon="6.0134">
        <ele>769.56</ele>
        <time>2023-09-03T07:01:21Z</time>
      </trkpt>
      <trkpt lat="46.53577" lon="6.01342">
        <ele>769.56</ele>
        <time>2023-09-03T07:01:22Z</time>
      </trkpt>
      <trkpt lat="46.53578" lon="6.01343">
        <ele>769.51</ele>
        <time>2023-09-03T07:01:23Z</time>
      </trkpt>
      <trkpt lat="46.53579" lon="6.01346">
        <ele>769.5</ele>
        <time>2023-09-03T07:01:24Z</time>
      </trkpt>
      <trkpt lat="46.5358" lon="6.01348">
        <ele>769.51</ele>
        <time>2023-09-03T07:01:25Z</time>
      </trkpt>
      <trkpt lat="46.53581" lon="6.01351">
        <ele>769.48</ele>
        <time>2023-09-03T07:01:26Z</time>
      </trkpt>
      <trkpt lat="46.53583" lon="6.01353">
        <ele>769.52</ele>
        <time>2023-09-03T07:01:27Z</time>
      </trkpt>
      <trkpt lat="46.53584" lon="6.01359">
        <ele>768.35</ele>
        <time>2023-09-03T07:01:31Z</time>
      </trkpt>
      <trkpt lat="46.5359" lon="6.01368">
        <ele>768.22</ele>
        <time>2023-09-03T07:01:40Z</time>
      </trkpt>
      <trkpt lat="46.53592" lon="6.01371">
        <ele>768.11</ele>
        <time>2023-09-03T07:01:44Z</time>
      </trkpt>
      <trkpt lat="46.53592" lon="6.01368">
        <ele>767.26</ele>
        <time>2023-09-03T07:01:48Z</time>
      </trkpt>
      <trkpt lat="46.53593" lon="6.01366">
        <ele>767.25</ele>
        <time>2023-09-03T07:01:49Z</time>
      </trkpt>
      <trkpt lat="46.53594" lon="6.01365">
        <ele>767.22</ele>
        <time>2023-09-03T07:01:50Z</time>
      </trkpt>
      <trkpt lat="46.53596" lon="6.01364">
        <ele>767.18</ele>
        <time>2023-09-03T07:01:51Z</time>
      </trkpt>
      <trkpt lat="46.53597" lon="6.01363">
        <ele>767.17</ele>
        <time>2023-09-03T07:01:52Z</time>
      </trkpt>
      <trkpt lat="46.536" lon="6.01354">
        <ele>767.05</ele>
        <time>2023-09-03T07:01:58Z</time>
      </trkpt>
      <trkpt lat="46.53601" lon="6.01352">
        <ele>767.09</ele>
        <time>2023-09-03T07:01:59Z</time>
      </trkpt>
      <trkpt lat="46.53601" lon="6.0135">
        <ele>767.01</ele>
        <time>2023-09-03T07:02:00Z</time>
      </trkpt>
      <trkpt lat="46.536" lon="6.0134">
        <ele>766.96</ele>
        <time>2023-09-03T07:02:05Z</time>
      </trkpt>
      <trkpt lat="46.536" lon="6.01338">
        <ele>766.95</ele>
        <time>2023-09-03T07:02:06Z</time>
      </trkpt>
      <trkpt lat="46.536" lon="6.01335">
        <ele>766.91</ele>
        <time>2023-09-03T07:02:07Z</time>
      </trkpt>
      <trkpt lat="46.53599" lon="6.01333">
        <ele>766.9</ele>
        <time>2023-09-03T07:02:08Z</time>
      </trkpt>
      <trkpt lat="46.53598" lon="6.0133">
        <ele>766.88</ele>
        <time>2023-09-03T07:02:09Z</time>
      </trkpt>
      <trkpt lat="46.53598" lon="6.01328">
        <ele>766.85</ele>
        <time>2023-09-03T07:02:10Z</time>
      </trkpt>
      <trkpt lat="46.53597" lon="6.01326">
        <ele>766.81</ele>
        <time>2023-09-03T07:02:11Z</time>
      </trkpt>
      <trkpt lat="46.53598" lon="6.01324">
        <ele>766.77</ele>
        <time>2023-09-03T07:02:12Z</time>
      </trkpt>
      <trkpt lat="46.53598" lon="6.01321">
        <ele>766.75</ele>
        <time>2023-09-03T07:02:13Z</time>
      </trkpt>
      <trkpt lat="46.53599" lon="6.01319">
        <ele>766.72</ele>
        <time>2023-09-03T07:02:14Z</time>
      </trkpt>
      <trkpt lat="46.536" lon="6.01317">
        <ele>766.67</ele>
        <time>2023-09-03T07:02:15Z</time>
      </trkpt>
      <trkpt lat="46.53602" lon="6.01316">
        <ele>766.69</ele>
        <time>2023-09-03T07:02:16Z</time>
      </trkpt>
      <trkpt lat="46.53603" lon="6.01315">
        <ele>766.62</ele>
        <time>2023-09-03T07:02:17Z</time>
      </trkpt>
      <trkpt lat="46.53604" lon="6.01313">
        <ele>766.58</ele>
        <time>2023-09-03T07:02:18Z</time>
      </trkpt>
      <trkpt lat="46.53605" lon="6.01311">
        <ele>766.57</ele>
        <time>2023-09-03T07:02:19Z</time>
      </trkpt>
      <trkpt lat="46.53607" lon="6.0131">
        <ele>766.52</ele>
        <time>2023-09-03T07:02:20Z</time>
      </trkpt>
      <trkpt lat="46.53609" lon="6.01309">
        <ele>766.52</ele>
        <time>2023-09-03T07:02:21Z</time>
      </trkpt>
      <trkpt lat="46.5361" lon="6.01306">
        <ele>766.49</ele>
        <time>2023-09-03T07:02:22Z</time>
      </trkpt>
      <trkpt lat="46.53612" lon="6.01305">
        <ele>766.46</ele>
        <time>2023-09-03T07:02:23Z</time>
      </trkpt>
      <trkpt lat="46.53613" lon="6.01303">
        <ele>766.44</ele>
        <time>2023-09-03T07:02:24Z</time>
      </trkpt>
      <trkpt lat="46.53617" lon="6.01298">
        <ele>768.83</ele>
        <time>2023-09-03T07:02:27Z</time>
      </trkpt>
      <trkpt lat="46.53632" lon="6.01286">
        <ele>769.52</ele>
        <time>2023-09-03T07:02:37Z</time>
      </trkpt>
      <trkpt lat="46.53633" lon="6.01284">
        <ele>769.5</ele>
        <time>2023-09-03T07:02:38Z</time>
      </trkpt>
      <trkpt lat="46.53634" lon="6.01283">
        <ele>769.47</ele>
        <time>2023-09-03T07:02:39Z</time>
      </trkpt>
      <trkpt lat="46.53635" lon="6.01281">
        <ele>769.43</ele>
        <time>2023-09-03T07:02:40Z</time>
      </trkpt>
      <trkpt lat="46.53637" lon="6.0128">
        <ele>769.37</ele>
        <time>2023-09-03T07:02:41Z</time>
      </trkpt>
      <trkpt lat="46.53638" lon="6.01272">
        <ele>769.35</ele>
        <time>2023-09-03T07:02:42Z</time>
      </trkpt>
      <trkpt lat="46.53637" lon="6.01268">
        <ele>769.32</ele>
        <time>2023-09-03T07:02:43Z</time>
      </trkpt>
      <trkpt lat="46.53637" lon="6.01262">
        <ele>769.33</ele>
        <time>2023-09-03T07:02:44Z</time>
      </trkpt>
      <trkpt lat="46.53639" lon="6.01257">
        <ele>769.25</ele>
        <time>2023-09-03T07:02:45Z</time>
      </trkpt>
      <trkpt lat="46.53639" lon="6.01246">
        <ele>770.14</ele>
        <time>2023-09-03T07:02:49Z</time>
      </trkpt>
      <trkpt lat="46.53639" lon="6.01231">
        <ele>770.08</ele>
        <time>2023-09-03T07:02:54Z</time>
      </trkpt>
      <trkpt lat="46.53637" lon="6.01222">
        <ele>770.79</ele>
        <time>2023-09-03T07:02:59Z</time>
      </trkpt>
      <trkpt lat="46.5364" lon="6.01217">
        <ele>770.7</ele>
        <time>2023-09-03T07:03:02Z</time>
      </trkpt>
      <trkpt lat="46.53641" lon="6.01211">
        <ele>770.65</ele>
        <time>2023-09-03T07:03:05Z</time>
      </trkpt>
      <trkpt lat="46.5364" lon="6.01207">
        <ele>771.58</ele>
        <time>2023-09-03T07:03:08Z</time>
      </trkpt>
      <trkpt lat="46.53632" lon="6.0119">
        <ele>771.45</ele>
        <time>2023-09-03T07:03:15Z</time>
      </trkpt>
      <trkpt lat="46.5363" lon="6.01179">
        <ele>772.27</ele>
        <time>2023-09-03T07:03:19Z</time>
      </trkpt>
      <trkpt lat="46.53627" lon="6.01165">
        <ele>772.21</ele>
        <time>2023-09-03T07:03:25Z</time>
      </trkpt>
      <trkpt lat="46.53622" lon="6.01159">
        <ele>772.19</ele>
        <time>2023-09-03T07:03:27Z</time>
      </trkpt>
      <trkpt lat="46.53622" lon="6.0115">
        <ele>772.93</ele>
        <time>2023-09-03T07:03:32Z</time>
      </trkpt>
      <trkpt lat="46.53619" lon="6.01145">
        <ele>772.89</ele>
        <time>2023-09-03T07:03:35Z</time>
      </trkpt>
      <trkpt lat="46.53616" lon="6.01128">
        <ele>773.63</ele>
        <time>2023-09-03T07:03:46Z</time>
      </trkpt>
      <trkpt lat="46.53608" lon="6.01102">
        <ele>774.41</ele>
        <time>2023-09-03T07:03:58Z</time>
      </trkpt>
      <trkpt lat="46.53611" lon="6.01084">
        <ele>775.12</ele>
        <time>2023-09-03T07:04:06Z</time>
      </trkpt>
      <trkpt lat="46.5361" lon="6.01077">
        <ele>775.1</ele>
        <time>2023-09-03T07:04:09Z</time>
      </trkpt>
      <trkpt lat="46.53607" lon="6.01057">
        <ele>776.03</ele>
        <time>2023-09-03T07:04:19Z</time>
      </trkpt>
      <trkpt lat="46.53609" lon="6.01044">
        <ele>776.63</ele>
        <time>2023-09-03T07:04:30Z</time>
      </trkpt>
      <trkpt lat="46.53608" lon="6.0104">
        <ele>776.61</ele>
        <time>2023-09-03T07:04:33Z</time>
      </trkpt>
      <trkpt lat="46.53597" lon="6.01005">
        <ele>778.01</ele>
        <time>2023-09-03T07:04:47Z</time>
      </trkpt>
      <trkpt lat="46.53593" lon="6.00998">
        <ele>777.92</ele>
        <time>2023-09-03T07:04:50Z</time>
      </trkpt>
      <trkpt lat="46.53593" lon="6.00991">
        <ele>777.87</ele>
        <time>2023-09-03T07:04:53Z</time>
      </trkpt>
      <trkpt lat="46.53592" lon="6.00982">
        <ele>777.84</ele>
        <time>2023-09-03T07:04:57Z</time>
      </trkpt>
      <trkpt lat="46.5359" lon="6.00973">
        <ele>778.63</ele>
        <time>2023-09-03T07:05:01Z</time>
      </trkpt>
      <trkpt lat="46.53587" lon="6.00958">
        <ele>779.58</ele>
        <time>2023-09-03T07:05:08Z</time>
      </trkpt>
      <trkpt lat="46.53586" lon="6.00954">
        <ele>779.53</ele>
        <time>2023-09-03T07:05:10Z</time>
      </trkpt>
      <trkpt lat="46.53583" lon="6.00947">
        <ele>779.52</ele>
        <time>2023-09-03T07:05:13Z</time>
      </trkpt>
      <trkpt lat="46.53582" lon="6.0093">
        <ele>780.54</ele>
        <time>2023-09-03T07:05:19Z</time>
      </trkpt>
      <trkpt lat="46.53564" lon="6.00904">
        <ele>781.22</ele>
        <time>2023-09-03T07:05:32Z</time>
      </trkpt>
      <trkpt lat="46.53555" lon="6.00893">
        <ele>781.24</ele>
        <time>2023-09-03T07:05:39Z</time>
      </trkpt>
      <trkpt lat="46.53547" lon="6.0088">
        <ele>782.14</ele>
        <time>2023-09-03T07:05:51Z</time>
      </trkpt>
      <trkpt lat="46.53536" lon="6.00861">
        <ele>782.83</ele>
        <time>2023-09-03T07:06:03Z</time>
      </trkpt>
      <trkpt lat="46.53535" lon="6.00853">
        <ele>782.73</ele>
        <time>2023-09-03T07:06:08Z</time>
      </trkpt>
      <trkpt lat="46.53534" lon="6.00852">
        <ele>782.77</ele>
        <time>2023-09-03T07:06:09Z</time>
      </trkpt>
      <trkpt lat="46.53535" lon="6.00844">
        <ele>782.7</ele>
        <time>2023-09-03T07:06:13Z</time>
      </trkpt>
      <trkpt lat="46.53535" lon="6.00841">
        <ele>782.7</ele>
        <time>2023-09-03T07:06:14Z</time>
      </trkpt>
      <trkpt lat="46.53534" lon="6.00838">
        <ele>783.78</ele>
        <time>2023-09-03T07:06:15Z</time>
      </trkpt>
      <trkpt lat="46.53534" lon="6.00836">
        <ele>783.77</ele>
        <time>2023-09-03T07:06:16Z</time>
      </trkpt>
      <trkpt lat="46.53534" lon="6.00834">
        <ele>783.76</ele>
        <time>2023-09-03T07:06:17Z</time>
      </trkpt>
      <trkpt lat="46.53534" lon="6.00821">
        <ele>783.75</ele>
        <time>2023-09-03T07:06:22Z</time>
      </trkpt>
      <trkpt lat="46.53529" lon="6.00793">
        <ele>784.45</ele>
        <time>2023-09-03T07:06:38Z</time>
      </trkpt>
      <trkpt lat="46.53526" lon="6.00786">
        <ele>785.21</ele>
        <time>2023-09-03T07:06:42Z</time>
      </trkpt>
      <trkpt lat="46.53525" lon="6.00784">
        <ele>785.18</ele>
        <time>2023-09-03T07:06:43Z</time>
      </trkpt>
      <trkpt lat="46.53524" lon="6.00781">
        <ele>785.2</ele>
        <time>2023-09-03T07:06:45Z</time>
      </trkpt>
      <trkpt lat="46.53521" lon="6.00774">
        <ele>785.14</ele>
        <time>2023-09-03T07:06:48Z</time>
      </trkpt>
      <trkpt lat="46.53519" lon="6.00771">
        <ele>785.18</ele>
        <time>2023-09-03T07:06:49Z</time>
      </trkpt>
      <trkpt lat="46.53517" lon="6.00754">
        <ele>786.8</ele>
        <time>2023-09-03T07:07:00Z</time>
      </trkpt>
      <trkpt lat="46.53514" lon="6.00737">
        <ele>786.69</ele>
        <time>2023-09-03T07:07:09Z</time>
      </trkpt>
      <trkpt lat="46.53514" lon="6.00735">
        <ele>786.71</ele>
        <time>2023-09-03T07:07:10Z</time>
      </trkpt>
      <trkpt lat="46.53513" lon="6.00704">
        <ele>787.73</ele>
        <time>2023-09-03T07:07:19Z</time>
      </trkpt>
      <trkpt lat="46.53508" lon="6.00675">
        <ele>788.54</ele>
        <time>2023-09-03T07:07:33Z</time>
      </trkpt>
      <trkpt lat="46.53507" lon="6.0067">
        <ele>789.28</ele>
        <time>2023-09-03T07:07:36Z</time>
      </trkpt>
      <trkpt lat="46.53506" lon="6.00659">
        <ele>789.3</ele>
        <time>2023-09-03T07:07:42Z</time>
      </trkpt>
      <trkpt lat="46.53501" lon="6.00648">
        <ele>789.13</ele>
        <time>2023-09-03T07:07:47Z</time>
      </trkpt>
      <trkpt lat="46.53492" lon="6.00642">
        <ele>789.05</ele>
        <time>2023-09-03T07:07:56Z</time>
      </trkpt>
      <trkpt lat="46.5349" lon="6.00639">
        <ele>786.57</ele>
        <time>2023-09-03T07:07:58Z</time>
      </trkpt>
      <trkpt lat="46.53486" lon="6.00632">
        <ele>785.24</ele>
        <time>2023-09-03T07:08:05Z</time>
      </trkpt>
      <trkpt lat="46.53481" lon="6.00621">
        <ele>785.24</ele>
        <time>2023-09-03T07:08:10Z</time>
      </trkpt>
      <trkpt lat="46.53479" lon="6.00607">
        <ele>784.01</ele>
        <time>2023-09-03T07:08:16Z</time>
      </trkpt>
      <trkpt lat="46.53477" lon="6.00596">
        <ele>782.7</ele>
        <time>2023-09-03T07:08:21Z</time>
      </trkpt>
      <trkpt lat="46.53464" lon="6.00568">
        <ele>780.79</ele>
        <time>2023-09-03T07:08:35Z</time>
      </trkpt>
      <trkpt lat="46.53463" lon="6.00567">
        <ele>780.82</ele>
        <time>2023-09-03T07:08:36Z</time>
      </trkpt>
      <trkpt lat="46.53462" lon="6.00567">
        <ele>779.71</ele>
        <time>2023-09-03T07:08:37Z</time>
      </trkpt>
      <trkpt lat="46.53461" lon="6.00567">
        <ele>779.7</ele>
        <time>2023-09-03T07:08:38Z</time>
      </trkpt>
      <trkpt lat="46.5346" lon="6.00565">
        <ele>778.72</ele>
        <time>2023-09-03T07:08:39Z</time>
      </trkpt>
      <trkpt lat="46.53458" lon="6.00561">
        <ele>777.2</ele>
        <time>2023-09-03T07:08:44Z</time>
      </trkpt>
      <trkpt lat="46.53458" lon="6.00559">
        <ele>777.22</ele>
        <time>2023-09-03T07:08:45Z</time>
      </trkpt>
      <trkpt lat="46.53457" lon="6.00558">
        <ele>775.49</ele>
        <time>2023-09-03T07:08:48Z</time>
      </trkpt>
      <trkpt lat="46.53453" lon="6.00555">
        <ele>775.5</ele>
        <time>2023-09-03T07:08:50Z</time>
      </trkpt>
      <trkpt lat="46.53446" lon="6.00556">
        <ele>773.6</ele>
        <time>2023-09-03T07:08:57Z</time>
      </trkpt>
      <trkpt lat="46.53438" lon="6.00557">
        <ele>771.34</ele>
        <time>2023-09-03T07:09:03Z</time>
      </trkpt>
      <trkpt lat="46.5343" lon="6.00556">
        <ele>768.8</ele>
        <time>2023-09-03T07:09:13Z</time>
      </trkpt>
      <trkpt lat="46.53414" lon="6.00551">
        <ele>765.79</ele>
        <time>2023-09-03T07:09:26Z</time>
      </trkpt>
      <trkpt lat="46.53409" lon="6.00549">
        <ele>764.5</ele>
        <time>2023-09-03T07:09:30Z</time>
      </trkpt>
      <trkpt lat="46.53396" lon="6.0054">
        <ele>762.61</ele>
        <time>2023-09-03T07:09:43Z</time>
      </trkpt>
      <trkpt lat="46.5338" lon="6.00532">
        <ele>759.61</ele>
        <time>2023-09-03T07:09:54Z</time>
      </trkpt>
      <trkpt lat="46.53379" lon="6.00531">
        <ele>758.83</ele>
        <time>2023-09-03T07:09:55Z</time>
      </trkpt>
      <trkpt lat="46.53376" lon="6.00528">
        <ele>758.81</ele>
        <time>2023-09-03T07:09:58Z</time>
      </trkpt>
      <trkpt lat="46.53373" lon="6.00525">
        <ele>758.84</ele>
        <time>2023-09-03T07:10:00Z</time>
      </trkpt>
      <trkpt lat="46.53372" lon="6.00519">
        <ele>757.76</ele>
        <time>2023-09-03T07:10:03Z</time>
      </trkpt>
      <trkpt lat="46.5337" lon="6.00508">
        <ele>755.8</ele>
        <time>2023-09-03T07:10:09Z</time>
      </trkpt>
      <trkpt lat="46.53368" lon="6.00501">
        <ele>754.12</ele>
        <time>2023-09-03T07:10:15Z</time>
      </trkpt>
      <trkpt lat="46.53368" lon="6.00499">
        <ele>754.13</ele>
        <time>2023-09-03T07:10:16Z</time>
      </trkpt>
      <trkpt lat="46.53369" lon="6.0047">
        <ele>750.53</ele>
        <time>2023-09-03T07:10:32Z</time>
      </trkpt>
      <trkpt lat="46.53367" lon="6.00453">
        <ele>748.34</ele>
        <time>2023-09-03T07:10:41Z</time>
      </trkpt>
      <trkpt lat="46.53359" lon="6.00434">
        <ele>746.4</ele>
        <time>2023-09-03T07:10:51Z</time>
      </trkpt>
      <trkpt lat="46.53359" lon="6.00431">
        <ele>745.16</ele>
        <time>2023-09-03T07:10:55Z</time>
      </trkpt>
      <trkpt lat="46.53354" lon="6.0042">
        <ele>742.49</ele>
        <time>2023-09-03T07:11:02Z</time>
      </trkpt>
      <trkpt lat="46.53348" lon="6.00404">
        <ele>739.71</ele>
        <time>2023-09-03T07:11:12Z</time>
      </trkpt>
      <trkpt lat="46.53344" lon="6.00396">
        <ele>738.36</ele>
        <time>2023-09-03T07:11:17Z</time>
      </trkpt>
      <trkpt lat="46.53343" lon="6.00385">
        <ele>736.78</ele>
        <time>2023-09-03T07:11:24Z</time>
      </trkpt>
      <trkpt lat="46.5334" lon="6.00381">
        <ele>734.88</ele>
        <time>2023-09-03T07:11:29Z</time>
      </trkpt>
      <trkpt lat="46.53338" lon="6.00377">
        <ele>734.9</ele>
        <time>2023-09-03T07:11:32Z</time>
      </trkpt>
      <trkpt lat="46.53337" lon="6.00376">
        <ele>734.15</ele>
        <time>2023-09-03T07:11:33Z</time>
      </trkpt>
      <trkpt lat="46.53336" lon="6.00364">
        <ele>732.11</ele>
        <time>2023-09-03T07:11:41Z</time>
      </trkpt>
      <trkpt lat="46.53334" lon="6.00354">
        <ele>730.23</ele>
        <time>2023-09-03T07:11:45Z</time>
      </trkpt>
      <trkpt lat="46.53335" lon="6.00352">
        <ele>730.2</ele>
        <time>2023-09-03T07:11:47Z</time>
      </trkpt>
      <trkpt lat="46.53339" lon="6.00342">
        <ele>727.32</ele>
        <time>2023-09-03T07:11:56Z</time>
      </trkpt>
      <trkpt lat="46.5334" lon="6.00339">
        <ele>726.44</ele>
        <time>2023-09-03T07:11:58Z</time>
      </trkpt>
      <trkpt lat="46.53341" lon="6.00338">
        <ele>726.42</ele>
        <time>2023-09-03T07:11:59Z</time>
      </trkpt>
      <trkpt lat="46.53342" lon="6.00335">
        <ele>726.46</ele>
        <time>2023-09-03T07:12:00Z</time>
      </trkpt>
      <trkpt lat="46.53343" lon="6.00332">
        <ele>726.48</ele>
        <time>2023-09-03T07:12:01Z</time>
      </trkpt>
      <trkpt lat="46.53345" lon="6.00325">
        <ele>725.07</ele>
        <time>2023-09-03T07:12:05Z</time>
      </trkpt>
      <trkpt lat="46.53344" lon="6.00298">
        <ele>723.06</ele>
        <time>2023-09-03T07:12:17Z</time>
      </trkpt>
      <trkpt lat="46.53343" lon="6.0029">
        <ele>723.04</ele>
        <time>2023-09-03T07:12:20Z</time>
      </trkpt>
      <trkpt lat="46.5334" lon="6.00267">
        <ele>723.03</ele>
        <time>2023-09-03T07:12:27Z</time>
      </trkpt>
      <trkpt lat="46.53352" lon="6.00258">
        <ele>722.12</ele>
        <time>2023-09-03T07:12:38Z</time>
      </trkpt>
      <trkpt lat="46.5335" lon="6.00222">
        <ele>721.92</ele>
        <time>2023-09-03T07:12:50Z</time>
      </trkpt>
      <trkpt lat="46.53348" lon="6.00197">
        <ele>721.82</ele>
        <time>2023-09-03T07:12:58Z</time>
      </trkpt>
      <trkpt lat="46.53345" lon="6.00192">
        <ele>724.38</ele>
        <time>2023-09-03T07:13:00Z</time>
      </trkpt>
      <trkpt lat="46.53336" lon="6.00177">
        <ele>724.19</ele>
        <time>2023-09-03T07:13:06Z</time>
      </trkpt>
      <trkpt lat="46.53334" lon="6.00163">
        <ele>725.98</ele>
        <time>2023-09-03T07:13:17Z</time>
      </trkpt>
      <trkpt lat="46.53329" lon="6.00153">
        <ele>725.87</ele>
        <time>2023-09-03T07:13:20Z</time>
      </trkpt>
      <trkpt lat="46.53326" lon="6.00148">
        <ele>725.82</ele>
        <time>2023-09-03T07:13:22Z</time>
      </trkpt>
      <trkpt lat="46.53323" lon="6.00141">
        <ele>726.48</ele>
        <time>2023-09-03T07:13:26Z</time>
      </trkpt>
      <trkpt lat="46.53316" lon="6.00134">
        <ele>727.1</ele>
        <time>2023-09-03T07:13:31Z</time>
      </trkpt>
      <trkpt lat="46.5331" lon="6.00128">
        <ele>726.99</ele>
        <time>2023-09-03T07:13:35Z</time>
      </trkpt>
      <trkpt lat="46.53308" lon="6.00119">
        <ele>726.75</ele>
        <time>2023-09-03T07:13:44Z</time>
      </trkpt>
      <trkpt lat="46.533" lon="6.00113">
        <ele>723.72</ele>
        <time>2023-09-03T07:13:49Z</time>
      </trkpt>
      <trkpt lat="46.53295" lon="6.00108">
        <ele>721.64</ele>
        <time>2023-09-03T07:13:57Z</time>
      </trkpt>
      <trkpt lat="46.53295" lon="6.00108">
        <ele>721.59</ele>
        <time>2023-09-03T07:13:58Z</time>
      </trkpt>
      <trkpt lat="46.53289" lon="6.00103">
        <ele>720.23</ele>
        <time>2023-09-03T07:14:01Z</time>
      </trkpt>
      <trkpt lat="46.53282" lon="6.00103">
        <ele>717.95</ele>
        <time>2023-09-03T07:14:07Z</time>
      </trkpt>
      <trkpt lat="46.53275" lon="6.00103">
        <ele>717.12</ele>
        <time>2023-09-03T07:14:11Z</time>
      </trkpt>
      <trkpt lat="46.53272" lon="6.00102">
        <ele>715.27</ele>
        <time>2023-09-03T07:14:13Z</time>
      </trkpt>
      <trkpt lat="46.53265" lon="6.00108">
        <ele>712.44</ele>
        <time>2023-09-03T07:14:22Z</time>
      </trkpt>
      <trkpt lat="46.53264" lon="6.0011">
        <ele>710.81</ele>
        <time>2023-09-03T07:14:24Z</time>
      </trkpt>
      <trkpt lat="46.53257" lon="6.00112">
        <ele>709.53</ele>
        <time>2023-09-03T07:14:28Z</time>
      </trkpt>
      <trkpt lat="46.53256" lon="6.00113">
        <ele>709.51</ele>
        <time>2023-09-03T07:14:29Z</time>
      </trkpt>
      <trkpt lat="46.53254" lon="6.00116">
        <ele>708.17</ele>
        <time>2023-09-03T07:14:31Z</time>
      </trkpt>
      <trkpt lat="46.5324" lon="6.00125">
        <ele>704.47</ele>
        <time>2023-09-03T07:14:38Z</time>
      </trkpt>
      <trkpt lat="46.53231" lon="6.00136">
        <ele>702.52</ele>
        <time>2023-09-03T07:14:44Z</time>
      </trkpt>
      <trkpt lat="46.5323" lon="6.0014">
        <ele>701.01</ele>
        <time>2023-09-03T07:14:49Z</time>
      </trkpt>
      <trkpt lat="46.5322" lon="6.00146">
        <ele>697.19</ele>
        <time>2023-09-03T07:14:59Z</time>
      </trkpt>
      <trkpt lat="46.53209" lon="6.00144">
        <ele>694.75</ele>
        <time>2023-09-03T07:15:10Z</time>
      </trkpt>
      <trkpt lat="46.53209" lon="6.00141">
        <ele>693.74</ele>
        <time>2023-09-03T07:15:14Z</time>
      </trkpt>
      <trkpt lat="46.53207" lon="6.0014">
        <ele>692.36</ele>
        <time>2023-09-03T07:15:16Z</time>
      </trkpt>
      <trkpt lat="46.53205" lon="6.00134">
        <ele>690.31</ele>
        <time>2023-09-03T07:15:24Z</time>
      </trkpt>
      <trkpt lat="46.53203" lon="6.00132">
        <ele>688.99</ele>
        <time>2023-09-03T07:15:26Z</time>
      </trkpt>
      <trkpt lat="46.53197" lon="6.00127">
        <ele>685.98</ele>
        <time>2023-09-03T07:15:34Z</time>
      </trkpt>
      <trkpt lat="46.53197" lon="6.00111">
        <ele>684.88</ele>
        <time>2023-09-03T07:15:40Z</time>
      </trkpt>
      <trkpt lat="46.53193" lon="6.00107">
        <ele>682.89</ele>
        <time>2023-09-03T07:15:47Z</time>
      </trkpt>
      <trkpt lat="46.53193" lon="6.00107">
        <ele>682.88</ele>
        <time>2023-09-03T07:15:49Z</time>
      </trkpt>
      <trkpt lat="46.53177" lon="6.00115">
        <ele>683</ele>
        <time>2023-09-03T07:15:56Z</time>
      </trkpt>
      <trkpt lat="46.53175" lon="6.00119">
        <ele>682.96</ele>
        <time>2023-09-03T07:15:59Z</time>
      </trkpt>
      <trkpt lat="46.53166" lon="6.00121">
        <ele>681.84</ele>
        <time>2023-09-03T07:16:11Z</time>
      </trkpt>
      <trkpt lat="46.53165" lon="6.00128">
        <ele>679.39</ele>
        <time>2023-09-03T07:16:17Z</time>
      </trkpt>
      <trkpt lat="46.53162" lon="6.00139">
        <ele>677.19</ele>
        <time>2023-09-03T07:16:27Z</time>
      </trkpt>
      <trkpt lat="46.53161" lon="6.00144">
        <ele>675.91</ele>
        <time>2023-09-03T07:16:31Z</time>
      </trkpt>
      <trkpt lat="46.5316" lon="6.00148">
        <ele>674.29</ele>
        <time>2023-09-03T07:16:35Z</time>
      </trkpt>
      <trkpt lat="46.5316" lon="6.00149">
        <ele>674.11</ele>
        <time>2023-09-03T07:16:36Z</time>
      </trkpt>
      <trkpt lat="46.53158" lon="6.00151">
        <ele>672.82</ele>
        <time>2023-09-03T07:16:40Z</time>
      </trkpt>
      <trkpt lat="46.53156" lon="6.00144">
        <ele>671.4</ele>
        <time>2023-09-03T07:16:47Z</time>
      </trkpt>
      <trkpt lat="46.53154" lon="6.00142">
        <ele>670.15</ele>
        <time>2023-09-03T07:16:50Z</time>
      </trkpt>
      <trkpt lat="46.5315" lon="6.00139">
        <ele>670.26</ele>
        <time>2023-09-03T07:16:53Z</time>
      </trkpt>
      <trkpt lat="46.53148" lon="6.00138">
        <ele>668.68</ele>
        <time>2023-09-03T07:16:55Z</time>
      </trkpt>
      <trkpt lat="46.53143" lon="6.00128">
        <ele>666.01</ele>
        <time>2023-09-03T07:17:06Z</time>
      </trkpt>
      <trkpt lat="46.53145" lon="6.00124">
        <ele>664.15</ele>
        <time>2023-09-03T07:17:17Z</time>
      </trkpt>
      <trkpt lat="46.53148" lon="6.00124">
        <ele>662.78</ele>
        <time>2023-09-03T07:17:20Z</time>
      </trkpt>
      <trkpt lat="46.53134" lon="6.00107">
        <ele>660.92</ele>
        <time>2023-09-03T07:17:37Z</time>
      </trkpt>
      <trkpt lat="46.53131" lon="6.00113">
        <ele>660.86</ele>
        <time>2023-09-03T07:17:43Z</time>
      </trkpt>
      <trkpt lat="46.5313" lon="6.00115">
        <ele>660.87</ele>
        <time>2023-09-03T07:17:45Z</time>
      </trkpt>
      <trkpt lat="46.53131" lon="6.00132">
        <ele>660.79</ele>
        <time>2023-09-03T07:17:56Z</time>
      </trkpt>
      <trkpt lat="46.53132" lon="6.00148">
        <ele>660.71</ele>
        <time>2023-09-03T07:18:05Z</time>
      </trkpt>
      <trkpt lat="46.53132" lon="6.00152">
        <ele>660.69</ele>
        <time>2023-09-03T07:18:07Z</time>
      </trkpt>
      <trkpt lat="46.53131" lon="6.00163">
        <ele>659.87</ele>
        <time>2023-09-03T07:18:14Z</time>
      </trkpt>
      <trkpt lat="46.53136" lon="6.00185">
        <ele>659.76</ele>
        <time>2023-09-03T07:18:25Z</time>
      </trkpt>
      <trkpt lat="46.53138" lon="6.00197">
        <ele>659.64</ele>
        <time>2023-09-03T07:18:33Z</time>
      </trkpt>
      <trkpt lat="46.53138" lon="6.00207">
        <ele>659.55</ele>
        <time>2023-09-03T07:18:39Z</time>
      </trkpt>
      <trkpt lat="46.53138" lon="6.00209">
        <ele>659.49</ele>
        <time>2023-09-03T07:18:41Z</time>
      </trkpt>
      <trkpt lat="46.53133" lon="6.00228">
        <ele>654.93</ele>
        <time>2023-09-03T07:18:56Z</time>
      </trkpt>
      <trkpt lat="46.53132" lon="6.00234">
        <ele>655.05</ele>
        <time>2023-09-03T07:18:57Z</time>
      </trkpt>
      <trkpt lat="46.53125" lon="6.00258">
        <ele>652.59</ele>
        <time>2023-09-03T07:19:05Z</time>
      </trkpt>
      <trkpt lat="46.53121" lon="6.00274">
        <ele>649.34</ele>
        <time>2023-09-03T07:19:18Z</time>
      </trkpt>
      <trkpt lat="46.53125" lon="6.00289">
        <ele>646.15</ele>
        <time>2023-09-03T07:19:29Z</time>
      </trkpt>
      <trkpt lat="46.53138" lon="6.00305">
        <ele>643.81</ele>
        <time>2023-09-03T07:19:49Z</time>
      </trkpt>
      <trkpt lat="46.53138" lon="6.00305">
        <ele>642.47</ele>
        <time>2023-09-03T07:19:51Z</time>
      </trkpt>
      <trkpt lat="46.53137" lon="6.00307">
        <ele>642.41</ele>
        <time>2023-09-03T07:19:56Z</time>
      </trkpt>
      <trkpt lat="46.53137" lon="6.00318">
        <ele>641.41</ele>
        <time>2023-09-03T07:20:10Z</time>
      </trkpt>
      <trkpt lat="46.53134" lon="6.00338">
        <ele>641.42</ele>
        <time>2023-09-03T07:20:14Z</time>
      </trkpt>
      <trkpt lat="46.53132" lon="6.0034">
        <ele>641.34</ele>
        <time>2023-09-03T07:20:17Z</time>
      </trkpt>
      <trkpt lat="46.53127" lon="6.00347">
        <ele>640.61</ele>
        <time>2023-09-03T07:20:24Z</time>
      </trkpt>
      <trkpt lat="46.53126" lon="6.00351">
        <ele>640.66</ele>
        <time>2023-09-03T07:20:28Z</time>
      </trkpt>
      <trkpt lat="46.53124" lon="6.00356">
        <ele>640.67</ele>
        <time>2023-09-03T07:20:31Z</time>
      </trkpt>
      <trkpt lat="46.53124" lon="6.00362">
        <ele>639.92</ele>
        <time>2023-09-03T07:20:37Z</time>
      </trkpt>
      <trkpt lat="46.53116" lon="6.00379">
        <ele>640.2</ele>
        <time>2023-09-03T07:20:59Z</time>
      </trkpt>
      <trkpt lat="46.53117" lon="6.00387">
        <ele>642.69</ele>
        <time>2023-09-03T07:21:09Z</time>
      </trkpt>
      <trkpt lat="46.53118" lon="6.00389">
        <ele>643.82</ele>
        <time>2023-09-03T07:21:15Z</time>
      </trkpt>
      <trkpt lat="46.53127" lon="6.00403">
        <ele>645.79</ele>
        <time>2023-09-03T07:21:29Z</time>
      </trkpt>
      <trkpt lat="46.53142" lon="6.00417">
        <ele>646.79</ele>
        <time>2023-09-03T07:21:44Z</time>
      </trkpt>
      <trkpt lat="46.53161" lon="6.00433">
        <ele>647.84</ele>
        <time>2023-09-03T07:22:02Z</time>
      </trkpt>
      <trkpt lat="46.53164" lon="6.00439">
        <ele>647.88</ele>
        <time>2023-09-03T07:22:06Z</time>
      </trkpt>
      <trkpt lat="46.53174" lon="6.00458">
        <ele>649</ele>
        <time>2023-09-03T07:22:19Z</time>
      </trkpt>
      <trkpt lat="46.53183" lon="6.00477">
        <ele>650.64</ele>
        <time>2023-09-03T07:22:32Z</time>
      </trkpt>
      <trkpt lat="46.53187" lon="6.00494">
        <ele>650.74</ele>
        <time>2023-09-03T07:22:42Z</time>
      </trkpt>
      <trkpt lat="46.53185" lon="6.00534">
        <ele>653.53</ele>
        <time>2023-09-03T07:23:02Z</time>
      </trkpt>
      <trkpt lat="46.5319" lon="6.00551">
        <ele>653.56</ele>
        <time>2023-09-03T07:23:11Z</time>
      </trkpt>
      <trkpt lat="46.53191" lon="6.0057">
        <ele>655.26</ele>
        <time>2023-09-03T07:23:22Z</time>
      </trkpt>
      <trkpt lat="46.53191" lon="6.00576">
        <ele>656.48</ele>
        <time>2023-09-03T07:23:25Z</time>
      </trkpt>
      <trkpt lat="46.53195" lon="6.00611">
        <ele>659.08</ele>
        <time>2023-09-03T07:23:42Z</time>
      </trkpt>
      <trkpt lat="46.53199" lon="6.00617">
        <ele>659.94</ele>
        <time>2023-09-03T07:23:46Z</time>
      </trkpt>
      <trkpt lat="46.53201" lon="6.00622">
        <ele>661.48</ele>
        <time>2023-09-03T07:23:49Z</time>
      </trkpt>
      <trkpt lat="46.53208" lon="6.00642">
        <ele>662.3</ele>
        <time>2023-09-03T07:24:01Z</time>
      </trkpt>
      <trkpt lat="46.53227" lon="6.00671">
        <ele>666.07</ele>
        <time>2023-09-03T07:24:22Z</time>
      </trkpt>
      <trkpt lat="46.53244" lon="6.00697">
        <ele>668.51</ele>
        <time>2023-09-03T07:24:42Z</time>
      </trkpt>
      <trkpt lat="46.53252" lon="6.0072">
        <ele>670.42</ele>
        <time>2023-09-03T07:24:58Z</time>
      </trkpt>
      <trkpt lat="46.53263" lon="6.00739">
        <ele>670.35</ele>
        <time>2023-09-03T07:25:10Z</time>
      </trkpt>
      <trkpt lat="46.53273" lon="6.00769">
        <ele>671.26</ele>
        <time>2023-09-03T07:25:26Z</time>
      </trkpt>
      <trkpt lat="46.53283" lon="6.00802">
        <ele>672.78</ele>
        <time>2023-09-03T07:25:43Z</time>
      </trkpt>
      <trkpt lat="46.53298" lon="6.00828">
        <ele>675.42</ele>
        <time>2023-09-03T07:26:01Z</time>
      </trkpt>
      <trkpt lat="46.53299" lon="6.00829">
        <ele>675.42</ele>
        <time>2023-09-03T07:26:02Z</time>
      </trkpt>
      <trkpt lat="46.53305" lon="6.0087">
        <ele>676.11</ele>
        <time>2023-09-03T07:26:23Z</time>
      </trkpt>
      <trkpt lat="46.53306" lon="6.00902">
        <ele>676.79</ele>
        <time>2023-09-03T07:26:39Z</time>
      </trkpt>
      <trkpt lat="46.53304" lon="6.00947">
        <ele>678.38</ele>
        <time>2023-09-03T07:26:58Z</time>
      </trkpt>
      <trkpt lat="46.53303" lon="6.00972">
        <ele>675.79</ele>
        <time>2023-09-03T07:27:11Z</time>
      </trkpt>
      <trkpt lat="46.53299" lon="6.00994">
        <ele>674.02</ele>
        <time>2023-09-03T07:27:20Z</time>
      </trkpt>
      <trkpt lat="46.53295" lon="6.01017">
        <ele>672.08</ele>
        <time>2023-09-03T07:27:27Z</time>
      </trkpt>
      <trkpt lat="46.53294" lon="6.0102">
        <ele>672.02</ele>
        <time>2023-09-03T07:27:28Z</time>
      </trkpt>
      <trkpt lat="46.53293" lon="6.01023">
        <ele>672.02</ele>
        <time>2023-09-03T07:27:29Z</time>
      </trkpt>
      <trkpt lat="46.53293" lon="6.01026">
        <ele>671.19</ele>
        <time>2023-09-03T07:27:30Z</time>
      </trkpt>
      <trkpt lat="46.53292" lon="6.01029">
        <ele>671.17</ele>
        <time>2023-09-03T07:27:31Z</time>
      </trkpt>
      <trkpt lat="46.53291" lon="6.01032">
        <ele>671.15</ele>
        <time>2023-09-03T07:27:32Z</time>
      </trkpt>
      <trkpt lat="46.5329" lon="6.01035">
        <ele>670.26</ele>
        <time>2023-09-03T07:27:33Z</time>
      </trkpt>
      <trkpt lat="46.5329" lon="6.01038">
        <ele>669.3</ele>
        <time>2023-09-03T07:27:34Z</time>
      </trkpt>
      <trkpt lat="46.5329" lon="6.01041">
        <ele>669.29</ele>
        <time>2023-09-03T07:27:35Z</time>
      </trkpt>
      <trkpt lat="46.5329" lon="6.01043">
        <ele>669.29</ele>
        <time>2023-09-03T07:27:36Z</time>
      </trkpt>
      <trkpt lat="46.53288" lon="6.01071">
        <ele>668.44</ele>
        <time>2023-09-03T07:27:45Z</time>
      </trkpt>
      <trkpt lat="46.53289" lon="6.01074">
        <ele>668.43</ele>
        <time>2023-09-03T07:27:46Z</time>
      </trkpt>
      <trkpt lat="46.53288" lon="6.01088">
        <ele>666.72</ele>
        <time>2023-09-03T07:27:50Z</time>
      </trkpt>
      <trkpt lat="46.53283" lon="6.01111">
        <ele>669.34</ele>
        <time>2023-09-03T07:27:58Z</time>
      </trkpt>
      <trkpt lat="46.53281" lon="6.01125">
        <ele>667.04</ele>
        <time>2023-09-03T07:28:01Z</time>
      </trkpt>
      <trkpt lat="46.53276" lon="6.0116">
        <ele>665.07</ele>
        <time>2023-09-03T07:28:11Z</time>
      </trkpt>
      <trkpt lat="46.53276" lon="6.01163">
        <ele>665.11</ele>
        <time>2023-09-03T07:28:12Z</time>
      </trkpt>
      <trkpt lat="46.53275" lon="6.01166">
        <ele>663.92</ele>
        <time>2023-09-03T07:28:13Z</time>
      </trkpt>
      <trkpt lat="46.53274" lon="6.01168">
        <ele>663.92</ele>
        <time>2023-09-03T07:28:14Z</time>
      </trkpt>
      <trkpt lat="46.53273" lon="6.01171">
        <ele>663.91</ele>
        <time>2023-09-03T07:28:15Z</time>
      </trkpt>
      <trkpt lat="46.53273" lon="6.01174">
        <ele>663.91</ele>
        <time>2023-09-03T07:28:16Z</time>
      </trkpt>
      <trkpt lat="46.53272" lon="6.01178">
        <ele>662.68</ele>
        <time>2023-09-03T07:28:17Z</time>
      </trkpt>
      <trkpt lat="46.53272" lon="6.01181">
        <ele>662.68</ele>
        <time>2023-09-03T07:28:18Z</time>
      </trkpt>
      <trkpt lat="46.53272" lon="6.01184">
        <ele>662.68</ele>
        <time>2023-09-03T07:28:19Z</time>
      </trkpt>
      <trkpt lat="46.53271" lon="6.01187">
        <ele>662.68</ele>
        <time>2023-09-03T07:28:20Z</time>
      </trkpt>
      <trkpt lat="46.53271" lon="6.0119">
        <ele>662.67</ele>
        <time>2023-09-03T07:28:21Z</time>
      </trkpt>
      <trkpt lat="46.53271" lon="6.01192">
        <ele>662.67</ele>
        <time>2023-09-03T07:28:22Z</time>
      </trkpt>
      <trkpt lat="46.5327" lon="6.01195">
        <ele>661.65</ele>
        <time>2023-09-03T07:28:23Z</time>
      </trkpt>
      <trkpt lat="46.5327" lon="6.01198">
        <ele>661.65</ele>
        <time>2023-09-03T07:28:24Z</time>
      </trkpt>
      <trkpt lat="46.5327" lon="6.01201">
        <ele>661.65</ele>
        <time>2023-09-03T07:28:25Z</time>
      </trkpt>
      <trkpt lat="46.53269" lon="6.01203">
        <ele>661.65</ele>
        <time>2023-09-03T07:28:26Z</time>
      </trkpt>
      <trkpt lat="46.53268" lon="6.01205">
        <ele>661.64</ele>
        <time>2023-09-03T07:28:27Z</time>
      </trkpt>
      <trkpt lat="46.53263" lon="6.01223">
        <ele>660.65</ele>
        <time>2023-09-03T07:28:34Z</time>
      </trkpt>
      <trkpt lat="46.5326" lon="6.01241">
        <ele>658.8</ele>
        <time>2023-09-03T07:28:41Z</time>
      </trkpt>
      <trkpt lat="46.53259" lon="6.01243">
        <ele>658.77</ele>
        <time>2023-09-03T07:28:42Z</time>
      </trkpt>
      <trkpt lat="46.53259" lon="6.01245">
        <ele>658.76</ele>
        <time>2023-09-03T07:28:43Z</time>
      </trkpt>
      <trkpt lat="46.53259" lon="6.01248">
        <ele>657.34</ele>
        <time>2023-09-03T07:28:44Z</time>
      </trkpt>
      <trkpt lat="46.53258" lon="6.0125">
        <ele>657.32</ele>
        <time>2023-09-03T07:28:45Z</time>
      </trkpt>
      <trkpt lat="46.53257" lon="6.01253">
        <ele>657.32</ele>
        <time>2023-09-03T07:28:46Z</time>
      </trkpt>
      <trkpt lat="46.53257" lon="6.01255">
        <ele>657.3</ele>
        <time>2023-09-03T07:28:47Z</time>
      </trkpt>
      <trkpt lat="46.53255" lon="6.01258">
        <ele>655.94</ele>
        <time>2023-09-03T07:28:49Z</time>
      </trkpt>
      <trkpt lat="46.53255" lon="6.01261">
        <ele>655.94</ele>
        <time>2023-09-03T07:28:50Z</time>
      </trkpt>
      <trkpt lat="46.53254" lon="6.01264">
        <ele>655.92</ele>
        <time>2023-09-03T07:28:51Z</time>
      </trkpt>
      <trkpt lat="46.53254" lon="6.01267">
        <ele>655.91</ele>
        <time>2023-09-03T07:28:52Z</time>
      </trkpt>
      <trkpt lat="46.53254" lon="6.0127">
        <ele>655.89</ele>
        <time>2023-09-03T07:28:53Z</time>
      </trkpt>
      <trkpt lat="46.53253" lon="6.01273">
        <ele>655.88</ele>
        <time>2023-09-03T07:28:54Z</time>
      </trkpt>
      <trkpt lat="46.53241" lon="6.01296">
        <ele>653.9</ele>
        <time>2023-09-03T07:29:04Z</time>
      </trkpt>
      <trkpt lat="46.53239" lon="6.01297">
        <ele>653.88</ele>
        <time>2023-09-03T07:29:05Z</time>
      </trkpt>
      <trkpt lat="46.53236" lon="6.013">
        <ele>653.86</ele>
        <time>2023-09-03T07:29:07Z</time>
      </trkpt>
      <trkpt lat="46.53235" lon="6.01302">
        <ele>652.6</ele>
        <time>2023-09-03T07:29:08Z</time>
      </trkpt>
      <trkpt lat="46.53233" lon="6.01304">
        <ele>652.58</ele>
        <time>2023-09-03T07:29:09Z</time>
      </trkpt>
      <trkpt lat="46.53231" lon="6.01306">
        <ele>652.56</ele>
        <time>2023-09-03T07:29:10Z</time>
      </trkpt>
      <trkpt lat="46.5323" lon="6.01307">
        <ele>652.54</ele>
        <time>2023-09-03T07:29:11Z</time>
      </trkpt>
      <trkpt lat="46.53228" lon="6.01308">
        <ele>652.52</ele>
        <time>2023-09-03T07:29:12Z</time>
      </trkpt>
      <trkpt lat="46.53214" lon="6.01318">
        <ele>652.26</ele>
        <time>2023-09-03T07:29:23Z</time>
      </trkpt>
      <trkpt lat="46.53211" lon="6.01321">
        <ele>651.77</ele>
        <time>2023-09-03T07:29:40Z</time>
      </trkpt>
      <trkpt lat="46.5321" lon="6.01322">
        <ele>649.86</ele>
        <time>2023-09-03T07:29:47Z</time>
      </trkpt>
      <trkpt lat="46.53207" lon="6.01324">
        <ele>649.81</ele>
        <time>2023-09-03T07:29:49Z</time>
      </trkpt>
      <trkpt lat="46.53191" lon="6.01332">
        <ele>652.01</ele>
        <time>2023-09-03T07:30:00Z</time>
      </trkpt>
      <trkpt lat="46.53176" lon="6.01344">
        <ele>652.74</ele>
        <time>2023-09-03T07:30:10Z</time>
      </trkpt>
      <trkpt lat="46.5317" lon="6.01348">
        <ele>653.57</ele>
        <time>2023-09-03T07:30:13Z</time>
      </trkpt>
      <trkpt lat="46.53168" lon="6.0135">
        <ele>653.53</ele>
        <time>2023-09-03T07:30:15Z</time>
      </trkpt>
      <trkpt lat="46.53146" lon="6.01384">
        <ele>656.42</ele>
        <time>2023-09-03T07:30:37Z</time>
      </trkpt>
      <trkpt lat="46.53156" lon="6.01415">
        <ele>655.79</ele>
        <time>2023-09-03T07:30:55Z</time>
      </trkpt>
      <trkpt lat="46.53164" lon="6.01432">
        <ele>653.18</ele>
        <time>2023-09-03T07:31:05Z</time>
      </trkpt>
      <trkpt lat="46.53172" lon="6.01447">
        <ele>652.85</ele>
        <time>2023-09-03T07:31:18Z</time>
      </trkpt>
      <trkpt lat="46.53187" lon="6.0148">
        <ele>652.46</ele>
        <time>2023-09-03T07:31:38Z</time>
      </trkpt>
      <trkpt lat="46.53189" lon="6.01495">
        <ele>652.37</ele>
        <time>2023-09-03T07:31:47Z</time>
      </trkpt>
      <trkpt lat="46.5319" lon="6.015">
        <ele>654.76</ele>
        <time>2023-09-03T07:31:49Z</time>
      </trkpt>
      <trkpt lat="46.53191" lon="6.01503">
        <ele>654.76</ele>
        <time>2023-09-03T07:31:50Z</time>
      </trkpt>
      <trkpt lat="46.53191" lon="6.0151">
        <ele>654.74</ele>
        <time>2023-09-03T07:31:53Z</time>
      </trkpt>
      <trkpt lat="46.53191" lon="6.01518">
        <ele>655.61</ele>
        <time>2023-09-03T07:31:57Z</time>
      </trkpt>
      <trkpt lat="46.5319" lon="6.0152">
        <ele>655.5</ele>
        <time>2023-09-03T07:31:58Z</time>
      </trkpt>
      <trkpt lat="46.53189" lon="6.01522">
        <ele>655.51</ele>
        <time>2023-09-03T07:31:59Z</time>
      </trkpt>
      <trkpt lat="46.53189" lon="6.01527">
        <ele>655.49</ele>
        <time>2023-09-03T07:32:01Z</time>
      </trkpt>
      <trkpt lat="46.53188" lon="6.01533">
        <ele>655.62</ele>
        <time>2023-09-03T07:32:04Z</time>
      </trkpt>
      <trkpt lat="46.53187" lon="6.01536">
        <ele>656.76</ele>
        <time>2023-09-03T07:32:06Z</time>
      </trkpt>
      <trkpt lat="46.53184" lon="6.01547">
        <ele>657.45</ele>
        <time>2023-09-03T07:32:11Z</time>
      </trkpt>
      <trkpt lat="46.53177" lon="6.01566">
        <ele>658.54</ele>
        <time>2023-09-03T07:32:21Z</time>
      </trkpt>
      <trkpt lat="46.53157" lon="6.01601">
        <ele>662.26</ele>
        <time>2023-09-03T07:32:43Z</time>
      </trkpt>
      <trkpt lat="46.53141" lon="6.01617">
        <ele>659.64</ele>
        <time>2023-09-03T07:32:53Z</time>
      </trkpt>
      <trkpt lat="46.5314" lon="6.01618">
        <ele>659.64</ele>
        <time>2023-09-03T07:32:54Z</time>
      </trkpt>
      <trkpt lat="46.53135" lon="6.0162">
        <ele>663.37</ele>
        <time>2023-09-03T07:32:55Z</time>
      </trkpt>
      <trkpt lat="46.53131" lon="6.01623">
        <ele>663.37</ele>
        <time>2023-09-03T07:32:56Z</time>
      </trkpt>
      <trkpt lat="46.53129" lon="6.01624">
        <ele>663.32</ele>
        <time>2023-09-03T07:32:57Z</time>
      </trkpt>
      <trkpt lat="46.53127" lon="6.01626">
        <ele>663.38</ele>
        <time>2023-09-03T07:32:58Z</time>
      </trkpt>
      <trkpt lat="46.53126" lon="6.01627">
        <ele>663.37</ele>
        <time>2023-09-03T07:32:59Z</time>
      </trkpt>
      <trkpt lat="46.53125" lon="6.01628">
        <ele>663.38</ele>
        <time>2023-09-03T07:33:00Z</time>
      </trkpt>
      <trkpt lat="46.53121" lon="6.01631">
        <ele>663.34</ele>
        <time>2023-09-03T07:33:03Z</time>
      </trkpt>
      <trkpt lat="46.53119" lon="6.01632">
        <ele>663.34</ele>
        <time>2023-09-03T07:33:04Z</time>
      </trkpt>
      <trkpt lat="46.53109" lon="6.01647">
        <ele>663.5</ele>
        <time>2023-09-03T07:33:19Z</time>
      </trkpt>
      <trkpt lat="46.53108" lon="6.01652">
        <ele>663.75</ele>
        <time>2023-09-03T07:33:46Z</time>
      </trkpt>
      <trkpt lat="46.53111" lon="6.0165">
        <ele>664.12</ele>
        <time>2023-09-03T07:34:12Z</time>
      </trkpt>
      <trkpt lat="46.5311" lon="6.01649">
        <ele>664.84</ele>
        <time>2023-09-03T07:34:59Z</time>
      </trkpt>
      <trkpt lat="46.53113" lon="6.01649">
        <ele>665.35</ele>
        <time>2023-09-03T07:35:29Z</time>
      </trkpt>
      <trkpt lat="46.53121" lon="6.01655">
        <ele>665.91</ele>
        <time>2023-09-03T07:36:00Z</time>
      </trkpt>
      <trkpt lat="46.53128" lon="6.01658">
        <ele>666.5</ele>
        <time>2023-09-03T07:36:31Z</time>
      </trkpt>
      <trkpt lat="46.53128" lon="6.01658">
        <ele>666.98</ele>
        <time>2023-09-03T07:36:54Z</time>
      </trkpt>
      <trkpt lat="46.53123" lon="6.01655">
        <ele>667.47</ele>
        <time>2023-09-03T07:37:18Z</time>
      </trkpt>
      <trkpt lat="46.53121" lon="6.01655">
        <ele>667.79</ele>
        <time>2023-09-03T07:37:38Z</time>
      </trkpt>
      <trkpt lat="46.5312" lon="6.01653">
        <ele>669.2</ele>
        <time>2023-09-03T07:37:51Z</time>
      </trkpt>
      <trkpt lat="46.53118" lon="6.01653">
        <ele>669.59</ele>
        <time>2023-09-03T07:38:13Z</time>
      </trkpt>
      <trkpt lat="46.53116" lon="6.01651">
        <ele>670.03</ele>
        <time>2023-09-03T07:38:38Z</time>
      </trkpt>
      <trkpt lat="46.53117" lon="6.01653">
        <ele>670.12</ele>
        <time>2023-09-03T07:38:42Z</time>
      </trkpt>
      <trkpt lat="46.53115" lon="6.01659">
        <ele>670.43</ele>
        <time>2023-09-03T07:39:01Z</time>
      </trkpt>
      <trkpt lat="46.53099" lon="6.01681">
        <ele>670.72</ele>
        <time>2023-09-03T07:39:16Z</time>
      </trkpt>
      <trkpt lat="46.53091" lon="6.01692">
        <ele>672.03</ele>
        <time>2023-09-03T07:39:23Z</time>
      </trkpt>
      <trkpt lat="46.53084" lon="6.01709">
        <ele>672.22</ele>
        <time>2023-09-03T07:39:31Z</time>
      </trkpt>
      <trkpt lat="46.53083" lon="6.01711">
        <ele>672.1</ele>
        <time>2023-09-03T07:39:32Z</time>
      </trkpt>
      <trkpt lat="46.53083" lon="6.01713">
        <ele>672.12</ele>
        <time>2023-09-03T07:39:33Z</time>
      </trkpt>
      <trkpt lat="46.53082" lon="6.01715">
        <ele>672.26</ele>
        <time>2023-09-03T07:39:34Z</time>
      </trkpt>
      <trkpt lat="46.53081" lon="6.01717">
        <ele>672.3</ele>
        <time>2023-09-03T07:39:35Z</time>
      </trkpt>
      <trkpt lat="46.5308" lon="6.01719">
        <ele>672.21</ele>
        <time>2023-09-03T07:39:36Z</time>
      </trkpt>
      <trkpt lat="46.53079" lon="6.0172">
        <ele>672.28</ele>
        <time>2023-09-03T07:39:37Z</time>
      </trkpt>
      <trkpt lat="46.53079" lon="6.01722">
        <ele>672.29</ele>
        <time>2023-09-03T07:39:38Z</time>
      </trkpt>
      <trkpt lat="46.53078" lon="6.01724">
        <ele>673.42</ele>
        <time>2023-09-03T07:39:39Z</time>
      </trkpt>
      <trkpt lat="46.53077" lon="6.01728">
        <ele>673.38</ele>
        <time>2023-09-03T07:39:41Z</time>
      </trkpt>
      <trkpt lat="46.53077" lon="6.01729">
        <ele>673.46</ele>
        <time>2023-09-03T07:39:42Z</time>
      </trkpt>
      <trkpt lat="46.53076" lon="6.01732">
        <ele>674.47</ele>
        <time>2023-09-03T07:39:43Z</time>
      </trkpt>
      <trkpt lat="46.53076" lon="6.01737">
        <ele>675.36</ele>
        <time>2023-09-03T07:39:45Z</time>
      </trkpt>
      <trkpt lat="46.53074" lon="6.01761">
        <ele>672.39</ele>
        <time>2023-09-03T07:39:56Z</time>
      </trkpt>
      <trkpt lat="46.53074" lon="6.01763">
        <ele>672.4</ele>
        <time>2023-09-03T07:39:57Z</time>
      </trkpt>
      <trkpt lat="46.53073" lon="6.0177">
        <ele>669.39</ele>
        <time>2023-09-03T07:40:00Z</time>
      </trkpt>
      <trkpt lat="46.53072" lon="6.01772">
        <ele>674.24</ele>
        <time>2023-09-03T07:40:01Z</time>
      </trkpt>
      <trkpt lat="46.53072" lon="6.01774">
        <ele>674.25</ele>
        <time>2023-09-03T07:40:02Z</time>
      </trkpt>
      <trkpt lat="46.53071" lon="6.01782">
        <ele>674.32</ele>
        <time>2023-09-03T07:40:06Z</time>
      </trkpt>
      <trkpt lat="46.53072" lon="6.01784">
        <ele>674.33</ele>
        <time>2023-09-03T07:40:07Z</time>
      </trkpt>
      <trkpt lat="46.53072" lon="6.01786">
        <ele>674.34</ele>
        <time>2023-09-03T07:40:08Z</time>
      </trkpt>
      <trkpt lat="46.53073" lon="6.01789">
        <ele>674.35</ele>
        <time>2023-09-03T07:40:09Z</time>
      </trkpt>
      <trkpt lat="46.53073" lon="6.01791">
        <ele>674.38</ele>
        <time>2023-09-03T07:40:10Z</time>
      </trkpt>
      <trkpt lat="46.53074" lon="6.01794">
        <ele>674.4</ele>
        <time>2023-09-03T07:40:11Z</time>
      </trkpt>
      <trkpt lat="46.53075" lon="6.01796">
        <ele>674.38</ele>
        <time>2023-09-03T07:40:12Z</time>
      </trkpt>
      <trkpt lat="46.53075" lon="6.01798">
        <ele>674.42</ele>
        <time>2023-09-03T07:40:13Z</time>
      </trkpt>
      <trkpt lat="46.53076" lon="6.01801">
        <ele>674.46</ele>
        <time>2023-09-03T07:40:14Z</time>
      </trkpt>
      <trkpt lat="46.53075" lon="6.01804">
        <ele>674.47</ele>
        <time>2023-09-03T07:40:15Z</time>
      </trkpt>
      <trkpt lat="46.53075" lon="6.01805">
        <ele>674.48</ele>
        <time>2023-09-03T07:40:16Z</time>
      </trkpt>
      <trkpt lat="46.53075" lon="6.01807">
        <ele>674.44</ele>
        <time>2023-09-03T07:40:17Z</time>
      </trkpt>
      <trkpt lat="46.53075" lon="6.01809">
        <ele>674.5</ele>
        <time>2023-09-03T07:40:18Z</time>
      </trkpt>
      <trkpt lat="46.53074" lon="6.01811">
        <ele>674.51</ele>
        <time>2023-09-03T07:40:19Z</time>
      </trkpt>
      <trkpt lat="46.53074" lon="6.01813">
        <ele>674.48</ele>
        <time>2023-09-03T07:40:20Z</time>
      </trkpt>
      <trkpt lat="46.53068" lon="6.0184">
        <ele>674.54</ele>
        <time>2023-09-03T07:40:33Z</time>
      </trkpt>
      <trkpt lat="46.5307" lon="6.01854">
        <ele>674.65</ele>
        <time>2023-09-03T07:40:40Z</time>
      </trkpt>
      <trkpt lat="46.53072" lon="6.01858">
        <ele>674.61</ele>
        <time>2023-09-03T07:40:42Z</time>
      </trkpt>
      <trkpt lat="46.53075" lon="6.0187">
        <ele>674.7</ele>
        <time>2023-09-03T07:40:49Z</time>
      </trkpt>
      <trkpt lat="46.53076" lon="6.01872">
        <ele>674.69</ele>
        <time>2023-09-03T07:40:50Z</time>
      </trkpt>
      <trkpt lat="46.53078" lon="6.01902">
        <ele>674.73</ele>
        <time>2023-09-03T07:41:05Z</time>
      </trkpt>
      <trkpt lat="46.53076" lon="6.01917">
        <ele>674.74</ele>
        <time>2023-09-03T07:41:11Z</time>
      </trkpt>
      <trkpt lat="46.53077" lon="6.01919">
        <ele>674.86</ele>
        <time>2023-09-03T07:41:12Z</time>
      </trkpt>
      <trkpt lat="46.53077" lon="6.01924">
        <ele>674.73</ele>
        <time>2023-09-03T07:41:14Z</time>
      </trkpt>
      <trkpt lat="46.53078" lon="6.01927">
        <ele>674.71</ele>
        <time>2023-09-03T07:41:15Z</time>
      </trkpt>
      <trkpt lat="46.53077" lon="6.01929">
        <ele>674.83</ele>
        <time>2023-09-03T07:41:16Z</time>
      </trkpt>
      <trkpt lat="46.53078" lon="6.01936">
        <ele>674.72</ele>
        <time>2023-09-03T07:41:18Z</time>
      </trkpt>
      <trkpt lat="46.53078" lon="6.01938">
        <ele>674.83</ele>
        <time>2023-09-03T07:41:19Z</time>
      </trkpt>
      <trkpt lat="46.5308" lon="6.01944">
        <ele>674.71</ele>
        <time>2023-09-03T07:41:21Z</time>
      </trkpt>
      <trkpt lat="46.5308" lon="6.01946">
        <ele>674.73</ele>
        <time>2023-09-03T07:41:22Z</time>
      </trkpt>
      <trkpt lat="46.53086" lon="6.01968">
        <ele>674.68</ele>
        <time>2023-09-03T07:41:32Z</time>
      </trkpt>
      <trkpt lat="46.53087" lon="6.0197">
        <ele>674.65</ele>
        <time>2023-09-03T07:41:33Z</time>
      </trkpt>
      <trkpt lat="46.53087" lon="6.01971">
        <ele>674.65</ele>
        <time>2023-09-03T07:41:34Z</time>
      </trkpt>
      <trkpt lat="46.53088" lon="6.01973">
        <ele>674.64</ele>
        <time>2023-09-03T07:41:35Z</time>
      </trkpt>
      <trkpt lat="46.53088" lon="6.01975">
        <ele>674.64</ele>
        <time>2023-09-03T07:41:36Z</time>
      </trkpt>
      <trkpt lat="46.53093" lon="6.02008">
        <ele>674.51</ele>
        <time>2023-09-03T07:41:51Z</time>
      </trkpt>
      <trkpt lat="46.53093" lon="6.02017">
        <ele>674.55</ele>
        <time>2023-09-03T07:41:56Z</time>
      </trkpt>
      <trkpt lat="46.53093" lon="6.02027">
        <ele>674.41</ele>
        <time>2023-09-03T07:42:01Z</time>
      </trkpt>
      <trkpt lat="46.5309" lon="6.02032">
        <ele>674.48</ele>
        <time>2023-09-03T07:42:04Z</time>
      </trkpt>
      <trkpt lat="46.53089" lon="6.02034">
        <ele>674.36</ele>
        <time>2023-09-03T07:42:05Z</time>
      </trkpt>
      <trkpt lat="46.53088" lon="6.02038">
        <ele>674.42</ele>
        <time>2023-09-03T07:42:07Z</time>
      </trkpt>
      <trkpt lat="46.53083" lon="6.02044">
        <ele>674.41</ele>
        <time>2023-09-03T07:42:12Z</time>
      </trkpt>
      <trkpt lat="46.53082" lon="6.02046">
        <ele>674.35</ele>
        <time>2023-09-03T07:42:13Z</time>
      </trkpt>
      <trkpt lat="46.5308" lon="6.02045">
        <ele>674.4</ele>
        <time>2023-09-03T07:42:14Z</time>
      </trkpt>
      <trkpt lat="46.53071" lon="6.02054">
        <ele>674.29</ele>
        <time>2023-09-03T07:42:21Z</time>
      </trkpt>
      <trkpt lat="46.5307" lon="6.02054">
        <ele>674.27</ele>
        <time>2023-09-03T07:42:22Z</time>
      </trkpt>
      <trkpt lat="46.53062" lon="6.02052">
        <ele>674.18</ele>
        <time>2023-09-03T07:42:31Z</time>
      </trkpt>
      <trkpt lat="46.53061" lon="6.02053">
        <ele>674.22</ele>
        <time>2023-09-03T07:42:32Z</time>
      </trkpt>
      <trkpt lat="46.5306" lon="6.02051">
        <ele>674.2</ele>
        <time>2023-09-03T07:42:33Z</time>
      </trkpt>
      <trkpt lat="46.53059" lon="6.0205">
        <ele>674.18</ele>
        <time>2023-09-03T07:42:34Z</time>
      </trkpt>
      <trkpt lat="46.53047" lon="6.02036">
        <ele>674.04</ele>
        <time>2023-09-03T07:42:45Z</time>
      </trkpt>
      <trkpt lat="46.53045" lon="6.02035">
        <ele>671.35</ele>
        <time>2023-09-03T07:42:46Z</time>
      </trkpt>
      <trkpt lat="46.53044" lon="6.02033">
        <ele>671.34</ele>
        <time>2023-09-03T07:42:47Z</time>
      </trkpt>
      <trkpt lat="46.53043" lon="6.02031">
        <ele>671.28</ele>
        <time>2023-09-03T07:42:48Z</time>
      </trkpt>
      <trkpt lat="46.53041" lon="6.0203">
        <ele>671.32</ele>
        <time>2023-09-03T07:42:49Z</time>
      </trkpt>
      <trkpt lat="46.5304" lon="6.02029">
        <ele>671.31</ele>
        <time>2023-09-03T07:42:50Z</time>
      </trkpt>
      <trkpt lat="46.53039" lon="6.02028">
        <ele>671.3</ele>
        <time>2023-09-03T07:42:51Z</time>
      </trkpt>
      <trkpt lat="46.53035" lon="6.02024">
        <ele>671.3</ele>
        <time>2023-09-03T07:42:54Z</time>
      </trkpt>
      <trkpt lat="46.53034" lon="6.02022">
        <ele>671.25</ele>
        <time>2023-09-03T07:42:55Z</time>
      </trkpt>
      <trkpt lat="46.53033" lon="6.02021">
        <ele>671.29</ele>
        <time>2023-09-03T07:42:56Z</time>
      </trkpt>
      <trkpt lat="46.53022" lon="6.02019">
        <ele>671.2</ele>
        <time>2023-09-03T07:43:08Z</time>
      </trkpt>
      <trkpt lat="46.53013" lon="6.02014">
        <ele>671.11</ele>
        <time>2023-09-03T07:43:14Z</time>
      </trkpt>
      <trkpt lat="46.53012" lon="6.02014">
        <ele>671.12</ele>
        <time>2023-09-03T07:43:15Z</time>
      </trkpt>
      <trkpt lat="46.53006" lon="6.02011">
        <ele>671.06</ele>
        <time>2023-09-03T07:43:19Z</time>
      </trkpt>
      <trkpt lat="46.53005" lon="6.0201">
        <ele>671.08</ele>
        <time>2023-09-03T07:43:20Z</time>
      </trkpt>
      <trkpt lat="46.52982" lon="6.01986">
        <ele>670.03</ele>
        <time>2023-09-03T07:43:38Z</time>
      </trkpt>
      <trkpt lat="46.52969" lon="6.01976">
        <ele>668.87</ele>
        <time>2023-09-03T07:43:49Z</time>
      </trkpt>
      <trkpt lat="46.52955" lon="6.01958">
        <ele>667.11</ele>
        <time>2023-09-03T07:44:01Z</time>
      </trkpt>
      <trkpt lat="46.52944" lon="6.01944">
        <ele>666.28</ele>
        <time>2023-09-03T07:44:09Z</time>
      </trkpt>
      <trkpt lat="46.52941" lon="6.0194">
        <ele>666.21</ele>
        <time>2023-09-03T07:44:16Z</time>
      </trkpt>
      <trkpt lat="46.52941" lon="6.01938">
        <ele>665.29</ele>
        <time>2023-09-03T07:44:17Z</time>
      </trkpt>
      <trkpt lat="46.5294" lon="6.01937">
        <ele>665.33</ele>
        <time>2023-09-03T07:44:18Z</time>
      </trkpt>
      <trkpt lat="46.52939" lon="6.01935">
        <ele>665.33</ele>
        <time>2023-09-03T07:44:19Z</time>
      </trkpt>
      <trkpt lat="46.52943" lon="6.01933">
        <ele>665.33</ele>
        <time>2023-09-03T07:44:23Z</time>
      </trkpt>
      <trkpt lat="46.52941" lon="6.01912">
        <ele>665.47</ele>
        <time>2023-09-03T07:44:35Z</time>
      </trkpt>
      <trkpt lat="46.5294" lon="6.0191">
        <ele>665.5</ele>
        <time>2023-09-03T07:44:37Z</time>
      </trkpt>
      <trkpt lat="46.52943" lon="6.01909">
        <ele>665.57</ele>
        <time>2023-09-03T07:44:54Z</time>
      </trkpt>
      <trkpt lat="46.52945" lon="6.01896">
        <ele>667.95</ele>
        <time>2023-09-03T07:45:04Z</time>
      </trkpt>
      <trkpt lat="46.52945" lon="6.01885">
        <ele>668.03</ele>
        <time>2023-09-03T07:45:16Z</time>
      </trkpt>
      <trkpt lat="46.52946" lon="6.01884">
        <ele>668.01</ele>
        <time>2023-09-03T07:45:17Z</time>
      </trkpt>
      <trkpt lat="46.52957" lon="6.01865">
        <ele>671.1</ele>
        <time>2023-09-03T07:45:32Z</time>
      </trkpt>
      <trkpt lat="46.52967" lon="6.01846">
        <ele>673.3</ele>
        <time>2023-09-03T07:45:45Z</time>
      </trkpt>
      <trkpt lat="46.52977" lon="6.01821">
        <ele>676.98</ele>
        <time>2023-09-03T07:46:04Z</time>
      </trkpt>
      <trkpt lat="46.52984" lon="6.01791">
        <ele>679.45</ele>
        <time>2023-09-03T07:46:25Z</time>
      </trkpt>
      <trkpt lat="46.52986" lon="6.01768">
        <ele>681.44</ele>
        <time>2023-09-03T07:46:40Z</time>
      </trkpt>
      <trkpt lat="46.52987" lon="6.01741">
        <ele>683.41</ele>
        <time>2023-09-03T07:46:51Z</time>
      </trkpt>
      <trkpt lat="46.52993" lon="6.01721">
        <ele>684.56</ele>
        <time>2023-09-03T07:47:04Z</time>
      </trkpt>
      <trkpt lat="46.52988" lon="6.01691">
        <ele>685.64</ele>
        <time>2023-09-03T07:47:17Z</time>
      </trkpt>
      <trkpt lat="46.52984" lon="6.01665">
        <ele>688.25</ele>
        <time>2023-09-03T07:47:34Z</time>
      </trkpt>
      <trkpt lat="46.5299" lon="6.01627">
        <ele>690.75</ele>
        <time>2023-09-03T07:47:57Z</time>
      </trkpt>
      <trkpt lat="46.52986" lon="6.01608">
        <ele>693.21</ele>
        <time>2023-09-03T07:48:06Z</time>
      </trkpt>
      <trkpt lat="46.52988" lon="6.01606">
        <ele>693.21</ele>
        <time>2023-09-03T07:48:07Z</time>
      </trkpt>
      <trkpt lat="46.53005" lon="6.01574">
        <ele>695.08</ele>
        <time>2023-09-03T07:48:28Z</time>
      </trkpt>
      <trkpt lat="46.5303" lon="6.01561">
        <ele>697.36</ele>
        <time>2023-09-03T07:48:43Z</time>
      </trkpt>
      <trkpt lat="46.53036" lon="6.01522">
        <ele>698.15</ele>
        <time>2023-09-03T07:48:56Z</time>
      </trkpt>
      <trkpt lat="46.53038" lon="6.01512">
        <ele>699.17</ele>
        <time>2023-09-03T07:49:01Z</time>
      </trkpt>
      <trkpt lat="46.53039" lon="6.01506">
        <ele>699.91</ele>
        <time>2023-09-03T07:49:04Z</time>
      </trkpt>
      <trkpt lat="46.53038" lon="6.01497">
        <ele>699.91</ele>
        <time>2023-09-03T07:49:08Z</time>
      </trkpt>
      <trkpt lat="46.53039" lon="6.01495">
        <ele>699.91</ele>
        <time>2023-09-03T07:49:09Z</time>
      </trkpt>
      <trkpt lat="46.53041" lon="6.01485">
        <ele>700.64</ele>
        <time>2023-09-03T07:49:13Z</time>
      </trkpt>
      <trkpt lat="46.5304" lon="6.01484">
        <ele>700.72</ele>
        <time>2023-09-03T07:49:15Z</time>
      </trkpt>
      <trkpt lat="46.53039" lon="6.01477">
        <ele>701.44</ele>
        <time>2023-09-03T07:49:19Z</time>
      </trkpt>
      <trkpt lat="46.53041" lon="6.01477">
        <ele>701.46</ele>
        <time>2023-09-03T07:49:20Z</time>
      </trkpt>
      <trkpt lat="46.53052" lon="6.01446">
        <ele>704.12</ele>
        <time>2023-09-03T07:49:42Z</time>
      </trkpt>
      <trkpt lat="46.53049" lon="6.0143">
        <ele>704.98</ele>
        <time>2023-09-03T07:49:50Z</time>
      </trkpt>
      <trkpt lat="46.53048" lon="6.01428">
        <ele>704.97</ele>
        <time>2023-09-03T07:49:51Z</time>
      </trkpt>
      <trkpt lat="46.53054" lon="6.01413">
        <ele>706.01</ele>
        <time>2023-09-03T07:50:01Z</time>
      </trkpt>
      <trkpt lat="46.5307" lon="6.01396">
        <ele>707.73</ele>
        <time>2023-09-03T07:50:14Z</time>
      </trkpt>
      <trkpt lat="46.53077" lon="6.01386">
        <ele>708.55</ele>
        <time>2023-09-03T07:50:21Z</time>
      </trkpt>
      <trkpt lat="46.5308" lon="6.01373">
        <ele>710.11</ele>
        <time>2023-09-03T07:50:34Z</time>
      </trkpt>
      <trkpt lat="46.53082" lon="6.01348">
        <ele>712</ele>
        <time>2023-09-03T07:50:48Z</time>
      </trkpt>
      <trkpt lat="46.53096" lon="6.01327">
        <ele>712.98</ele>
        <time>2023-09-03T07:51:00Z</time>
      </trkpt>
      <trkpt lat="46.53105" lon="6.01313">
        <ele>714.7</ele>
        <time>2023-09-03T07:51:11Z</time>
      </trkpt>
      <trkpt lat="46.53123" lon="6.01282">
        <ele>717.14</ele>
        <time>2023-09-03T07:51:36Z</time>
      </trkpt>
      <trkpt lat="46.53135" lon="6.01254">
        <ele>720.61</ele>
        <time>2023-09-03T07:51:58Z</time>
      </trkpt>
      <trkpt lat="46.53135" lon="6.01252">
        <ele>720.68</ele>
        <time>2023-09-03T07:51:59Z</time>
      </trkpt>
      <trkpt lat="46.5317" lon="6.01228">
        <ele>722.24</ele>
        <time>2023-09-03T07:52:22Z</time>
      </trkpt>
      <trkpt lat="46.53175" lon="6.0119">
        <ele>725.72</ele>
        <time>2023-09-03T07:52:44Z</time>
      </trkpt>
      <trkpt lat="46.53194" lon="6.01157">
        <ele>728.26</ele>
        <time>2023-09-03T07:53:07Z</time>
      </trkpt>
      <trkpt lat="46.532" lon="6.01128">
        <ele>731.39</ele>
        <time>2023-09-03T07:53:25Z</time>
      </trkpt>
      <trkpt lat="46.53204" lon="6.01106">
        <ele>733.32</ele>
        <time>2023-09-03T07:53:39Z</time>
      </trkpt>
      <trkpt lat="46.53219" lon="6.0107">
        <ele>736.19</ele>
        <time>2023-09-03T07:54:00Z</time>
      </trkpt>
      <trkpt lat="46.53223" lon="6.0106">
        <ele>737</ele>
        <time>2023-09-03T07:54:07Z</time>
      </trkpt>
      <trkpt lat="46.53222" lon="6.01041">
        <ele>738.21</ele>
        <time>2023-09-03T07:54:15Z</time>
      </trkpt>
      <trkpt lat="46.53216" lon="6.00999">
        <ele>739.76</ele>
        <time>2023-09-03T07:54:36Z</time>
      </trkpt>
      <trkpt lat="46.53222" lon="6.00974">
        <ele>740.62</ele>
        <time>2023-09-03T07:54:49Z</time>
      </trkpt>
      <trkpt lat="46.53221" lon="6.00941">
        <ele>741.73</ele>
        <time>2023-09-03T07:55:04Z</time>
      </trkpt>
      <trkpt lat="46.53216" lon="6.00903">
        <ele>742.35</ele>
        <time>2023-09-03T07:55:27Z</time>
      </trkpt>
      <trkpt lat="46.53207" lon="6.00883">
        <ele>743.2</ele>
        <time>2023-09-03T07:55:39Z</time>
      </trkpt>
      <trkpt lat="46.53197" lon="6.00865">
        <ele>743.09</ele>
        <time>2023-09-03T07:55:47Z</time>
      </trkpt>
      <trkpt lat="46.53196" lon="6.00863">
        <ele>743.14</ele>
        <time>2023-09-03T07:55:48Z</time>
      </trkpt>
      <trkpt lat="46.5317" lon="6.00868">
        <ele>744.57</ele>
        <time>2023-09-03T07:56:08Z</time>
      </trkpt>
      <trkpt lat="46.5317" lon="6.00877">
        <ele>744.57</ele>
        <time>2023-09-03T07:56:14Z</time>
      </trkpt>
      <trkpt lat="46.5317" lon="6.00878">
        <ele>744.56</ele>
        <time>2023-09-03T07:56:15Z</time>
      </trkpt>
      <trkpt lat="46.5317" lon="6.0088">
        <ele>744.56</ele>
        <time>2023-09-03T07:56:16Z</time>
      </trkpt>
      <trkpt lat="46.53171" lon="6.00884">
        <ele>745.93</ele>
        <time>2023-09-03T07:56:18Z</time>
      </trkpt>
      <trkpt lat="46.53172" lon="6.00894">
        <ele>745.9</ele>
        <time>2023-09-03T07:56:24Z</time>
      </trkpt>
      <trkpt lat="46.53176" lon="6.00908">
        <ele>746.62</ele>
        <time>2023-09-03T07:56:31Z</time>
      </trkpt>
      <trkpt lat="46.53178" lon="6.00912">
        <ele>747.38</ele>
        <time>2023-09-03T07:56:33Z</time>
      </trkpt>
      <trkpt lat="46.53177" lon="6.00914">
        <ele>747.38</ele>
        <time>2023-09-03T07:56:34Z</time>
      </trkpt>
      <trkpt lat="46.53172" lon="6.00939">
        <ele>748.06</ele>
        <time>2023-09-03T07:56:50Z</time>
      </trkpt>
      <trkpt lat="46.53168" lon="6.00968">
        <ele>750.83</ele>
        <time>2023-09-03T07:57:12Z</time>
      </trkpt>
      <trkpt lat="46.53174" lon="6.00976">
        <ele>752.3</ele>
        <time>2023-09-03T07:57:17Z</time>
      </trkpt>
      <trkpt lat="46.53177" lon="6.0099">
        <ele>752.97</ele>
        <time>2023-09-03T07:57:26Z</time>
      </trkpt>
      <trkpt lat="46.53174" lon="6.01005">
        <ele>750.48</ele>
        <time>2023-09-03T07:57:39Z</time>
      </trkpt>
      <trkpt lat="46.53168" lon="6.01031">
        <ele>752.71</ele>
        <time>2023-09-03T07:57:55Z</time>
      </trkpt>
      <trkpt lat="46.53154" lon="6.01046">
        <ele>756.14</ele>
        <time>2023-09-03T07:58:15Z</time>
      </trkpt>
      <trkpt lat="46.53143" lon="6.01051">
        <ele>758.85</ele>
        <time>2023-09-03T07:58:33Z</time>
      </trkpt>
      <trkpt lat="46.53134" lon="6.01076">
        <ele>760.48</ele>
        <time>2023-09-03T07:58:51Z</time>
      </trkpt>
      <trkpt lat="46.53127" lon="6.01081">
        <ele>762.51</ele>
        <time>2023-09-03T07:59:01Z</time>
      </trkpt>
      <trkpt lat="46.53117" lon="6.01083">
        <ele>765.54</ele>
        <time>2023-09-03T07:59:14Z</time>
      </trkpt>
      <trkpt lat="46.5311" lon="6.01081">
        <ele>766.68</ele>
        <time>2023-09-03T07:59:22Z</time>
      </trkpt>
      <trkpt lat="46.53095" lon="6.01078">
        <ele>769.62</ele>
        <time>2023-09-03T07:59:37Z</time>
      </trkpt>
      <trkpt lat="46.53075" lon="6.01101">
        <ele>770.38</ele>
        <time>2023-09-03T07:59:57Z</time>
      </trkpt>
      <trkpt lat="46.53061" lon="6.01127">
        <ele>770.17</ele>
        <time>2023-09-03T08:00:17Z</time>
      </trkpt>
      <trkpt lat="46.53046" lon="6.01147">
        <ele>771.69</ele>
        <time>2023-09-03T08:00:36Z</time>
      </trkpt>
      <trkpt lat="46.5304" lon="6.0117">
        <ele>772.28</ele>
        <time>2023-09-03T08:00:51Z</time>
      </trkpt>
      <trkpt lat="46.53038" lon="6.01175">
        <ele>772.28</ele>
        <time>2023-09-03T08:00:54Z</time>
      </trkpt>
      <trkpt lat="46.53032" lon="6.01191">
        <ele>772.86</ele>
        <time>2023-09-03T08:01:05Z</time>
      </trkpt>
      <trkpt lat="46.5303" lon="6.01194">
        <ele>770.15</ele>
        <time>2023-09-03T08:01:09Z</time>
      </trkpt>
      <trkpt lat="46.53029" lon="6.01197">
        <ele>770.17</ele>
        <time>2023-09-03T08:01:10Z</time>
      </trkpt>
      <trkpt lat="46.53027" lon="6.01201">
        <ele>768.89</ele>
        <time>2023-09-03T08:01:15Z</time>
      </trkpt>
      <trkpt lat="46.53024" lon="6.01205">
        <ele>767.65</ele>
        <time>2023-09-03T08:01:19Z</time>
      </trkpt>
      <trkpt lat="46.53022" lon="6.01211">
        <ele>766.32</ele>
        <time>2023-09-03T08:01:23Z</time>
      </trkpt>
      <trkpt lat="46.53021" lon="6.01218">
        <ele>765.01</ele>
        <time>2023-09-03T08:01:27Z</time>
      </trkpt>
      <trkpt lat="46.53006" lon="6.01228">
        <ele>764.89</ele>
        <time>2023-09-03T08:01:45Z</time>
      </trkpt>
      <trkpt lat="46.52995" lon="6.01235">
        <ele>767.1</ele>
        <time>2023-09-03T08:01:51Z</time>
      </trkpt>
      <trkpt lat="46.52986" lon="6.01238">
        <ele>769.65</ele>
        <time>2023-09-03T08:01:57Z</time>
      </trkpt>
      <trkpt lat="46.5297" lon="6.01242">
        <ele>769.55</ele>
        <time>2023-09-03T08:02:04Z</time>
      </trkpt>
      <trkpt lat="46.52937" lon="6.01252">
        <ele>771.99</ele>
        <time>2023-09-03T08:02:26Z</time>
      </trkpt>
      <trkpt lat="46.52917" lon="6.01265">
        <ele>772.8</ele>
        <time>2023-09-03T08:02:38Z</time>
      </trkpt>
      <trkpt lat="46.52903" lon="6.01271">
        <ele>775.36</ele>
        <time>2023-09-03T08:02:51Z</time>
      </trkpt>
      <trkpt lat="46.52892" lon="6.01256">
        <ele>777.3</ele>
        <time>2023-09-03T08:03:05Z</time>
      </trkpt>
      <trkpt lat="46.52883" lon="6.01233">
        <ele>780.19</ele>
        <time>2023-09-03T08:03:23Z</time>
      </trkpt>
      <trkpt lat="46.52872" lon="6.01233">
        <ele>782.19</ele>
        <time>2023-09-03T08:03:32Z</time>
      </trkpt>
      <trkpt lat="46.5287" lon="6.01233">
        <ele>782.2</ele>
        <time>2023-09-03T08:03:33Z</time>
      </trkpt>
      <trkpt lat="46.52866" lon="6.01236">
        <ele>783.12</ele>
        <time>2023-09-03T08:03:38Z</time>
      </trkpt>
      <trkpt lat="46.52865" lon="6.01237">
        <ele>784.02</ele>
        <time>2023-09-03T08:03:39Z</time>
      </trkpt>
      <trkpt lat="46.52864" lon="6.01238">
        <ele>784.06</ele>
        <time>2023-09-03T08:03:40Z</time>
      </trkpt>
      <trkpt lat="46.52855" lon="6.01258">
        <ele>785.04</ele>
        <time>2023-09-03T08:03:55Z</time>
      </trkpt>
      <trkpt lat="46.52849" lon="6.01283">
        <ele>787.99</ele>
        <time>2023-09-03T08:04:10Z</time>
      </trkpt>
      <trkpt lat="46.52847" lon="6.0129">
        <ele>788.09</ele>
        <time>2023-09-03T08:04:15Z</time>
      </trkpt>
      <trkpt lat="46.52836" lon="6.01308">
        <ele>791.39</ele>
        <time>2023-09-03T08:04:27Z</time>
      </trkpt>
      <trkpt lat="46.52835" lon="6.0131">
        <ele>791.39</ele>
        <time>2023-09-03T08:04:28Z</time>
      </trkpt>
      <trkpt lat="46.52821" lon="6.01326">
        <ele>793.1</ele>
        <time>2023-09-03T08:04:43Z</time>
      </trkpt>
      <trkpt lat="46.52811" lon="6.01336">
        <ele>794.36</ele>
        <time>2023-09-03T08:04:53Z</time>
      </trkpt>
      <trkpt lat="46.52811" lon="6.01337">
        <ele>794.38</ele>
        <time>2023-09-03T08:04:54Z</time>
      </trkpt>
      <trkpt lat="46.528" lon="6.01347">
        <ele>797.53</ele>
        <time>2023-09-03T08:05:04Z</time>
      </trkpt>
      <trkpt lat="46.52799" lon="6.01347">
        <ele>797.54</ele>
        <time>2023-09-03T08:05:05Z</time>
      </trkpt>
      <trkpt lat="46.52798" lon="6.0135">
        <ele>797.55</ele>
        <time>2023-09-03T08:05:07Z</time>
      </trkpt>
      <trkpt lat="46.5279" lon="6.01361">
        <ele>799.88</ele>
        <time>2023-09-03T08:05:18Z</time>
      </trkpt>
      <trkpt lat="46.5278" lon="6.01374">
        <ele>800.81</ele>
        <time>2023-09-03T08:05:29Z</time>
      </trkpt>
      <trkpt lat="46.52771" lon="6.01393">
        <ele>802.96</ele>
        <time>2023-09-03T08:05:42Z</time>
      </trkpt>
      <trkpt lat="46.5277" lon="6.01394">
        <ele>802.95</ele>
        <time>2023-09-03T08:05:43Z</time>
      </trkpt>
      <trkpt lat="46.52769" lon="6.01395">
        <ele>802.98</ele>
        <time>2023-09-03T08:05:44Z</time>
      </trkpt>
      <trkpt lat="46.52768" lon="6.01397">
        <ele>802.98</ele>
        <time>2023-09-03T08:05:45Z</time>
      </trkpt>
      <trkpt lat="46.52757" lon="6.01406">
        <ele>806.52</ele>
        <time>2023-09-03T08:05:56Z</time>
      </trkpt>
      <trkpt lat="46.52743" lon="6.01404">
        <ele>808.48</ele>
        <time>2023-09-03T08:06:09Z</time>
      </trkpt>
      <trkpt lat="46.52738" lon="6.01402">
        <ele>809.83</ele>
        <time>2023-09-03T08:06:18Z</time>
      </trkpt>
      <trkpt lat="46.52736" lon="6.01399">
        <ele>809.85</ele>
        <time>2023-09-03T08:06:20Z</time>
      </trkpt>
      <trkpt lat="46.52735" lon="6.01397">
        <ele>809.85</ele>
        <time>2023-09-03T08:06:21Z</time>
      </trkpt>
      <trkpt lat="46.52727" lon="6.01393">
        <ele>811.55</ele>
        <time>2023-09-03T08:06:29Z</time>
      </trkpt>
      <trkpt lat="46.52715" lon="6.01387">
        <ele>812.6</ele>
        <time>2023-09-03T08:06:38Z</time>
      </trkpt>
      <trkpt lat="46.52713" lon="6.01387">
        <ele>812.61</ele>
        <time>2023-09-03T08:06:39Z</time>
      </trkpt>
      <trkpt lat="46.52706" lon="6.01387">
        <ele>814.29</ele>
        <time>2023-09-03T08:06:46Z</time>
      </trkpt>
      <trkpt lat="46.52703" lon="6.01386">
        <ele>814.28</ele>
        <time>2023-09-03T08:06:48Z</time>
      </trkpt>
      <trkpt lat="46.52702" lon="6.01385">
        <ele>814.31</ele>
        <time>2023-09-03T08:06:49Z</time>
      </trkpt>
      <trkpt lat="46.52701" lon="6.01385">
        <ele>814.32</ele>
        <time>2023-09-03T08:06:50Z</time>
      </trkpt>
      <trkpt lat="46.52699" lon="6.01385">
        <ele>815.54</ele>
        <time>2023-09-03T08:06:52Z</time>
      </trkpt>
      <trkpt lat="46.52689" lon="6.01382">
        <ele>816.38</ele>
        <time>2023-09-03T08:07:00Z</time>
      </trkpt>
      <trkpt lat="46.52688" lon="6.01381">
        <ele>817.35</ele>
        <time>2023-09-03T08:07:01Z</time>
      </trkpt>
      <trkpt lat="46.52687" lon="6.01379">
        <ele>817.35</ele>
        <time>2023-09-03T08:07:02Z</time>
      </trkpt>
      <trkpt lat="46.52677" lon="6.01378">
        <ele>817.28</ele>
        <time>2023-09-03T08:07:12Z</time>
      </trkpt>
      <trkpt lat="46.52663" lon="6.01377">
        <ele>818.17</ele>
        <time>2023-09-03T08:07:22Z</time>
      </trkpt>
      <trkpt lat="46.5266" lon="6.0138">
        <ele>819.46</ele>
        <time>2023-09-03T08:07:27Z</time>
      </trkpt>
      <trkpt lat="46.52656" lon="6.01383">
        <ele>820.3</ele>
        <time>2023-09-03T08:07:32Z</time>
      </trkpt>
      <trkpt lat="46.52653" lon="6.01388">
        <ele>821.11</ele>
        <time>2023-09-03T08:07:35Z</time>
      </trkpt>
      <trkpt lat="46.52649" lon="6.01399">
        <ele>822.69</ele>
        <time>2023-09-03T08:07:43Z</time>
      </trkpt>
      <trkpt lat="46.52649" lon="6.01402">
        <ele>822.7</ele>
        <time>2023-09-03T08:07:45Z</time>
      </trkpt>
      <trkpt lat="46.52647" lon="6.01409">
        <ele>822.67</ele>
        <time>2023-09-03T08:07:49Z</time>
      </trkpt>
      <trkpt lat="46.52647" lon="6.01411">
        <ele>823.79</ele>
        <time>2023-09-03T08:07:50Z</time>
      </trkpt>
      <trkpt lat="46.52647" lon="6.01414">
        <ele>823.78</ele>
        <time>2023-09-03T08:07:52Z</time>
      </trkpt>
      <trkpt lat="46.52647" lon="6.01422">
        <ele>825.39</ele>
        <time>2023-09-03T08:07:58Z</time>
      </trkpt>
      <trkpt lat="46.52647" lon="6.01428">
        <ele>825.36</ele>
        <time>2023-09-03T08:08:01Z</time>
      </trkpt>
      <trkpt lat="46.52648" lon="6.01434">
        <ele>826.7</ele>
        <time>2023-09-03T08:08:06Z</time>
      </trkpt>
      <trkpt lat="46.52642" lon="6.01443">
        <ele>829.59</ele>
        <time>2023-09-03T08:08:18Z</time>
      </trkpt>
      <trkpt lat="46.52639" lon="6.01444">
        <ele>829.59</ele>
        <time>2023-09-03T08:08:22Z</time>
      </trkpt>
      <trkpt lat="46.52636" lon="6.01446">
        <ele>831.08</ele>
        <time>2023-09-03T08:08:24Z</time>
      </trkpt>
      <trkpt lat="46.52633" lon="6.01448">
        <ele>831.04</ele>
        <time>2023-09-03T08:08:27Z</time>
      </trkpt>
      <trkpt lat="46.52632" lon="6.01451">
        <ele>832.37</ele>
        <time>2023-09-03T08:08:30Z</time>
      </trkpt>
      <trkpt lat="46.5263" lon="6.01456">
        <ele>832.36</ele>
        <time>2023-09-03T08:08:33Z</time>
      </trkpt>
      <trkpt lat="46.52628" lon="6.0146">
        <ele>833.07</ele>
        <time>2023-09-03T08:08:37Z</time>
      </trkpt>
      <trkpt lat="46.52628" lon="6.01465">
        <ele>834.25</ele>
        <time>2023-09-03T08:08:41Z</time>
      </trkpt>
      <trkpt lat="46.52628" lon="6.01475">
        <ele>836.18</ele>
        <time>2023-09-03T08:08:52Z</time>
      </trkpt>
      <trkpt lat="46.52628" lon="6.01479">
        <ele>836.95</ele>
        <time>2023-09-03T08:08:58Z</time>
      </trkpt>
      <trkpt lat="46.52632" lon="6.01491">
        <ele>840.17</ele>
        <time>2023-09-03T08:09:09Z</time>
      </trkpt>
      <trkpt lat="46.52634" lon="6.01503">
        <ele>842.34</ele>
        <time>2023-09-03T08:09:18Z</time>
      </trkpt>
      <trkpt lat="46.52632" lon="6.01521">
        <ele>844.39</ele>
        <time>2023-09-03T08:09:32Z</time>
      </trkpt>
      <trkpt lat="46.52631" lon="6.01533">
        <ele>846.8</ele>
        <time>2023-09-03T08:09:43Z</time>
      </trkpt>
      <trkpt lat="46.5263" lon="6.01538">
        <ele>848.62</ele>
        <time>2023-09-03T08:09:52Z</time>
      </trkpt>
      <trkpt lat="46.52623" lon="6.01539">
        <ele>851.84</ele>
        <time>2023-09-03T08:10:05Z</time>
      </trkpt>
      <trkpt lat="46.52623" lon="6.0154">
        <ele>851.86</ele>
        <time>2023-09-03T08:10:06Z</time>
      </trkpt>
      <trkpt lat="46.52621" lon="6.01543">
        <ele>851.86</ele>
        <time>2023-09-03T08:10:08Z</time>
      </trkpt>
      <trkpt lat="46.52618" lon="6.01552">
        <ele>855.2</ele>
        <time>2023-09-03T08:10:22Z</time>
      </trkpt>
      <trkpt lat="46.52618" lon="6.01553">
        <ele>855.18</ele>
        <time>2023-09-03T08:10:23Z</time>
      </trkpt>
      <trkpt lat="46.52611" lon="6.01567">
        <ele>856.2</ele>
        <time>2023-09-03T08:10:38Z</time>
      </trkpt>
      <trkpt lat="46.5261" lon="6.01568">
        <ele>857.57</ele>
        <time>2023-09-03T08:10:40Z</time>
      </trkpt>
      <trkpt lat="46.52609" lon="6.01569">
        <ele>857.56</ele>
        <time>2023-09-03T08:10:42Z</time>
      </trkpt>
      <trkpt lat="46.52601" lon="6.01596">
        <ele>859.31</ele>
        <time>2023-09-03T08:10:58Z</time>
      </trkpt>
      <trkpt lat="46.52593" lon="6.01615">
        <ele>861.39</ele>
        <time>2023-09-03T08:11:09Z</time>
      </trkpt>
      <trkpt lat="46.52591" lon="6.01623">
        <ele>862.21</ele>
        <time>2023-09-03T08:11:14Z</time>
      </trkpt>
      <trkpt lat="46.52591" lon="6.01629">
        <ele>863.73</ele>
        <time>2023-09-03T08:11:17Z</time>
      </trkpt>
      <trkpt lat="46.52588" lon="6.01636">
        <ele>865.27</ele>
        <time>2023-09-03T08:11:26Z</time>
      </trkpt>
      <trkpt lat="46.52588" lon="6.0164">
        <ele>866.57</ele>
        <time>2023-09-03T08:11:30Z</time>
      </trkpt>
      <trkpt lat="46.52587" lon="6.01644">
        <ele>866.54</ele>
        <time>2023-09-03T08:11:33Z</time>
      </trkpt>
      <trkpt lat="46.52586" lon="6.01658">
        <ele>868.83</ele>
        <time>2023-09-03T08:11:42Z</time>
      </trkpt>
      <trkpt lat="46.52587" lon="6.01664">
        <ele>870.12</ele>
        <time>2023-09-03T08:11:48Z</time>
      </trkpt>
      <trkpt lat="46.52587" lon="6.01666">
        <ele>870.13</ele>
        <time>2023-09-03T08:11:49Z</time>
      </trkpt>
      <trkpt lat="46.52589" lon="6.01669">
        <ele>871.37</ele>
        <time>2023-09-03T08:11:54Z</time>
      </trkpt>
      <trkpt lat="46.52576" lon="6.01683">
        <ele>873.17</ele>
        <time>2023-09-03T08:12:11Z</time>
      </trkpt>
      <trkpt lat="46.52565" lon="6.01688">
        <ele>876.35</ele>
        <time>2023-09-03T08:12:25Z</time>
      </trkpt>
      <trkpt lat="46.52562" lon="6.01692">
        <ele>877.15</ele>
        <time>2023-09-03T08:12:31Z</time>
      </trkpt>
      <trkpt lat="46.52561" lon="6.01693">
        <ele>877.1</ele>
        <time>2023-09-03T08:12:32Z</time>
      </trkpt>
      <trkpt lat="46.5256" lon="6.01694">
        <ele>878.14</ele>
        <time>2023-09-03T08:12:33Z</time>
      </trkpt>
      <trkpt lat="46.52558" lon="6.01698">
        <ele>878.14</ele>
        <time>2023-09-03T08:12:37Z</time>
      </trkpt>
      <trkpt lat="46.52558" lon="6.017">
        <ele>878.13</ele>
        <time>2023-09-03T08:12:39Z</time>
      </trkpt>
      <trkpt lat="46.52559" lon="6.01705">
        <ele>880.2</ele>
        <time>2023-09-03T08:12:43Z</time>
      </trkpt>
      <trkpt lat="46.52558" lon="6.01709">
        <ele>880.27</ele>
        <time>2023-09-03T08:12:48Z</time>
      </trkpt>
      <trkpt lat="46.52557" lon="6.01715">
        <ele>882.42</ele>
        <time>2023-09-03T08:12:55Z</time>
      </trkpt>
      <trkpt lat="46.52554" lon="6.01725">
        <ele>882.41</ele>
        <time>2023-09-03T08:13:02Z</time>
      </trkpt>
      <trkpt lat="46.5256" lon="6.01743">
        <ele>883.32</ele>
        <time>2023-09-03T08:13:16Z</time>
      </trkpt>
      <trkpt lat="46.52566" lon="6.01762">
        <ele>883.11</ele>
        <time>2023-09-03T08:13:28Z</time>
      </trkpt>
      <trkpt lat="46.52567" lon="6.01766">
        <ele>880.03</ele>
        <time>2023-09-03T08:13:33Z</time>
      </trkpt>
      <trkpt lat="46.52567" lon="6.01767">
        <ele>880.09</ele>
        <time>2023-09-03T08:13:34Z</time>
      </trkpt>
      <trkpt lat="46.52573" lon="6.01787">
        <ele>876.93</ele>
        <time>2023-09-03T08:13:53Z</time>
      </trkpt>
      <trkpt lat="46.52586" lon="6.01792">
        <ele>877.14</ele>
        <time>2023-09-03T08:14:13Z</time>
      </trkpt>
      <trkpt lat="46.52587" lon="6.01797">
        <ele>876.75</ele>
        <time>2023-09-03T08:14:40Z</time>
      </trkpt>
      <trkpt lat="46.52587" lon="6.01797">
        <ele>877.03</ele>
        <time>2023-09-03T08:15:07Z</time>
      </trkpt>
      <trkpt lat="46.5259" lon="6.01794">
        <ele>877.4</ele>
        <time>2023-09-03T08:15:38Z</time>
      </trkpt>
      <trkpt lat="46.5259" lon="6.01815">
        <ele>877.6</ele>
        <time>2023-09-03T08:15:55Z</time>
      </trkpt>
      <trkpt lat="46.52589" lon="6.01814">
        <ele>877.84</ele>
        <time>2023-09-03T08:16:17Z</time>
      </trkpt>
      <trkpt lat="46.52586" lon="6.0181">
        <ele>878.23</ele>
        <time>2023-09-03T08:16:39Z</time>
      </trkpt>
      <trkpt lat="46.52585" lon="6.01811">
        <ele>877.8</ele>
        <time>2023-09-03T08:16:59Z</time>
      </trkpt>
      <trkpt lat="46.52588" lon="6.01811">
        <ele>879.02</ele>
        <time>2023-09-03T08:17:58Z</time>
      </trkpt>
      <trkpt lat="46.52588" lon="6.0181">
        <ele>880.57</ele>
        <time>2023-09-03T08:19:13Z</time>
      </trkpt>
      <trkpt lat="46.52588" lon="6.0181">
        <ele>881.57</ele>
        <time>2023-09-03T08:20:05Z</time>
      </trkpt>
      <trkpt lat="46.52587" lon="6.01809">
        <ele>882.16</ele>
        <time>2023-09-03T08:20:36Z</time>
      </trkpt>
      <trkpt lat="46.52585" lon="6.01807">
        <ele>884.81</ele>
        <time>2023-09-03T08:20:48Z</time>
      </trkpt>
      <trkpt lat="46.52582" lon="6.01802">
        <ele>888.24</ele>
        <time>2023-09-03T08:21:01Z</time>
      </trkpt>
      <trkpt lat="46.52582" lon="6.01802">
        <ele>888.26</ele>
        <time>2023-09-03T08:21:02Z</time>
      </trkpt>
      <trkpt lat="46.52582" lon="6.01802">
        <ele>884.66</ele>
        <time>2023-09-03T08:21:04Z</time>
      </trkpt>
      <trkpt lat="46.5258" lon="6.018">
        <ele>892.36</ele>
        <time>2023-09-03T08:21:09Z</time>
      </trkpt>
      <trkpt lat="46.5258" lon="6.01799">
        <ele>892.38</ele>
        <time>2023-09-03T08:21:10Z</time>
      </trkpt>
      <trkpt lat="46.52579" lon="6.01797">
        <ele>888.52</ele>
        <time>2023-09-03T08:21:12Z</time>
      </trkpt>
      <trkpt lat="46.52578" lon="6.01796">
        <ele>887.5</ele>
        <time>2023-09-03T08:21:14Z</time>
      </trkpt>
      <trkpt lat="46.52571" lon="6.01783">
        <ele>890.47</ele>
        <time>2023-09-03T08:21:32Z</time>
      </trkpt>
      <trkpt lat="46.52566" lon="6.01763">
        <ele>891.56</ele>
        <time>2023-09-03T08:21:55Z</time>
      </trkpt>
      <trkpt lat="46.52563" lon="6.01758">
        <ele>889.34</ele>
        <time>2023-09-03T08:22:04Z</time>
      </trkpt>
      <trkpt lat="46.52558" lon="6.01742">
        <ele>887.55</ele>
        <time>2023-09-03T08:22:25Z</time>
      </trkpt>
      <trkpt lat="46.52554" lon="6.0173">
        <ele>885.23</ele>
        <time>2023-09-03T08:22:36Z</time>
      </trkpt>
      <trkpt lat="46.52553" lon="6.01717">
        <ele>887.97</ele>
        <time>2023-09-03T08:22:51Z</time>
      </trkpt>
      <trkpt lat="46.5255" lon="6.01709">
        <ele>890.39</ele>
        <time>2023-09-03T08:23:02Z</time>
      </trkpt>
      <trkpt lat="46.52541" lon="6.0169">
        <ele>894.21</ele>
        <time>2023-09-03T08:23:22Z</time>
      </trkpt>
      <trkpt lat="46.52536" lon="6.01683">
        <ele>896.34</ele>
        <time>2023-09-03T08:23:30Z</time>
      </trkpt>
      <trkpt lat="46.52534" lon="6.01673">
        <ele>898.53</ele>
        <time>2023-09-03T08:23:42Z</time>
      </trkpt>
      <trkpt lat="46.52529" lon="6.01666">
        <ele>899.48</ele>
        <time>2023-09-03T08:24:03Z</time>
      </trkpt>
      <trkpt lat="46.52524" lon="6.01659">
        <ele>902.56</ele>
        <time>2023-09-03T08:24:17Z</time>
      </trkpt>
      <trkpt lat="46.52511" lon="6.01633">
        <ele>903.52</ele>
        <time>2023-09-03T08:24:40Z</time>
      </trkpt>
      <trkpt lat="46.52499" lon="6.01614">
        <ele>903.53</ele>
        <time>2023-09-03T08:24:59Z</time>
      </trkpt>
      <trkpt lat="46.52486" lon="6.01603">
        <ele>901.25</ele>
        <time>2023-09-03T08:25:18Z</time>
      </trkpt>
      <trkpt lat="46.52476" lon="6.01596">
        <ele>897.49</ele>
        <time>2023-09-03T08:25:37Z</time>
      </trkpt>
      <trkpt lat="46.52468" lon="6.01593">
        <ele>894.83</ele>
        <time>2023-09-03T08:25:51Z</time>
      </trkpt>
      <trkpt lat="46.52463" lon="6.01596">
        <ele>891.33</ele>
        <time>2023-09-03T08:26:09Z</time>
      </trkpt>
      <trkpt lat="46.5246" lon="6.01601">
        <ele>888.41</ele>
        <time>2023-09-03T08:26:23Z</time>
      </trkpt>
      <trkpt lat="46.5245" lon="6.01602">
        <ele>885.35</ele>
        <time>2023-09-03T08:26:34Z</time>
      </trkpt>
      <trkpt lat="46.52434" lon="6.01603">
        <ele>881.77</ele>
        <time>2023-09-03T08:26:51Z</time>
      </trkpt>
      <trkpt lat="46.5243" lon="6.01605">
        <ele>881.07</ele>
        <time>2023-09-03T08:26:55Z</time>
      </trkpt>
      <trkpt lat="46.52415" lon="6.01613">
        <ele>877.71</ele>
        <time>2023-09-03T08:27:10Z</time>
      </trkpt>
      <trkpt lat="46.52408" lon="6.01617">
        <ele>874.96</ele>
        <time>2023-09-03T08:27:21Z</time>
      </trkpt>
      <trkpt lat="46.52401" lon="6.01617">
        <ele>871.66</ele>
        <time>2023-09-03T08:27:33Z</time>
      </trkpt>
      <trkpt lat="46.52401" lon="6.01617">
        <ele>871.69</ele>
        <time>2023-09-03T08:27:34Z</time>
      </trkpt>
      <trkpt lat="46.52388" lon="6.01617">
        <ele>869.18</ele>
        <time>2023-09-03T08:27:47Z</time>
      </trkpt>
      <trkpt lat="46.52387" lon="6.01617">
        <ele>869.2</ele>
        <time>2023-09-03T08:27:48Z</time>
      </trkpt>
      <trkpt lat="46.52381" lon="6.01616">
        <ele>868.55</ele>
        <time>2023-09-03T08:27:53Z</time>
      </trkpt>
      <trkpt lat="46.52379" lon="6.01616">
        <ele>868.62</ele>
        <time>2023-09-03T08:27:55Z</time>
      </trkpt>
      <trkpt lat="46.52364" lon="6.0162">
        <ele>866.22</ele>
        <time>2023-09-03T08:28:08Z</time>
      </trkpt>
      <trkpt lat="46.52353" lon="6.01611">
        <ele>862.91</ele>
        <time>2023-09-03T08:28:23Z</time>
      </trkpt>
      <trkpt lat="46.52344" lon="6.01606">
        <ele>860.11</ele>
        <time>2023-09-03T08:28:37Z</time>
      </trkpt>
      <trkpt lat="46.52334" lon="6.01604">
        <ele>857.03</ele>
        <time>2023-09-03T08:28:50Z</time>
      </trkpt>
      <trkpt lat="46.52326" lon="6.01602">
        <ele>855.44</ele>
        <time>2023-09-03T08:29:01Z</time>
      </trkpt>
      <trkpt lat="46.52317" lon="6.01599">
        <ele>852.83</ele>
        <time>2023-09-03T08:29:11Z</time>
      </trkpt>
      <trkpt lat="46.52316" lon="6.01598">
        <ele>852.88</ele>
        <time>2023-09-03T08:29:13Z</time>
      </trkpt>
      <trkpt lat="46.52313" lon="6.016">
        <ele>851.36</ele>
        <time>2023-09-03T08:29:16Z</time>
      </trkpt>
      <trkpt lat="46.52306" lon="6.016">
        <ele>847.92</ele>
        <time>2023-09-03T08:29:30Z</time>
      </trkpt>
      <trkpt lat="46.52298" lon="6.01604">
        <ele>844.92</ele>
        <time>2023-09-03T08:29:44Z</time>
      </trkpt>
      <trkpt lat="46.52296" lon="6.01606">
        <ele>844.96</ele>
        <time>2023-09-03T08:29:46Z</time>
      </trkpt>
      <trkpt lat="46.52289" lon="6.01609">
        <ele>841.37</ele>
        <time>2023-09-03T08:29:58Z</time>
      </trkpt>
      <trkpt lat="46.52279" lon="6.01618">
        <ele>839.42</ele>
        <time>2023-09-03T08:30:07Z</time>
      </trkpt>
      <trkpt lat="46.52269" lon="6.01619">
        <ele>835.51</ele>
        <time>2023-09-03T08:30:21Z</time>
      </trkpt>
      <trkpt lat="46.52266" lon="6.01622">
        <ele>834.03</ele>
        <time>2023-09-03T08:30:26Z</time>
      </trkpt>
      <trkpt lat="46.52258" lon="6.01622">
        <ele>830.69</ele>
        <time>2023-09-03T08:30:37Z</time>
      </trkpt>
      <trkpt lat="46.52248" lon="6.01616">
        <ele>827.4</ele>
        <time>2023-09-03T08:30:50Z</time>
      </trkpt>
      <trkpt lat="46.52236" lon="6.01626">
        <ele>824.53</ele>
        <time>2023-09-03T08:30:58Z</time>
      </trkpt>
      <trkpt lat="46.52231" lon="6.01632">
        <ele>823.21</ele>
        <time>2023-09-03T08:31:03Z</time>
      </trkpt>
      <trkpt lat="46.52228" lon="6.01634">
        <ele>822.26</ele>
        <time>2023-09-03T08:31:06Z</time>
      </trkpt>
      <trkpt lat="46.52219" lon="6.01636">
        <ele>820.56</ele>
        <time>2023-09-03T08:31:14Z</time>
      </trkpt>
      <trkpt lat="46.52218" lon="6.01637">
        <ele>819.32</ele>
        <time>2023-09-03T08:31:15Z</time>
      </trkpt>
      <trkpt lat="46.52204" lon="6.01647">
        <ele>816.76</ele>
        <time>2023-09-03T08:31:27Z</time>
      </trkpt>
      <trkpt lat="46.522" lon="6.01645">
        <ele>815.95</ele>
        <time>2023-09-03T08:31:32Z</time>
      </trkpt>
      <trkpt lat="46.52197" lon="6.01648">
        <ele>816.05</ele>
        <time>2023-09-03T08:31:35Z</time>
      </trkpt>
      <trkpt lat="46.52194" lon="6.0165">
        <ele>814.78</ele>
        <time>2023-09-03T08:31:37Z</time>
      </trkpt>
      <trkpt lat="46.52192" lon="6.0165">
        <ele>814.8</ele>
        <time>2023-09-03T08:31:38Z</time>
      </trkpt>
      <trkpt lat="46.52181" lon="6.01653">
        <ele>811.83</ele>
        <time>2023-09-03T08:31:48Z</time>
      </trkpt>
      <trkpt lat="46.5218" lon="6.01652">
        <ele>811.73</ele>
        <time>2023-09-03T08:31:49Z</time>
      </trkpt>
      <trkpt lat="46.52177" lon="6.01651">
        <ele>810.73</ele>
        <time>2023-09-03T08:31:53Z</time>
      </trkpt>
      <trkpt lat="46.52174" lon="6.01653">
        <ele>810.75</ele>
        <time>2023-09-03T08:31:55Z</time>
      </trkpt>
      <trkpt lat="46.52172" lon="6.01653">
        <ele>809.84</ele>
        <time>2023-09-03T08:31:57Z</time>
      </trkpt>
      <trkpt lat="46.52166" lon="6.01651">
        <ele>809.22</ele>
        <time>2023-09-03T08:32:04Z</time>
      </trkpt>
      <trkpt lat="46.52165" lon="6.0165">
        <ele>809.24</ele>
        <time>2023-09-03T08:32:05Z</time>
      </trkpt>
      <trkpt lat="46.52164" lon="6.01649">
        <ele>809.27</ele>
        <time>2023-09-03T08:32:06Z</time>
      </trkpt>
      <trkpt lat="46.52158" lon="6.01651">
        <ele>806.07</ele>
        <time>2023-09-03T08:32:16Z</time>
      </trkpt>
      <trkpt lat="46.52151" lon="6.0165">
        <ele>803.28</ele>
        <time>2023-09-03T08:32:29Z</time>
      </trkpt>
      <trkpt lat="46.52139" lon="6.01665">
        <ele>800.58</ele>
        <time>2023-09-03T08:32:39Z</time>
      </trkpt>
      <trkpt lat="46.52114" lon="6.01685">
        <ele>797.17</ele>
        <time>2023-09-03T08:32:59Z</time>
      </trkpt>
      <trkpt lat="46.52088" lon="6.01704">
        <ele>793.84</ele>
        <time>2023-09-03T08:33:19Z</time>
      </trkpt>
      <trkpt lat="46.52076" lon="6.01717">
        <ele>792.29</ele>
        <time>2023-09-03T08:33:30Z</time>
      </trkpt>
      <trkpt lat="46.52074" lon="6.01718">
        <ele>792.3</ele>
        <time>2023-09-03T08:33:31Z</time>
      </trkpt>
      <trkpt lat="46.52054" lon="6.01732">
        <ele>789.54</ele>
        <time>2023-09-03T08:33:50Z</time>
      </trkpt>
      <trkpt lat="46.52044" lon="6.0174">
        <ele>786.29</ele>
        <time>2023-09-03T08:34:04Z</time>
      </trkpt>
      <trkpt lat="46.52035" lon="6.01757">
        <ele>783.01</ele>
        <time>2023-09-03T08:34:20Z</time>
      </trkpt>
      <trkpt lat="46.52033" lon="6.01763">
        <ele>781.62</ele>
        <time>2023-09-03T08:34:25Z</time>
      </trkpt>
      <trkpt lat="46.52031" lon="6.0178">
        <ele>779.67</ele>
        <time>2023-09-03T08:34:35Z</time>
      </trkpt>
      <trkpt lat="46.5203" lon="6.01782">
        <ele>778.84</ele>
        <time>2023-09-03T08:34:36Z</time>
      </trkpt>
      <trkpt lat="46.52025" lon="6.01807">
        <ele>776.96</ele>
        <time>2023-09-03T08:34:47Z</time>
      </trkpt>
      <trkpt lat="46.52024" lon="6.0181">
        <ele>776</ele>
        <time>2023-09-03T08:34:49Z</time>
      </trkpt>
      <trkpt lat="46.52023" lon="6.01812">
        <ele>776.01</ele>
        <time>2023-09-03T08:34:50Z</time>
      </trkpt>
      <trkpt lat="46.52023" lon="6.01815">
        <ele>776.03</ele>
        <time>2023-09-03T08:34:51Z</time>
      </trkpt>
      <trkpt lat="46.52022" lon="6.01817">
        <ele>776.04</ele>
        <time>2023-09-03T08:34:52Z</time>
      </trkpt>
      <trkpt lat="46.52019" lon="6.01824">
        <ele>773.59</ele>
        <time>2023-09-03T08:34:59Z</time>
      </trkpt>
      <trkpt lat="46.52017" lon="6.01824">
        <ele>773.62</ele>
        <time>2023-09-03T08:35:01Z</time>
      </trkpt>
      <trkpt lat="46.52016" lon="6.01823">
        <ele>773.63</ele>
        <time>2023-09-03T08:35:02Z</time>
      </trkpt>
      <trkpt lat="46.52014" lon="6.01823">
        <ele>773.65</ele>
        <time>2023-09-03T08:35:03Z</time>
      </trkpt>
      <trkpt lat="46.52011" lon="6.01822">
        <ele>772.59</ele>
        <time>2023-09-03T08:35:06Z</time>
      </trkpt>
      <trkpt lat="46.5201" lon="6.01822">
        <ele>772.61</ele>
        <time>2023-09-03T08:35:07Z</time>
      </trkpt>
      <trkpt lat="46.52005" lon="6.01826">
        <ele>770.86</ele>
        <time>2023-09-03T08:35:11Z</time>
      </trkpt>
      <trkpt lat="46.52" lon="6.01829">
        <ele>770.9</ele>
        <time>2023-09-03T08:35:14Z</time>
      </trkpt>
      <trkpt lat="46.51999" lon="6.0183">
        <ele>770.09</ele>
        <time>2023-09-03T08:35:15Z</time>
      </trkpt>
      <trkpt lat="46.51998" lon="6.01831">
        <ele>770.11</ele>
        <time>2023-09-03T08:35:16Z</time>
      </trkpt>
      <trkpt lat="46.51998" lon="6.01833">
        <ele>770.13</ele>
        <time>2023-09-03T08:35:17Z</time>
      </trkpt>
      <trkpt lat="46.51997" lon="6.01835">
        <ele>770.14</ele>
        <time>2023-09-03T08:35:18Z</time>
      </trkpt>
      <trkpt lat="46.51996" lon="6.01838">
        <ele>770.16</ele>
        <time>2023-09-03T08:35:19Z</time>
      </trkpt>
      <trkpt lat="46.51995" lon="6.01839">
        <ele>770.17</ele>
        <time>2023-09-03T08:35:20Z</time>
      </trkpt>
      <trkpt lat="46.51994" lon="6.01841">
        <ele>770.21</ele>
        <time>2023-09-03T08:35:21Z</time>
      </trkpt>
      <trkpt lat="46.51993" lon="6.01843">
        <ele>770.22</ele>
        <time>2023-09-03T08:35:22Z</time>
      </trkpt>
      <trkpt lat="46.51992" lon="6.01843">
        <ele>769.36</ele>
        <time>2023-09-03T08:35:23Z</time>
      </trkpt>
      <trkpt lat="46.51985" lon="6.01854">
        <ele>767.77</ele>
        <time>2023-09-03T08:35:32Z</time>
      </trkpt>
      <trkpt lat="46.51981" lon="6.01862">
        <ele>766.89</ele>
        <time>2023-09-03T08:35:37Z</time>
      </trkpt>
      <trkpt lat="46.5197" lon="6.01869">
        <ele>763.23</ele>
        <time>2023-09-03T08:35:56Z</time>
      </trkpt>
      <trkpt lat="46.51964" lon="6.0188">
        <ele>763.26</ele>
        <time>2023-09-03T08:36:03Z</time>
      </trkpt>
      <trkpt lat="46.51953" lon="6.0191">
        <ele>760.41</ele>
        <time>2023-09-03T08:36:23Z</time>
      </trkpt>
      <trkpt lat="46.5195" lon="6.01915">
        <ele>759.63</ele>
        <time>2023-09-03T08:36:28Z</time>
      </trkpt>
      <trkpt lat="46.51943" lon="6.01921">
        <ele>759.68</ele>
        <time>2023-09-03T08:36:36Z</time>
      </trkpt>
      <trkpt lat="46.51941" lon="6.01922">
        <ele>759.63</ele>
        <time>2023-09-03T08:36:38Z</time>
      </trkpt>
      <trkpt lat="46.51931" lon="6.01944">
        <ele>758.43</ele>
        <time>2023-09-03T08:36:47Z</time>
      </trkpt>
      <trkpt lat="46.5193" lon="6.01945">
        <ele>758.43</ele>
        <time>2023-09-03T08:36:48Z</time>
      </trkpt>
      <trkpt lat="46.51925" lon="6.01956">
        <ele>758.42</ele>
        <time>2023-09-03T08:36:53Z</time>
      </trkpt>
      <trkpt lat="46.51924" lon="6.01958">
        <ele>758.42</ele>
        <time>2023-09-03T08:36:54Z</time>
      </trkpt>
      <trkpt lat="46.51923" lon="6.01961">
        <ele>758.42</ele>
        <time>2023-09-03T08:36:55Z</time>
      </trkpt>
      <trkpt lat="46.51917" lon="6.01968">
        <ele>757.38</ele>
        <time>2023-09-03T08:37:02Z</time>
      </trkpt>
      <trkpt lat="46.51907" lon="6.01976">
        <ele>756.43</ele>
        <time>2023-09-03T08:37:12Z</time>
      </trkpt>
      <trkpt lat="46.51906" lon="6.01977">
        <ele>756.43</ele>
        <time>2023-09-03T08:37:13Z</time>
      </trkpt>
      <trkpt lat="46.51905" lon="6.01977">
        <ele>756.43</ele>
        <time>2023-09-03T08:37:14Z</time>
      </trkpt>
      <trkpt lat="46.51902" lon="6.01984">
        <ele>756.39</ele>
        <time>2023-09-03T08:37:18Z</time>
      </trkpt>
      <trkpt lat="46.51903" lon="6.01987">
        <ele>756.38</ele>
        <time>2023-09-03T08:37:20Z</time>
      </trkpt>
      <trkpt lat="46.51915" lon="6.02012">
        <ele>755.44</ele>
        <time>2023-09-03T08:37:34Z</time>
      </trkpt>
      <trkpt lat="46.51915" lon="6.02018">
        <ele>752.4</ele>
        <time>2023-09-03T08:37:41Z</time>
      </trkpt>
      <trkpt lat="46.51914" lon="6.02032">
        <ele>749.59</ele>
        <time>2023-09-03T08:37:51Z</time>
      </trkpt>
      <trkpt lat="46.51915" lon="6.02045">
        <ele>747.83</ele>
        <time>2023-09-03T08:37:58Z</time>
      </trkpt>
      <trkpt lat="46.51915" lon="6.02064">
        <ele>745.71</ele>
        <time>2023-09-03T08:38:11Z</time>
      </trkpt>
      <trkpt lat="46.51918" lon="6.0208">
        <ele>742.52</ele>
        <time>2023-09-03T08:38:22Z</time>
      </trkpt>
      <trkpt lat="46.51918" lon="6.02082">
        <ele>742.49</ele>
        <time>2023-09-03T08:38:23Z</time>
      </trkpt>
      <trkpt lat="46.51918" lon="6.02094">
        <ele>741.12</ele>
        <time>2023-09-03T08:38:29Z</time>
      </trkpt>
      <trkpt lat="46.51917" lon="6.02109">
        <ele>737.89</ele>
        <time>2023-09-03T08:38:40Z</time>
      </trkpt>
      <trkpt lat="46.51928" lon="6.02123">
        <ele>737.73</ele>
        <time>2023-09-03T08:38:57Z</time>
      </trkpt>
      <trkpt lat="46.51932" lon="6.02121">
        <ele>737.67</ele>
        <time>2023-09-03T08:39:01Z</time>
      </trkpt>
      <trkpt lat="46.5194" lon="6.02113">
        <ele>737.35</ele>
        <time>2023-09-03T08:39:21Z</time>
      </trkpt>
      <trkpt lat="46.51945" lon="6.02108">
        <ele>736.94</ele>
        <time>2023-09-03T08:39:54Z</time>
      </trkpt>
      <trkpt lat="46.51956" lon="6.02105">
        <ele>736.77</ele>
        <time>2023-09-03T08:40:11Z</time>
      </trkpt>
      <trkpt lat="46.51982" lon="6.02104">
        <ele>734.02</ele>
        <time>2023-09-03T08:40:32Z</time>
      </trkpt>
      <trkpt lat="46.52012" lon="6.02094">
        <ele>731.25</ele>
        <time>2023-09-03T08:40:54Z</time>
      </trkpt>
      <trkpt lat="46.52022" lon="6.02084">
        <ele>730.38</ele>
        <time>2023-09-03T08:41:07Z</time>
      </trkpt>
      <trkpt lat="46.52034" lon="6.0207">
        <ele>728.41</ele>
        <time>2023-09-03T08:41:19Z</time>
      </trkpt>
      <trkpt lat="46.5204" lon="6.02064">
        <ele>726.66</ele>
        <time>2023-09-03T08:41:24Z</time>
      </trkpt>
      <trkpt lat="46.52047" lon="6.0206">
        <ele>725.65</ele>
        <time>2023-09-03T08:41:29Z</time>
      </trkpt>
      <trkpt lat="46.52056" lon="6.02045">
        <ele>724.8</ele>
        <time>2023-09-03T08:41:42Z</time>
      </trkpt>
      <trkpt lat="46.52077" lon="6.02021">
        <ele>722.21</ele>
        <time>2023-09-03T08:42:02Z</time>
      </trkpt>
      <trkpt lat="46.52081" lon="6.02019">
        <ele>722.21</ele>
        <time>2023-09-03T08:42:07Z</time>
      </trkpt>
      <trkpt lat="46.52091" lon="6.02006">
        <ele>721.06</ele>
        <time>2023-09-03T08:42:17Z</time>
      </trkpt>
      <trkpt lat="46.52098" lon="6.02005">
        <ele>719.25</ele>
        <time>2023-09-03T08:42:23Z</time>
      </trkpt>
      <trkpt lat="46.52098" lon="6.02004">
        <ele>717.63</ele>
        <time>2023-09-03T08:42:25Z</time>
      </trkpt>
      <trkpt lat="46.52102" lon="6.02001">
        <ele>716.69</ele>
        <time>2023-09-03T08:42:27Z</time>
      </trkpt>
      <trkpt lat="46.52108" lon="6.02002">
        <ele>714.7</ele>
        <time>2023-09-03T08:42:37Z</time>
      </trkpt>
      <trkpt lat="46.52107" lon="6.02007">
        <ele>713.59</ele>
        <time>2023-09-03T08:42:39Z</time>
      </trkpt>
      <trkpt lat="46.52107" lon="6.02016">
        <ele>712.56</ele>
        <time>2023-09-03T08:42:41Z</time>
      </trkpt>
      <trkpt lat="46.52107" lon="6.02026">
        <ele>711.63</ele>
        <time>2023-09-03T08:42:44Z</time>
      </trkpt>
      <trkpt lat="46.52112" lon="6.02047">
        <ele>710.65</ele>
        <time>2023-09-03T08:42:49Z</time>
      </trkpt>
      <trkpt lat="46.52114" lon="6.02084">
        <ele>708.4</ele>
        <time>2023-09-03T08:42:57Z</time>
      </trkpt>
      <trkpt lat="46.52117" lon="6.02092">
        <ele>706.34</ele>
        <time>2023-09-03T08:43:05Z</time>
      </trkpt>
      <trkpt lat="46.52122" lon="6.02103">
        <ele>703.34</ele>
        <time>2023-09-03T08:43:17Z</time>
      </trkpt>
      <trkpt lat="46.52122" lon="6.02102">
        <ele>703.36</ele>
        <time>2023-09-03T08:43:18Z</time>
      </trkpt>
      <trkpt lat="46.52141" lon="6.02095">
        <ele>700.6</ele>
        <time>2023-09-03T08:43:32Z</time>
      </trkpt>
      <trkpt lat="46.52146" lon="6.02086">
        <ele>700.64</ele>
        <time>2023-09-03T08:43:35Z</time>
      </trkpt>
      <trkpt lat="46.52147" lon="6.02085">
        <ele>699.41</ele>
        <time>2023-09-03T08:43:37Z</time>
      </trkpt>
      <trkpt lat="46.52157" lon="6.02083">
        <ele>699.42</ele>
        <time>2023-09-03T08:43:45Z</time>
      </trkpt>
      <trkpt lat="46.52162" lon="6.021">
        <ele>697.49</ele>
        <time>2023-09-03T08:43:58Z</time>
      </trkpt>
      <trkpt lat="46.52161" lon="6.02098">
        <ele>696.59</ele>
        <time>2023-09-03T08:44:01Z</time>
      </trkpt>
      <trkpt lat="46.5216" lon="6.02102">
        <ele>694.78</ele>
        <time>2023-09-03T08:44:14Z</time>
      </trkpt>
      <trkpt lat="46.52161" lon="6.02105">
        <ele>694.78</ele>
        <time>2023-09-03T08:44:18Z</time>
      </trkpt>
      <trkpt lat="46.52163" lon="6.02111">
        <ele>693.91</ele>
        <time>2023-09-03T08:44:25Z</time>
      </trkpt>
      <trkpt lat="46.52171" lon="6.02114">
        <ele>692.46</ele>
        <time>2023-09-03T08:44:43Z</time>
      </trkpt>
      <trkpt lat="46.52171" lon="6.02119">
        <ele>692.44</ele>
        <time>2023-09-03T08:44:46Z</time>
      </trkpt>
      <trkpt lat="46.5218" lon="6.02133">
        <ele>690.53</ele>
        <time>2023-09-03T08:45:02Z</time>
      </trkpt>
      <trkpt lat="46.52182" lon="6.02135">
        <ele>690.49</ele>
        <time>2023-09-03T08:45:08Z</time>
      </trkpt>
      <trkpt lat="46.52199" lon="6.02135">
        <ele>689.6</ele>
        <time>2023-09-03T08:45:23Z</time>
      </trkpt>
      <trkpt lat="46.5222" lon="6.02124">
        <ele>689.53</ele>
        <time>2023-09-03T08:45:34Z</time>
      </trkpt>
      <trkpt lat="46.52231" lon="6.02124">
        <ele>689.46</ele>
        <time>2023-09-03T08:45:42Z</time>
      </trkpt>
      <trkpt lat="46.52235" lon="6.02124">
        <ele>689.43</ele>
        <time>2023-09-03T08:45:46Z</time>
      </trkpt>
      <trkpt lat="46.52264" lon="6.02099">
        <ele>688.47</ele>
        <time>2023-09-03T08:46:02Z</time>
      </trkpt>
      <trkpt lat="46.5227" lon="6.02097">
        <ele>688.4</ele>
        <time>2023-09-03T08:46:09Z</time>
      </trkpt>
      <trkpt lat="46.52277" lon="6.02096">
        <ele>688.34</ele>
        <time>2023-09-03T08:46:14Z</time>
      </trkpt>
      <trkpt lat="46.52283" lon="6.02092">
        <ele>687.34</ele>
        <time>2023-09-03T08:46:19Z</time>
      </trkpt>
      <trkpt lat="46.52297" lon="6.02082">
        <ele>687.2</ele>
        <time>2023-09-03T08:46:30Z</time>
      </trkpt>
      <trkpt lat="46.52302" lon="6.02076">
        <ele>687.15</ele>
        <time>2023-09-03T08:46:33Z</time>
      </trkpt>
      <trkpt lat="46.52316" lon="6.02069">
        <ele>686.19</ele>
        <time>2023-09-03T08:46:44Z</time>
      </trkpt>
      <trkpt lat="46.52319" lon="6.02066">
        <ele>686.17</ele>
        <time>2023-09-03T08:46:46Z</time>
      </trkpt>
      <trkpt lat="46.52326" lon="6.02065">
        <ele>686.09</ele>
        <time>2023-09-03T08:46:51Z</time>
      </trkpt>
      <trkpt lat="46.5233" lon="6.02062">
        <ele>686.04</ele>
        <time>2023-09-03T08:46:54Z</time>
      </trkpt>
      <trkpt lat="46.52335" lon="6.02056">
        <ele>686</ele>
        <time>2023-09-03T08:46:57Z</time>
      </trkpt>
      <trkpt lat="46.52348" lon="6.02048">
        <ele>685.89</ele>
        <time>2023-09-03T08:47:04Z</time>
      </trkpt>
      <trkpt lat="46.52354" lon="6.02048">
        <ele>685.81</ele>
        <time>2023-09-03T08:47:09Z</time>
      </trkpt>
      <trkpt lat="46.52361" lon="6.02057">
        <ele>685.64</ele>
        <time>2023-09-03T08:47:19Z</time>
      </trkpt>
      <trkpt lat="46.52364" lon="6.02059">
        <ele>685.61</ele>
        <time>2023-09-03T08:47:21Z</time>
      </trkpt>
      <trkpt lat="46.5237" lon="6.02067">
        <ele>685.55</ele>
        <time>2023-09-03T08:47:25Z</time>
      </trkpt>
      <trkpt lat="46.52373" lon="6.02082">
        <ele>685.42</ele>
        <time>2023-09-03T08:47:33Z</time>
      </trkpt>
      <trkpt lat="46.52373" lon="6.02087">
        <ele>685.39</ele>
        <time>2023-09-03T08:47:35Z</time>
      </trkpt>
      <trkpt lat="46.52373" lon="6.02097">
        <ele>685.32</ele>
        <time>2023-09-03T08:47:39Z</time>
      </trkpt>
      <trkpt lat="46.52383" lon="6.02093">
        <ele>685.22</ele>
        <time>2023-09-03T08:47:45Z</time>
      </trkpt>
      <trkpt lat="46.5239" lon="6.02088">
        <ele>685.13</ele>
        <time>2023-09-03T08:47:50Z</time>
      </trkpt>
      <trkpt lat="46.52393" lon="6.02094">
        <ele>685.07</ele>
        <time>2023-09-03T08:47:54Z</time>
      </trkpt>
      <trkpt lat="46.52403" lon="6.02095">
        <ele>684.91</ele>
        <time>2023-09-03T08:48:03Z</time>
      </trkpt>
      <trkpt lat="46.52427" lon="6.02095">
        <ele>683.81</ele>
        <time>2023-09-03T08:48:21Z</time>
      </trkpt>
      <trkpt lat="46.52435" lon="6.0209">
        <ele>683.74</ele>
        <time>2023-09-03T08:48:25Z</time>
      </trkpt>
      <trkpt lat="46.52442" lon="6.02091">
        <ele>683.66</ele>
        <time>2023-09-03T08:48:30Z</time>
      </trkpt>
      <trkpt lat="46.52447" lon="6.02089">
        <ele>683.59</ele>
        <time>2023-09-03T08:48:34Z</time>
      </trkpt>
      <trkpt lat="46.52451" lon="6.0209">
        <ele>683.54</ele>
        <time>2023-09-03T08:48:37Z</time>
      </trkpt>
      <trkpt lat="46.52454" lon="6.02089">
        <ele>683.51</ele>
        <time>2023-09-03T08:48:39Z</time>
      </trkpt>
      <trkpt lat="46.52455" lon="6.02088">
        <ele>683.5</ele>
        <time>2023-09-03T08:48:40Z</time>
      </trkpt>
      <trkpt lat="46.52456" lon="6.02087">
        <ele>683.48</ele>
        <time>2023-09-03T08:48:41Z</time>
      </trkpt>
      <trkpt lat="46.52458" lon="6.02086">
        <ele>683.46</ele>
        <time>2023-09-03T08:48:42Z</time>
      </trkpt>
      <trkpt lat="46.52464" lon="6.02084">
        <ele>683.39</ele>
        <time>2023-09-03T08:48:47Z</time>
      </trkpt>
      <trkpt lat="46.52466" lon="6.02083">
        <ele>683.37</ele>
        <time>2023-09-03T08:48:48Z</time>
      </trkpt>
      <trkpt lat="46.52469" lon="6.02082">
        <ele>683.34</ele>
        <time>2023-09-03T08:48:50Z</time>
      </trkpt>
      <trkpt lat="46.52471" lon="6.02081">
        <ele>683.31</ele>
        <time>2023-09-03T08:48:52Z</time>
      </trkpt>
      <trkpt lat="46.52474" lon="6.02081">
        <ele>683.28</ele>
        <time>2023-09-03T08:48:54Z</time>
      </trkpt>
      <trkpt lat="46.52479" lon="6.0208">
        <ele>683.22</ele>
        <time>2023-09-03T08:48:58Z</time>
      </trkpt>
      <trkpt lat="46.52482" lon="6.0208">
        <ele>683.18</ele>
        <time>2023-09-03T08:49:01Z</time>
      </trkpt>
      <trkpt lat="46.52489" lon="6.02078">
        <ele>683.12</ele>
        <time>2023-09-03T08:49:05Z</time>
      </trkpt>
      <trkpt lat="46.52491" lon="6.02077">
        <ele>683.11</ele>
        <time>2023-09-03T08:49:06Z</time>
      </trkpt>
      <trkpt lat="46.52502" lon="6.02076">
        <ele>683</ele>
        <time>2023-09-03T08:49:14Z</time>
      </trkpt>
      <trkpt lat="46.52508" lon="6.02074">
        <ele>682.94</ele>
        <time>2023-09-03T08:49:18Z</time>
      </trkpt>
      <trkpt lat="46.5251" lon="6.02073">
        <ele>682.93</ele>
        <time>2023-09-03T08:49:19Z</time>
      </trkpt>
      <trkpt lat="46.52513" lon="6.02071">
        <ele>682.89</ele>
        <time>2023-09-03T08:49:22Z</time>
      </trkpt>
      <trkpt lat="46.52514" lon="6.02071">
        <ele>682.88</ele>
        <time>2023-09-03T08:49:23Z</time>
      </trkpt>
      <trkpt lat="46.52515" lon="6.02072">
        <ele>682.86</ele>
        <time>2023-09-03T08:49:24Z</time>
      </trkpt>
      <trkpt lat="46.52516" lon="6.02076">
        <ele>682.82</ele>
        <time>2023-09-03T08:49:27Z</time>
      </trkpt>
      <trkpt lat="46.52521" lon="6.02081">
        <ele>682.73</ele>
        <time>2023-09-03T08:49:33Z</time>
      </trkpt>
      <trkpt lat="46.52522" lon="6.02081">
        <ele>682.71</ele>
        <time>2023-09-03T08:49:34Z</time>
      </trkpt>
      <trkpt lat="46.52524" lon="6.02081">
        <ele>682.7</ele>
        <time>2023-09-03T08:49:35Z</time>
      </trkpt>
      <trkpt lat="46.52527" lon="6.02082">
        <ele>682.67</ele>
        <time>2023-09-03T08:49:37Z</time>
      </trkpt>
      <trkpt lat="46.52527" lon="6.02084">
        <ele>682.66</ele>
        <time>2023-09-03T08:49:38Z</time>
      </trkpt>
      <trkpt lat="46.52529" lon="6.02084">
        <ele>682.65</ele>
        <time>2023-09-03T08:49:39Z</time>
      </trkpt>
      <trkpt lat="46.52535" lon="6.0209">
        <ele>682.51</ele>
        <time>2023-09-03T08:49:46Z</time>
      </trkpt>
      <trkpt lat="46.52536" lon="6.02091">
        <ele>682.52</ele>
        <time>2023-09-03T08:49:47Z</time>
      </trkpt>
      <trkpt lat="46.52541" lon="6.021">
        <ele>681.65</ele>
        <time>2023-09-03T08:49:54Z</time>
      </trkpt>
      <trkpt lat="46.52543" lon="6.02104">
        <ele>681.61</ele>
        <time>2023-09-03T08:49:57Z</time>
      </trkpt>
      <trkpt lat="46.52544" lon="6.02105">
        <ele>681.59</ele>
        <time>2023-09-03T08:49:58Z</time>
      </trkpt>
      <trkpt lat="46.52545" lon="6.02106">
        <ele>681.57</ele>
        <time>2023-09-03T08:49:59Z</time>
      </trkpt>
      <trkpt lat="46.52546" lon="6.02107">
        <ele>681.57</ele>
        <time>2023-09-03T08:50:00Z</time>
      </trkpt>
      <trkpt lat="46.52548" lon="6.02108">
        <ele>681.54</ele>
        <time>2023-09-03T08:50:01Z</time>
      </trkpt>
      <trkpt lat="46.52551" lon="6.02111">
        <ele>681.51</ele>
        <time>2023-09-03T08:50:04Z</time>
      </trkpt>
      <trkpt lat="46.52552" lon="6.02113">
        <ele>681.49</ele>
        <time>2023-09-03T08:50:05Z</time>
      </trkpt>
      <trkpt lat="46.52555" lon="6.02118">
        <ele>681.44</ele>
        <time>2023-09-03T08:50:09Z</time>
      </trkpt>
      <trkpt lat="46.52554" lon="6.02121">
        <ele>681.43</ele>
        <time>2023-09-03T08:50:10Z</time>
      </trkpt>
      <trkpt lat="46.52555" lon="6.02123">
        <ele>681.41</ele>
        <time>2023-09-03T08:50:11Z</time>
      </trkpt>
      <trkpt lat="46.52556" lon="6.02123">
        <ele>681.4</ele>
        <time>2023-09-03T08:50:12Z</time>
      </trkpt>
      <trkpt lat="46.52559" lon="6.02125">
        <ele>681.37</ele>
        <time>2023-09-03T08:50:14Z</time>
      </trkpt>
      <trkpt lat="46.52584" lon="6.02119">
        <ele>681.2</ele>
        <time>2023-09-03T08:50:27Z</time>
      </trkpt>
      <trkpt lat="46.52589" lon="6.02126">
        <ele>681.11</ele>
        <time>2023-09-03T08:50:34Z</time>
      </trkpt>
      <trkpt lat="46.52597" lon="6.02124">
        <ele>681.04</ele>
        <time>2023-09-03T08:50:38Z</time>
      </trkpt>
      <trkpt lat="46.52617" lon="6.02134">
        <ele>680.89</ele>
        <time>2023-09-03T08:50:50Z</time>
      </trkpt>
      <trkpt lat="46.5262" lon="6.02137">
        <ele>680.86</ele>
        <time>2023-09-03T08:50:54Z</time>
      </trkpt>
      <trkpt lat="46.52624" lon="6.02142">
        <ele>680.86</ele>
        <time>2023-09-03T08:50:57Z</time>
      </trkpt>
      <trkpt lat="46.52631" lon="6.02142">
        <ele>680.76</ele>
        <time>2023-09-03T08:51:01Z</time>
      </trkpt>
      <trkpt lat="46.52638" lon="6.02144">
        <ele>679.89</ele>
        <time>2023-09-03T08:51:05Z</time>
      </trkpt>
      <trkpt lat="46.52644" lon="6.02141">
        <ele>679.94</ele>
        <time>2023-09-03T08:51:06Z</time>
      </trkpt>
      <trkpt lat="46.52648" lon="6.0214">
        <ele>679.92</ele>
        <time>2023-09-03T08:51:07Z</time>
      </trkpt>
      <trkpt lat="46.52649" lon="6.02141">
        <ele>679.88</ele>
        <time>2023-09-03T08:51:08Z</time>
      </trkpt>
      <trkpt lat="46.52652" lon="6.02141">
        <ele>679.87</ele>
        <time>2023-09-03T08:51:09Z</time>
      </trkpt>
      <trkpt lat="46.52653" lon="6.0214">
        <ele>679.86</ele>
        <time>2023-09-03T08:51:10Z</time>
      </trkpt>
      <trkpt lat="46.52655" lon="6.02146">
        <ele>679.74</ele>
        <time>2023-09-03T08:51:17Z</time>
      </trkpt>
      <trkpt lat="46.52657" lon="6.02157">
        <ele>679.69</ele>
        <time>2023-09-03T08:51:24Z</time>
      </trkpt>
      <trkpt lat="46.52644" lon="6.02163">
        <ele>679.65</ele>
        <time>2023-09-03T08:51:25Z</time>
      </trkpt>
      <trkpt lat="46.52652" lon="6.02174">
        <ele>678.85</ele>
        <time>2023-09-03T08:51:35Z</time>
      </trkpt>
      <trkpt lat="46.52657" lon="6.02176">
        <ele>678.8</ele>
        <time>2023-09-03T08:51:45Z</time>
      </trkpt>
      <trkpt lat="46.52658" lon="6.02176">
        <ele>678.95</ele>
        <time>2023-09-03T08:51:50Z</time>
      </trkpt>
      <trkpt lat="46.52681" lon="6.02183">
        <ele>679.14</ele>
        <time>2023-09-03T08:52:07Z</time>
      </trkpt>
      <trkpt lat="46.52697" lon="6.02193">
        <ele>679.44</ele>
        <time>2023-09-03T08:52:24Z</time>
      </trkpt>
      <trkpt lat="46.52703" lon="6.02195">
        <ele>679.47</ele>
        <time>2023-09-03T08:52:27Z</time>
      </trkpt>
      <trkpt lat="46.52704" lon="6.02195">
        <ele>679.49</ele>
        <time>2023-09-03T08:52:28Z</time>
      </trkpt>
      <trkpt lat="46.52717" lon="6.02195">
        <ele>679.61</ele>
        <time>2023-09-03T08:52:37Z</time>
      </trkpt>
      <trkpt lat="46.5272" lon="6.02194">
        <ele>679.69</ele>
        <time>2023-09-03T08:52:40Z</time>
      </trkpt>
      <trkpt lat="46.52721" lon="6.02192">
        <ele>679.68</ele>
        <time>2023-09-03T08:52:42Z</time>
      </trkpt>
      <trkpt lat="46.52723" lon="6.0219">
        <ele>679.73</ele>
        <time>2023-09-03T08:52:45Z</time>
      </trkpt>
      <trkpt lat="46.52729" lon="6.02187">
        <ele>679.77</ele>
        <time>2023-09-03T08:52:49Z</time>
      </trkpt>
      <trkpt lat="46.5273" lon="6.02186">
        <ele>679.8</ele>
        <time>2023-09-03T08:52:50Z</time>
      </trkpt>
      <trkpt lat="46.52732" lon="6.02185">
        <ele>679.8</ele>
        <time>2023-09-03T08:52:51Z</time>
      </trkpt>
      <trkpt lat="46.52746" lon="6.02179">
        <ele>679.96</ele>
        <time>2023-09-03T08:53:03Z</time>
      </trkpt>
      <trkpt lat="46.5275" lon="6.02179">
        <ele>679.97</ele>
        <time>2023-09-03T08:53:07Z</time>
      </trkpt>
      <trkpt lat="46.52751" lon="6.02183">
        <ele>682.33</ele>
        <time>2023-09-03T08:53:10Z</time>
      </trkpt>
      <trkpt lat="46.52752" lon="6.02186">
        <ele>682.31</ele>
        <time>2023-09-03T08:53:12Z</time>
      </trkpt>
      <trkpt lat="46.52753" lon="6.02188">
        <ele>682.34</ele>
        <time>2023-09-03T08:53:13Z</time>
      </trkpt>
      <trkpt lat="46.52757" lon="6.02195">
        <ele>684.51</ele>
        <time>2023-09-03T08:53:24Z</time>
      </trkpt>
      <trkpt lat="46.52758" lon="6.02202">
        <ele>684.58</ele>
        <time>2023-09-03T08:53:26Z</time>
      </trkpt>
      <trkpt lat="46.52759" lon="6.02205">
        <ele>685.36</ele>
        <time>2023-09-03T08:53:28Z</time>
      </trkpt>
      <trkpt lat="46.52762" lon="6.02215">
        <ele>686.46</ele>
        <time>2023-09-03T08:53:35Z</time>
      </trkpt>
      <trkpt lat="46.52762" lon="6.02217">
        <ele>686.59</ele>
        <time>2023-09-03T08:53:36Z</time>
      </trkpt>
      <trkpt lat="46.52761" lon="6.0222">
        <ele>687.68</ele>
        <time>2023-09-03T08:53:38Z</time>
      </trkpt>
      <trkpt lat="46.5276" lon="6.02227">
        <ele>689.31</ele>
        <time>2023-09-03T08:53:45Z</time>
      </trkpt>
      <trkpt lat="46.52759" lon="6.02229">
        <ele>689.43</ele>
        <time>2023-09-03T08:53:48Z</time>
      </trkpt>
      <trkpt lat="46.52757" lon="6.0224">
        <ele>691.68</ele>
        <time>2023-09-03T08:53:57Z</time>
      </trkpt>
      <trkpt lat="46.52769" lon="6.02242">
        <ele>693.52</ele>
        <time>2023-09-03T08:54:14Z</time>
      </trkpt>
      <trkpt lat="46.52776" lon="6.02239">
        <ele>697.51</ele>
        <time>2023-09-03T08:54:30Z</time>
      </trkpt>
      <trkpt lat="46.52791" lon="6.02237">
        <ele>700.88</ele>
        <time>2023-09-03T08:54:48Z</time>
      </trkpt>
      <trkpt lat="46.52801" lon="6.02237">
        <ele>701.83</ele>
        <time>2023-09-03T08:54:56Z</time>
      </trkpt>
      <trkpt lat="46.52804" lon="6.02236">
        <ele>703.31</ele>
        <time>2023-09-03T08:55:00Z</time>
      </trkpt>
      <trkpt lat="46.52806" lon="6.02245">
        <ele>706</ele>
        <time>2023-09-03T08:55:13Z</time>
      </trkpt>
      <trkpt lat="46.52796" lon="6.02251">
        <ele>709.82</ele>
        <time>2023-09-03T08:55:31Z</time>
      </trkpt>
      <trkpt lat="46.52784" lon="6.02263">
        <ele>712.02</ele>
        <time>2023-09-03T08:55:48Z</time>
      </trkpt>
      <trkpt lat="46.52782" lon="6.02283">
        <ele>712.75</ele>
        <time>2023-09-03T08:56:08Z</time>
      </trkpt>
      <trkpt lat="46.52782" lon="6.02283">
        <ele>712.75</ele>
        <time>2023-09-03T08:56:09Z</time>
      </trkpt>
      <trkpt lat="46.52783" lon="6.02284">
        <ele>712.76</ele>
        <time>2023-09-03T08:56:10Z</time>
      </trkpt>
      <trkpt lat="46.52785" lon="6.02284">
        <ele>712.77</ele>
        <time>2023-09-03T08:56:11Z</time>
      </trkpt>
      <trkpt lat="46.52786" lon="6.02283">
        <ele>712.78</ele>
        <time>2023-09-03T08:56:12Z</time>
      </trkpt>
      <trkpt lat="46.52787" lon="6.02283">
        <ele>712.78</ele>
        <time>2023-09-03T08:56:13Z</time>
      </trkpt>
      <trkpt lat="46.52803" lon="6.02284">
        <ele>713.75</ele>
        <time>2023-09-03T08:56:27Z</time>
      </trkpt>
      <trkpt lat="46.52803" lon="6.02286">
        <ele>713.74</ele>
        <time>2023-09-03T08:56:28Z</time>
      </trkpt>
      <trkpt lat="46.52804" lon="6.02292">
        <ele>716.64</ele>
        <time>2023-09-03T08:56:33Z</time>
      </trkpt>
      <trkpt lat="46.52812" lon="6.02294">
        <ele>718.68</ele>
        <time>2023-09-03T08:56:41Z</time>
      </trkpt>
      <trkpt lat="46.52814" lon="6.02296">
        <ele>720.85</ele>
        <time>2023-09-03T08:56:46Z</time>
      </trkpt>
      <trkpt lat="46.52812" lon="6.02305">
        <ele>723.79</ele>
        <time>2023-09-03T08:56:56Z</time>
      </trkpt>
      <trkpt lat="46.52821" lon="6.02307">
        <ele>727.43</ele>
        <time>2023-09-03T08:57:10Z</time>
      </trkpt>
      <trkpt lat="46.52828" lon="6.02307">
        <ele>729.34</ele>
        <time>2023-09-03T08:57:20Z</time>
      </trkpt>
      <trkpt lat="46.52836" lon="6.0231">
        <ele>732.48</ele>
        <time>2023-09-03T08:57:31Z</time>
      </trkpt>
      <trkpt lat="46.52846" lon="6.0231">
        <ele>733.48</ele>
        <time>2023-09-03T08:57:43Z</time>
      </trkpt>
      <trkpt lat="46.52847" lon="6.0231">
        <ele>733.4</ele>
        <time>2023-09-03T08:57:44Z</time>
      </trkpt>
      <trkpt lat="46.52855" lon="6.02309">
        <ele>734.59</ele>
        <time>2023-09-03T08:57:59Z</time>
      </trkpt>
      <trkpt lat="46.52875" lon="6.02307">
        <ele>734.67</ele>
        <time>2023-09-03T08:58:21Z</time>
      </trkpt>
      <trkpt lat="46.529" lon="6.02302">
        <ele>736.91</ele>
        <time>2023-09-03T08:58:39Z</time>
      </trkpt>
      <trkpt lat="46.52903" lon="6.02302">
        <ele>738.13</ele>
        <time>2023-09-03T08:58:41Z</time>
      </trkpt>
      <trkpt lat="46.52907" lon="6.02302">
        <ele>738.05</ele>
        <time>2023-09-03T08:58:46Z</time>
      </trkpt>
      <trkpt lat="46.52908" lon="6.02302">
        <ele>738.04</ele>
        <time>2023-09-03T08:58:47Z</time>
      </trkpt>
      <trkpt lat="46.5293" lon="6.02309">
        <ele>739.03</ele>
        <time>2023-09-03T08:59:04Z</time>
      </trkpt>
      <trkpt lat="46.52938" lon="6.02321">
        <ele>739.11</ele>
        <time>2023-09-03T08:59:13Z</time>
      </trkpt>
      <trkpt lat="46.52938" lon="6.02322">
        <ele>739.1</ele>
        <time>2023-09-03T08:59:14Z</time>
      </trkpt>
      <trkpt lat="46.52939" lon="6.02324">
        <ele>739.13</ele>
        <time>2023-09-03T08:59:15Z</time>
      </trkpt>
      <trkpt lat="46.52939" lon="6.02325">
        <ele>739.11</ele>
        <time>2023-09-03T08:59:16Z</time>
      </trkpt>
      <trkpt lat="46.52943" lon="6.0234">
        <ele>740.14</ele>
        <time>2023-09-03T08:59:28Z</time>
      </trkpt>
      <trkpt lat="46.5295" lon="6.02359">
        <ele>741.07</ele>
        <time>2023-09-03T08:59:42Z</time>
      </trkpt>
      <trkpt lat="46.5295" lon="6.02361">
        <ele>741.07</ele>
        <time>2023-09-03T08:59:43Z</time>
      </trkpt>
      <trkpt lat="46.52951" lon="6.02362">
        <ele>741.06</ele>
        <time>2023-09-03T08:59:44Z</time>
      </trkpt>
      <trkpt lat="46.52952" lon="6.02363">
        <ele>741.02</ele>
        <time>2023-09-03T08:59:45Z</time>
      </trkpt>
      <trkpt lat="46.52953" lon="6.02364">
        <ele>740.96</ele>
        <time>2023-09-03T08:59:46Z</time>
      </trkpt>
      <trkpt lat="46.52964" lon="6.02381">
        <ele>741.04</ele>
        <time>2023-09-03T09:00:02Z</time>
      </trkpt>
      <trkpt lat="46.52991" lon="6.02392">
        <ele>741.01</ele>
        <time>2023-09-03T09:00:23Z</time>
      </trkpt>
      <trkpt lat="46.53002" lon="6.02391">
        <ele>738.62</ele>
        <time>2023-09-03T09:00:30Z</time>
      </trkpt>
      <trkpt lat="46.53033" lon="6.02392">
        <ele>737.13</ele>
        <time>2023-09-03T09:00:53Z</time>
      </trkpt>
      <trkpt lat="46.53042" lon="6.02395">
        <ele>737.21</ele>
        <time>2023-09-03T09:01:02Z</time>
      </trkpt>
      <trkpt lat="46.5305" lon="6.02395">
        <ele>737.15</ele>
        <time>2023-09-03T09:01:13Z</time>
      </trkpt>
      <trkpt lat="46.53081" lon="6.02403">
        <ele>737.05</ele>
        <time>2023-09-03T09:01:35Z</time>
      </trkpt>
      <trkpt lat="46.53096" lon="6.0241">
        <ele>736.91</ele>
        <time>2023-09-03T09:01:49Z</time>
      </trkpt>
      <trkpt lat="46.53107" lon="6.02426">
        <ele>736.84</ele>
        <time>2023-09-03T09:02:03Z</time>
      </trkpt>
      <trkpt lat="46.53114" lon="6.02433">
        <ele>736.78</ele>
        <time>2023-09-03T09:02:10Z</time>
      </trkpt>
      <trkpt lat="46.53116" lon="6.02435">
        <ele>736.76</ele>
        <time>2023-09-03T09:02:11Z</time>
      </trkpt>
      <trkpt lat="46.53117" lon="6.02436">
        <ele>736.76</ele>
        <time>2023-09-03T09:02:12Z</time>
      </trkpt>
      <trkpt lat="46.53119" lon="6.02438">
        <ele>736.72</ele>
        <time>2023-09-03T09:02:14Z</time>
      </trkpt>
      <trkpt lat="46.53136" lon="6.02456">
        <ele>736.47</ele>
        <time>2023-09-03T09:02:29Z</time>
      </trkpt>
      <trkpt lat="46.53142" lon="6.02465">
        <ele>736.44</ele>
        <time>2023-09-03T09:02:36Z</time>
      </trkpt>
      <trkpt lat="46.53171" lon="6.02476">
        <ele>736.21</ele>
        <time>2023-09-03T09:02:52Z</time>
      </trkpt>
      <trkpt lat="46.53179" lon="6.02488">
        <ele>738.59</ele>
        <time>2023-09-03T09:03:02Z</time>
      </trkpt>
      <trkpt lat="46.53203" lon="6.02513">
        <ele>739.04</ele>
        <time>2023-09-03T09:03:26Z</time>
      </trkpt>
      <trkpt lat="46.53229" lon="6.02534">
        <ele>738.67</ele>
        <time>2023-09-03T09:03:49Z</time>
      </trkpt>
      <trkpt lat="46.5325" lon="6.02549">
        <ele>738.18</ele>
        <time>2023-09-03T09:04:11Z</time>
      </trkpt>
      <trkpt lat="46.53255" lon="6.02555">
        <ele>735.76</ele>
        <time>2023-09-03T09:04:17Z</time>
      </trkpt>
      <trkpt lat="46.53278" lon="6.02568">
        <ele>734.57</ele>
        <time>2023-09-03T09:04:36Z</time>
      </trkpt>
      <trkpt lat="46.5331" lon="6.02581">
        <ele>734.37</ele>
        <time>2023-09-03T09:04:48Z</time>
      </trkpt>
      <trkpt lat="46.5331" lon="6.02583">
        <ele>736.71</ele>
        <time>2023-09-03T09:04:50Z</time>
      </trkpt>
      <trkpt lat="46.53311" lon="6.02597">
        <ele>737.35</ele>
        <time>2023-09-03T09:05:04Z</time>
      </trkpt>
      <trkpt lat="46.53311" lon="6.02597">
        <ele>741.78</ele>
        <time>2023-09-03T09:05:28Z</time>
      </trkpt>
      <trkpt lat="46.5331" lon="6.02597">
        <ele>741.75</ele>
        <time>2023-09-03T09:05:31Z</time>
      </trkpt>
      <trkpt lat="46.53307" lon="6.02596">
        <ele>741.62</ele>
        <time>2023-09-03T09:05:35Z</time>
      </trkpt>
      <trkpt lat="46.53296" lon="6.02597">
        <ele>742.52</ele>
        <time>2023-09-03T09:05:44Z</time>
      </trkpt>
      <trkpt lat="46.53277" lon="6.026">
        <ele>743.35</ele>
        <time>2023-09-03T09:05:56Z</time>
      </trkpt>
      <trkpt lat="46.53269" lon="6.02597">
        <ele>744.18</ele>
        <time>2023-09-03T09:06:02Z</time>
      </trkpt>
      <trkpt lat="46.53256" lon="6.02592">
        <ele>745.98</ele>
        <time>2023-09-03T09:06:20Z</time>
      </trkpt>
      <trkpt lat="46.53253" lon="6.02585">
        <ele>748.38</ele>
        <time>2023-09-03T09:06:35Z</time>
      </trkpt>
      <trkpt lat="46.53251" lon="6.02599">
        <ele>749.93</ele>
        <time>2023-09-03T09:06:53Z</time>
      </trkpt>
      <trkpt lat="46.53252" lon="6.02602">
        <ele>751.19</ele>
        <time>2023-09-03T09:06:56Z</time>
      </trkpt>
      <trkpt lat="46.53252" lon="6.02603">
        <ele>751.07</ele>
        <time>2023-09-03T09:06:59Z</time>
      </trkpt>
      <trkpt lat="46.53216" lon="6.0262">
        <ele>750.61</ele>
        <time>2023-09-03T09:07:14Z</time>
      </trkpt>
      <trkpt lat="46.53204" lon="6.02632">
        <ele>751.82</ele>
        <time>2023-09-03T09:07:33Z</time>
      </trkpt>
      <trkpt lat="46.5321" lon="6.0265">
        <ele>753.13</ele>
        <time>2023-09-03T09:07:51Z</time>
      </trkpt>
      <trkpt lat="46.53217" lon="6.02657">
        <ele>754.75</ele>
        <time>2023-09-03T09:08:02Z</time>
      </trkpt>
      <trkpt lat="46.5323" lon="6.02653">
        <ele>757.34</ele>
        <time>2023-09-03T09:08:20Z</time>
      </trkpt>
      <trkpt lat="46.53233" lon="6.02662">
        <ele>758</ele>
        <time>2023-09-03T09:08:34Z</time>
      </trkpt>
      <trkpt lat="46.53233" lon="6.02666">
        <ele>759.26</ele>
        <time>2023-09-03T09:08:37Z</time>
      </trkpt>
      <trkpt lat="46.53237" lon="6.02692">
        <ele>761.64</ele>
        <time>2023-09-03T09:08:59Z</time>
      </trkpt>
      <trkpt lat="46.53239" lon="6.02707">
        <ele>762.34</ele>
        <time>2023-09-03T09:09:11Z</time>
      </trkpt>
      <trkpt lat="46.53246" lon="6.02716">
        <ele>763.88</ele>
        <time>2023-09-03T09:09:18Z</time>
      </trkpt>
      <trkpt lat="46.53258" lon="6.02726">
        <ele>765.28</ele>
        <time>2023-09-03T09:09:33Z</time>
      </trkpt>
      <trkpt lat="46.5328" lon="6.02727">
        <ele>767.74</ele>
        <time>2023-09-03T09:09:51Z</time>
      </trkpt>
      <trkpt lat="46.53293" lon="6.02726">
        <ele>768.51</ele>
        <time>2023-09-03T09:10:05Z</time>
      </trkpt>
      <trkpt lat="46.53303" lon="6.02725">
        <ele>769.24</ele>
        <time>2023-09-03T09:10:16Z</time>
      </trkpt>
      <trkpt lat="46.53322" lon="6.02719">
        <ele>772.14</ele>
        <time>2023-09-03T09:10:39Z</time>
      </trkpt>
      <trkpt lat="46.53345" lon="6.02722">
        <ele>774.77</ele>
        <time>2023-09-03T09:11:01Z</time>
      </trkpt>
      <trkpt lat="46.53355" lon="6.02725">
        <ele>777.23</ele>
        <time>2023-09-03T09:11:15Z</time>
      </trkpt>
      <trkpt lat="46.53356" lon="6.02732">
        <ele>777.16</ele>
        <time>2023-09-03T09:11:27Z</time>
      </trkpt>
      <trkpt lat="46.53354" lon="6.02747">
        <ele>780.26</ele>
        <time>2023-09-03T09:11:45Z</time>
      </trkpt>
      <trkpt lat="46.53352" lon="6.0275">
        <ele>780.25</ele>
        <time>2023-09-03T09:11:49Z</time>
      </trkpt>
      <trkpt lat="46.53348" lon="6.02768">
        <ele>782.16</ele>
        <time>2023-09-03T09:12:04Z</time>
      </trkpt>
      <trkpt lat="46.53343" lon="6.02795">
        <ele>783.33</ele>
        <time>2023-09-03T09:12:17Z</time>
      </trkpt>
      <trkpt lat="46.53337" lon="6.02822">
        <ele>786.97</ele>
        <time>2023-09-03T09:12:38Z</time>
      </trkpt>
      <trkpt lat="46.5334" lon="6.02847">
        <ele>788.98</ele>
        <time>2023-09-03T09:12:53Z</time>
      </trkpt>
      <trkpt lat="46.53346" lon="6.02856">
        <ele>788.92</ele>
        <time>2023-09-03T09:13:08Z</time>
      </trkpt>
      <trkpt lat="46.53353" lon="6.02861">
        <ele>790.92</ele>
        <time>2023-09-03T09:13:18Z</time>
      </trkpt>
      <trkpt lat="46.53354" lon="6.02862">
        <ele>790.93</ele>
        <time>2023-09-03T09:13:20Z</time>
      </trkpt>
      <trkpt lat="46.53363" lon="6.02868">
        <ele>791.82</ele>
        <time>2023-09-03T09:13:30Z</time>
      </trkpt>
      <trkpt lat="46.53382" lon="6.02884">
        <ele>793.56</ele>
        <time>2023-09-03T09:13:49Z</time>
      </trkpt>
      <trkpt lat="46.53398" lon="6.02909">
        <ele>795.58</ele>
        <time>2023-09-03T09:14:09Z</time>
      </trkpt>
      <trkpt lat="46.53414" lon="6.02932">
        <ele>797.3</ele>
        <time>2023-09-03T09:14:32Z</time>
      </trkpt>
      <trkpt lat="46.53433" lon="6.02956">
        <ele>799.61</ele>
        <time>2023-09-03T09:14:57Z</time>
      </trkpt>
      <trkpt lat="46.53437" lon="6.02966">
        <ele>800.7</ele>
        <time>2023-09-03T09:15:04Z</time>
      </trkpt>
      <trkpt lat="46.5344" lon="6.0297">
        <ele>800.67</ele>
        <time>2023-09-03T09:15:07Z</time>
      </trkpt>
      <trkpt lat="46.53448" lon="6.02978">
        <ele>800.57</ele>
        <time>2023-09-03T09:15:18Z</time>
      </trkpt>
      <trkpt lat="46.5346" lon="6.0299">
        <ele>800.52</ele>
        <time>2023-09-03T09:15:27Z</time>
      </trkpt>
      <trkpt lat="46.53459" lon="6.03005">
        <ele>800.52</ele>
        <time>2023-09-03T09:15:33Z</time>
      </trkpt>
      <trkpt lat="46.53457" lon="6.03018">
        <ele>800.54</ele>
        <time>2023-09-03T09:15:36Z</time>
      </trkpt>
      <trkpt lat="46.53458" lon="6.03043">
        <ele>800.58</ele>
        <time>2023-09-03T09:15:50Z</time>
      </trkpt>
      <trkpt lat="46.53465" lon="6.03063">
        <ele>801.53</ele>
        <time>2023-09-03T09:16:05Z</time>
      </trkpt>
      <trkpt lat="46.53476" lon="6.03068">
        <ele>801.51</ele>
        <time>2023-09-03T09:16:15Z</time>
      </trkpt>
      <trkpt lat="46.53482" lon="6.0308">
        <ele>801.5</ele>
        <time>2023-09-03T09:16:24Z</time>
      </trkpt>
      <trkpt lat="46.53483" lon="6.03095">
        <ele>801.48</ele>
        <time>2023-09-03T09:16:31Z</time>
      </trkpt>
      <trkpt lat="46.53487" lon="6.0312">
        <ele>801.45</ele>
        <time>2023-09-03T09:16:45Z</time>
      </trkpt>
      <trkpt lat="46.53509" lon="6.0315">
        <ele>802.19</ele>
        <time>2023-09-03T09:17:07Z</time>
      </trkpt>
      <trkpt lat="46.53517" lon="6.03156">
        <ele>802.12</ele>
        <time>2023-09-03T09:17:17Z</time>
      </trkpt>
      <trkpt lat="46.53526" lon="6.03161">
        <ele>802.06</ele>
        <time>2023-09-03T09:17:29Z</time>
      </trkpt>
      <trkpt lat="46.53548" lon="6.03178">
        <ele>801.89</ele>
        <time>2023-09-03T09:17:51Z</time>
      </trkpt>
      <trkpt lat="46.53548" lon="6.03177">
        <ele>802.61</ele>
        <time>2023-09-03T09:18:01Z</time>
      </trkpt>
      <trkpt lat="46.53561" lon="6.03188">
        <ele>803.78</ele>
        <time>2023-09-03T09:18:09Z</time>
      </trkpt>
      <trkpt lat="46.5357" lon="6.03193">
        <ele>802.6</ele>
        <time>2023-09-03T09:18:13Z</time>
      </trkpt>
      <trkpt lat="46.53571" lon="6.03197">
        <ele>807.25</ele>
        <time>2023-09-03T09:18:15Z</time>
      </trkpt>
      <trkpt lat="46.53572" lon="6.032">
        <ele>803.98</ele>
        <time>2023-09-03T09:18:17Z</time>
      </trkpt>
      <trkpt lat="46.53593" lon="6.03238">
        <ele>806.7</ele>
        <time>2023-09-03T09:18:42Z</time>
      </trkpt>
      <trkpt lat="46.53604" lon="6.03263">
        <ele>808.51</ele>
        <time>2023-09-03T09:18:59Z</time>
      </trkpt>
      <trkpt lat="46.53625" lon="6.03283">
        <ele>809.66</ele>
        <time>2023-09-03T09:19:17Z</time>
      </trkpt>
      <trkpt lat="46.53628" lon="6.03284">
        <ele>811.23</ele>
        <time>2023-09-03T09:19:20Z</time>
      </trkpt>
      <trkpt lat="46.53641" lon="6.03296">
        <ele>811.4</ele>
        <time>2023-09-03T09:19:34Z</time>
      </trkpt>
      <trkpt lat="46.53654" lon="6.03321">
        <ele>811.58</ele>
        <time>2023-09-03T09:19:50Z</time>
      </trkpt>
      <trkpt lat="46.53666" lon="6.03348">
        <ele>811.73</ele>
        <time>2023-09-03T09:20:06Z</time>
      </trkpt>
      <trkpt lat="46.53674" lon="6.03371">
        <ele>811.82</ele>
        <time>2023-09-03T09:20:21Z</time>
      </trkpt>
      <trkpt lat="46.53679" lon="6.0339">
        <ele>811.87</ele>
        <time>2023-09-03T09:20:32Z</time>
      </trkpt>
      <trkpt lat="46.53687" lon="6.03421">
        <ele>811.95</ele>
        <time>2023-09-03T09:20:50Z</time>
      </trkpt>
      <trkpt lat="46.53693" lon="6.03447">
        <ele>812.92</ele>
        <time>2023-09-03T09:21:04Z</time>
      </trkpt>
      <trkpt lat="46.53703" lon="6.0347">
        <ele>813.72</ele>
        <time>2023-09-03T09:21:19Z</time>
      </trkpt>
      <trkpt lat="46.53718" lon="6.03494">
        <ele>814.48</ele>
        <time>2023-09-03T09:21:35Z</time>
      </trkpt>
      <trkpt lat="46.53733" lon="6.03514">
        <ele>815.41</ele>
        <time>2023-09-03T09:21:51Z</time>
      </trkpt>
      <trkpt lat="46.53748" lon="6.03531">
        <ele>815.37</ele>
        <time>2023-09-03T09:22:05Z</time>
      </trkpt>
      <trkpt lat="46.53766" lon="6.03549">
        <ele>812.91</ele>
        <time>2023-09-03T09:22:20Z</time>
      </trkpt>
      <trkpt lat="46.53782" lon="6.03576">
        <ele>812.15</ele>
        <time>2023-09-03T09:22:39Z</time>
      </trkpt>
      <trkpt lat="46.53788" lon="6.03604">
        <ele>812.18</ele>
        <time>2023-09-03T09:22:55Z</time>
      </trkpt>
      <trkpt lat="46.53795" lon="6.03636">
        <ele>811.35</ele>
        <time>2023-09-03T09:23:12Z</time>
      </trkpt>
      <trkpt lat="46.53802" lon="6.03653">
        <ele>810.55</ele>
        <time>2023-09-03T09:23:25Z</time>
      </trkpt>
      <trkpt lat="46.53807" lon="6.03665">
        <ele>810.59</ele>
        <time>2023-09-03T09:23:35Z</time>
      </trkpt>
      <trkpt lat="46.53835" lon="6.03694">
        <ele>809.69</ele>
        <time>2023-09-03T09:23:59Z</time>
      </trkpt>
      <trkpt lat="46.53849" lon="6.03711">
        <ele>808.93</ele>
        <time>2023-09-03T09:24:11Z</time>
      </trkpt>
      <trkpt lat="46.53852" lon="6.03715">
        <ele>808.93</ele>
        <time>2023-09-03T09:24:14Z</time>
      </trkpt>
      <trkpt lat="46.53855" lon="6.03723">
        <ele>808.93</ele>
        <time>2023-09-03T09:24:19Z</time>
      </trkpt>
      <trkpt lat="46.5386" lon="6.03741">
        <ele>808.94</ele>
        <time>2023-09-03T09:24:31Z</time>
      </trkpt>
      <trkpt lat="46.53866" lon="6.03753">
        <ele>808.92</ele>
        <time>2023-09-03T09:24:42Z</time>
      </trkpt>
      <trkpt lat="46.53872" lon="6.03774">
        <ele>811.13</ele>
        <time>2023-09-03T09:24:55Z</time>
      </trkpt>
      <trkpt lat="46.53881" lon="6.03808">
        <ele>812.92</ele>
        <time>2023-09-03T09:25:15Z</time>
      </trkpt>
      <trkpt lat="46.53898" lon="6.03837">
        <ele>814.38</ele>
        <time>2023-09-03T09:25:39Z</time>
      </trkpt>
      <trkpt lat="46.53914" lon="6.03866">
        <ele>816.59</ele>
        <time>2023-09-03T09:26:02Z</time>
      </trkpt>
      <trkpt lat="46.53921" lon="6.03878">
        <ele>817.45</ele>
        <time>2023-09-03T09:26:12Z</time>
      </trkpt>
      <trkpt lat="46.53948" lon="6.0391">
        <ele>818.82</ele>
        <time>2023-09-03T09:26:40Z</time>
      </trkpt>
      <trkpt lat="46.53968" lon="6.0393">
        <ele>820.46</ele>
        <time>2023-09-03T09:27:06Z</time>
      </trkpt>
      <trkpt lat="46.53987" lon="6.03951">
        <ele>821.93</ele>
        <time>2023-09-03T09:27:29Z</time>
      </trkpt>
      <trkpt lat="46.54" lon="6.0396">
        <ele>822.74</ele>
        <time>2023-09-03T09:27:46Z</time>
      </trkpt>
      <trkpt lat="46.54018" lon="6.03973">
        <ele>825.6</ele>
        <time>2023-09-03T09:28:04Z</time>
      </trkpt>
      <trkpt lat="46.54036" lon="6.03985">
        <ele>826.63</ele>
        <time>2023-09-03T09:28:22Z</time>
      </trkpt>
      <trkpt lat="46.5405" lon="6.03991">
        <ele>827.95</ele>
        <time>2023-09-03T09:28:38Z</time>
      </trkpt>
      <trkpt lat="46.54061" lon="6.03983">
        <ele>827.85</ele>
        <time>2023-09-03T09:28:51Z</time>
      </trkpt>
      <trkpt lat="46.54065" lon="6.03981">
        <ele>828.58</ele>
        <time>2023-09-03T09:28:55Z</time>
      </trkpt>
      <trkpt lat="46.54081" lon="6.03988">
        <ele>829.97</ele>
        <time>2023-09-03T09:29:11Z</time>
      </trkpt>
      <trkpt lat="46.54093" lon="6.04">
        <ele>832.37</ele>
        <time>2023-09-03T09:29:26Z</time>
      </trkpt>
      <trkpt lat="46.54101" lon="6.04008">
        <ele>834.47</ele>
        <time>2023-09-03T09:29:38Z</time>
      </trkpt>
      <trkpt lat="46.5411" lon="6.04019">
        <ele>836.28</ele>
        <time>2023-09-03T09:29:50Z</time>
      </trkpt>
      <trkpt lat="46.54121" lon="6.0403">
        <ele>838.19</ele>
        <time>2023-09-03T09:30:06Z</time>
      </trkpt>
      <trkpt lat="46.54129" lon="6.04033">
        <ele>838.02</ele>
        <time>2023-09-03T09:30:16Z</time>
      </trkpt>
      <trkpt lat="46.54144" lon="6.04046">
        <ele>838.82</ele>
        <time>2023-09-03T09:30:32Z</time>
      </trkpt>
      <trkpt lat="46.54166" lon="6.04075">
        <ele>839.95</ele>
        <time>2023-09-03T09:30:56Z</time>
      </trkpt>
      <trkpt lat="46.54178" lon="6.04098">
        <ele>840.49</ele>
        <time>2023-09-03T09:31:11Z</time>
      </trkpt>
      <trkpt lat="46.5419" lon="6.04124">
        <ele>840.14</ele>
        <time>2023-09-03T09:31:27Z</time>
      </trkpt>
      <trkpt lat="46.54193" lon="6.04133">
        <ele>840.07</ele>
        <time>2023-09-03T09:31:32Z</time>
      </trkpt>
      <trkpt lat="46.54198" lon="6.04148">
        <ele>839.86</ele>
        <time>2023-09-03T09:31:42Z</time>
      </trkpt>
      <trkpt lat="46.542" lon="6.04152">
        <ele>839.74</ele>
        <time>2023-09-03T09:31:45Z</time>
      </trkpt>
      <trkpt lat="46.54214" lon="6.0418">
        <ele>839.41</ele>
        <time>2023-09-03T09:32:02Z</time>
      </trkpt>
      <trkpt lat="46.54216" lon="6.04183">
        <ele>839.36</ele>
        <time>2023-09-03T09:32:04Z</time>
      </trkpt>
      <trkpt lat="46.54233" lon="6.04209">
        <ele>838.97</ele>
        <time>2023-09-03T09:32:23Z</time>
      </trkpt>
      <trkpt lat="46.54236" lon="6.04212">
        <ele>838.88</ele>
        <time>2023-09-03T09:32:26Z</time>
      </trkpt>
      <trkpt lat="46.54239" lon="6.04215">
        <ele>838.81</ele>
        <time>2023-09-03T09:32:29Z</time>
      </trkpt>
      <trkpt lat="46.54242" lon="6.04216">
        <ele>838.78</ele>
        <time>2023-09-03T09:32:31Z</time>
      </trkpt>
      <trkpt lat="46.54256" lon="6.04228">
        <ele>836.22</ele>
        <time>2023-09-03T09:32:43Z</time>
      </trkpt>
      <trkpt lat="46.5427" lon="6.04243">
        <ele>834.97</ele>
        <time>2023-09-03T09:32:58Z</time>
      </trkpt>
      <trkpt lat="46.54276" lon="6.04251">
        <ele>833.62</ele>
        <time>2023-09-03T09:33:05Z</time>
      </trkpt>
      <trkpt lat="46.54284" lon="6.04269">
        <ele>831.5</ele>
        <time>2023-09-03T09:33:20Z</time>
      </trkpt>
      <trkpt lat="46.54288" lon="6.04282">
        <ele>831.33</ele>
        <time>2023-09-03T09:33:27Z</time>
      </trkpt>
      <trkpt lat="46.54295" lon="6.04292">
        <ele>830.46</ele>
        <time>2023-09-03T09:33:37Z</time>
      </trkpt>
      <trkpt lat="46.54306" lon="6.04289">
        <ele>829.29</ele>
        <time>2023-09-03T09:33:44Z</time>
      </trkpt>
      <trkpt lat="46.54314" lon="6.0429">
        <ele>828.17</ele>
        <time>2023-09-03T09:33:54Z</time>
      </trkpt>
      <trkpt lat="46.5432" lon="6.04296">
        <ele>828.05</ele>
        <time>2023-09-03T09:33:58Z</time>
      </trkpt>
      <trkpt lat="46.54324" lon="6.04303">
        <ele>827.17</ele>
        <time>2023-09-03T09:34:03Z</time>
      </trkpt>
      <trkpt lat="46.54338" lon="6.04321">
        <ele>826.85</ele>
        <time>2023-09-03T09:34:19Z</time>
      </trkpt>
      <trkpt lat="46.54339" lon="6.04322">
        <ele>826.8</ele>
        <time>2023-09-03T09:34:21Z</time>
      </trkpt>
      <trkpt lat="46.54349" lon="6.04338">
        <ele>826.41</ele>
        <time>2023-09-03T09:34:35Z</time>
      </trkpt>
      <trkpt lat="46.54353" lon="6.04347">
        <ele>828.89</ele>
        <time>2023-09-03T09:34:43Z</time>
      </trkpt>
      <trkpt lat="46.54369" lon="6.04363">
        <ele>829.01</ele>
        <time>2023-09-03T09:35:02Z</time>
      </trkpt>
      <trkpt lat="46.54379" lon="6.04366">
        <ele>828.66</ele>
        <time>2023-09-03T09:35:14Z</time>
      </trkpt>
      <trkpt lat="46.54379" lon="6.04367">
        <ele>828.67</ele>
        <time>2023-09-03T09:35:15Z</time>
      </trkpt>
      <trkpt lat="46.54388" lon="6.04372">
        <ele>828.25</ele>
        <time>2023-09-03T09:35:30Z</time>
      </trkpt>
      <trkpt lat="46.54393" lon="6.04382">
        <ele>827.55</ele>
        <time>2023-09-03T09:35:48Z</time>
      </trkpt>
      <trkpt lat="46.54395" lon="6.04388">
        <ele>827.27</ele>
        <time>2023-09-03T09:35:56Z</time>
      </trkpt>
      <trkpt lat="46.54393" lon="6.04393">
        <ele>824.31</ele>
        <time>2023-09-03T09:36:05Z</time>
      </trkpt>
      <trkpt lat="46.54391" lon="6.04395">
        <ele>823.98</ele>
        <time>2023-09-03T09:36:13Z</time>
      </trkpt>
      <trkpt lat="46.54406" lon="6.0441">
        <ele>825.41</ele>
        <time>2023-09-03T09:36:36Z</time>
      </trkpt>
      <trkpt lat="46.54407" lon="6.0441">
        <ele>825.5</ele>
        <time>2023-09-03T09:36:37Z</time>
      </trkpt>
      <trkpt lat="46.54418" lon="6.04415">
        <ele>825.12</ele>
        <time>2023-09-03T09:36:43Z</time>
      </trkpt>
      <trkpt lat="46.54429" lon="6.0441">
        <ele>826.54</ele>
        <time>2023-09-03T09:36:55Z</time>
      </trkpt>
      <trkpt lat="46.54431" lon="6.04408">
        <ele>826.47</ele>
        <time>2023-09-03T09:36:57Z</time>
      </trkpt>
      <trkpt lat="46.54438" lon="6.04405">
        <ele>828.01</ele>
        <time>2023-09-03T09:37:07Z</time>
      </trkpt>
      <trkpt lat="46.54447" lon="6.04401">
        <ele>829.31</ele>
        <time>2023-09-03T09:37:17Z</time>
      </trkpt>
      <trkpt lat="46.54448" lon="6.04401">
        <ele>829.18</ele>
        <time>2023-09-03T09:37:19Z</time>
      </trkpt>
      <trkpt lat="46.54456" lon="6.04395">
        <ele>829.55</ele>
        <time>2023-09-03T09:37:28Z</time>
      </trkpt>
      <trkpt lat="46.54457" lon="6.04395">
        <ele>829.57</ele>
        <time>2023-09-03T09:37:30Z</time>
      </trkpt>
      <trkpt lat="46.54478" lon="6.0439">
        <ele>829.52</ele>
        <time>2023-09-03T09:37:44Z</time>
      </trkpt>
      <trkpt lat="46.54487" lon="6.04388">
        <ele>830.33</ele>
        <time>2023-09-03T09:37:52Z</time>
      </trkpt>
      <trkpt lat="46.54488" lon="6.04386">
        <ele>830.15</ele>
        <time>2023-09-03T09:37:55Z</time>
      </trkpt>
      <trkpt lat="46.54496" lon="6.04374">
        <ele>830.23</ele>
        <time>2023-09-03T09:38:06Z</time>
      </trkpt>
      <trkpt lat="46.5452" lon="6.04346">
        <ele>826.85</ele>
        <time>2023-09-03T09:38:36Z</time>
      </trkpt>
      <trkpt lat="46.54523" lon="6.04347">
        <ele>826.85</ele>
        <time>2023-09-03T09:38:37Z</time>
      </trkpt>
      <trkpt lat="46.54547" lon="6.04345">
        <ele>826.12</ele>
        <time>2023-09-03T09:38:49Z</time>
      </trkpt>
      <trkpt lat="46.54562" lon="6.04339">
        <ele>825.38</ele>
        <time>2023-09-03T09:39:01Z</time>
      </trkpt>
      <trkpt lat="46.54565" lon="6.04339">
        <ele>828.47</ele>
        <time>2023-09-03T09:39:03Z</time>
      </trkpt>
      <trkpt lat="46.54565" lon="6.04339">
        <ele>828.36</ele>
        <time>2023-09-03T09:39:04Z</time>
      </trkpt>
      <trkpt lat="46.54579" lon="6.04341">
        <ele>829.67</ele>
        <time>2023-09-03T09:39:12Z</time>
      </trkpt>
      <trkpt lat="46.54591" lon="6.04352">
        <ele>832.58</ele>
        <time>2023-09-03T09:39:28Z</time>
      </trkpt>
      <trkpt lat="46.54598" lon="6.04365">
        <ele>833.62</ele>
        <time>2023-09-03T09:39:40Z</time>
      </trkpt>
      <trkpt lat="46.54599" lon="6.04367">
        <ele>833.47</ele>
        <time>2023-09-03T09:39:42Z</time>
      </trkpt>
      <trkpt lat="46.54603" lon="6.04375">
        <ele>832.89</ele>
        <time>2023-09-03T09:39:49Z</time>
      </trkpt>
      <trkpt lat="46.54608" lon="6.04386">
        <ele>833.39</ele>
        <time>2023-09-03T09:39:57Z</time>
      </trkpt>
      <trkpt lat="46.54612" lon="6.04396">
        <ele>834.58</ele>
        <time>2023-09-03T09:40:07Z</time>
      </trkpt>
      <trkpt lat="46.5461" lon="6.04385">
        <ele>835.4</ele>
        <time>2023-09-03T09:40:21Z</time>
      </trkpt>
      <trkpt lat="46.54611" lon="6.04379">
        <ele>836.28</ele>
        <time>2023-09-03T09:40:25Z</time>
      </trkpt>
      <trkpt lat="46.54644" lon="6.04356">
        <ele>837.18</ele>
        <time>2023-09-03T09:40:50Z</time>
      </trkpt>
      <trkpt lat="46.54701" lon="6.04352">
        <ele>839.16</ele>
        <time>2023-09-03T09:41:08Z</time>
      </trkpt>
      <trkpt lat="46.54703" lon="6.04351">
        <ele>839.13</ele>
        <time>2023-09-03T09:41:10Z</time>
      </trkpt>
      <trkpt lat="46.54705" lon="6.04342">
        <ele>839.72</ele>
        <time>2023-09-03T09:41:18Z</time>
      </trkpt>
      <trkpt lat="46.54705" lon="6.04337">
        <ele>840.46</ele>
        <time>2023-09-03T09:41:25Z</time>
      </trkpt>
      <trkpt lat="46.54687" lon="6.04325">
        <ele>842.21</ele>
        <time>2023-09-03T09:41:55Z</time>
      </trkpt>
      <trkpt lat="46.54685" lon="6.0432">
        <ele>843.01</ele>
        <time>2023-09-03T09:42:03Z</time>
      </trkpt>
      <trkpt lat="46.54664" lon="6.04299">
        <ele>846.29</ele>
        <time>2023-09-03T09:42:18Z</time>
      </trkpt>
      <trkpt lat="46.54659" lon="6.04293">
        <ele>846.2</ele>
        <time>2023-09-03T09:42:19Z</time>
      </trkpt>
      <trkpt lat="46.54659" lon="6.04291">
        <ele>846.2</ele>
        <time>2023-09-03T09:42:20Z</time>
      </trkpt>
      <trkpt lat="46.54651" lon="6.04277">
        <ele>847.63</ele>
        <time>2023-09-03T09:42:25Z</time>
      </trkpt>
      <trkpt lat="46.54647" lon="6.04267">
        <ele>847.67</ele>
        <time>2023-09-03T09:42:29Z</time>
      </trkpt>
      <trkpt lat="46.54647" lon="6.0426">
        <ele>849.08</ele>
        <time>2023-09-03T09:42:32Z</time>
      </trkpt>
      <trkpt lat="46.54647" lon="6.04259">
        <ele>849.1</ele>
        <time>2023-09-03T09:42:33Z</time>
      </trkpt>
      <trkpt lat="46.54643" lon="6.04246">
        <ele>848.94</ele>
        <time>2023-09-03T09:42:37Z</time>
      </trkpt>
      <trkpt lat="46.54642" lon="6.04241">
        <ele>849.9</ele>
        <time>2023-09-03T09:42:39Z</time>
      </trkpt>
      <trkpt lat="46.54639" lon="6.04229">
        <ele>849.99</ele>
        <time>2023-09-03T09:42:44Z</time>
      </trkpt>
      <trkpt lat="46.54637" lon="6.04224">
        <ele>850.04</ele>
        <time>2023-09-03T09:42:46Z</time>
      </trkpt>
      <trkpt lat="46.54629" lon="6.04211">
        <ele>852.13</ele>
        <time>2023-09-03T09:42:54Z</time>
      </trkpt>
      <trkpt lat="46.54623" lon="6.042">
        <ele>855.01</ele>
        <time>2023-09-03T09:43:18Z</time>
      </trkpt>
      <trkpt lat="46.54616" lon="6.04194">
        <ele>855.14</ele>
        <time>2023-09-03T09:43:23Z</time>
      </trkpt>
      <trkpt lat="46.54601" lon="6.04181">
        <ele>855.15</ele>
        <time>2023-09-03T09:43:30Z</time>
      </trkpt>
      <trkpt lat="46.54595" lon="6.04176">
        <ele>855.32</ele>
        <time>2023-09-03T09:43:34Z</time>
      </trkpt>
      <trkpt lat="46.54578" lon="6.04171">
        <ele>856.54</ele>
        <time>2023-09-03T09:43:49Z</time>
      </trkpt>
      <trkpt lat="46.54565" lon="6.0416">
        <ele>856.56</ele>
        <time>2023-09-03T09:44:00Z</time>
      </trkpt>
      <trkpt lat="46.54533" lon="6.04135">
        <ele>856.66</ele>
        <time>2023-09-03T09:44:16Z</time>
      </trkpt>
      <trkpt lat="46.5453" lon="6.04128">
        <ele>856.74</ele>
        <time>2023-09-03T09:44:20Z</time>
      </trkpt>
      <trkpt lat="46.54524" lon="6.0412">
        <ele>854.39</ele>
        <time>2023-09-03T09:44:26Z</time>
      </trkpt>
      <trkpt lat="46.5452" lon="6.04114">
        <ele>854.46</ele>
        <time>2023-09-03T09:44:30Z</time>
      </trkpt>
      <trkpt lat="46.54492" lon="6.0407">
        <ele>852.04</ele>
        <time>2023-09-03T09:44:54Z</time>
      </trkpt>
      <trkpt lat="46.54476" lon="6.04023">
        <ele>851.23</ele>
        <time>2023-09-03T09:45:11Z</time>
      </trkpt>
      <trkpt lat="46.54464" lon="6.03984">
        <ele>851.38</ele>
        <time>2023-09-03T09:45:19Z</time>
      </trkpt>
      <trkpt lat="46.54463" lon="6.03981">
        <ele>851.38</ele>
        <time>2023-09-03T09:45:20Z</time>
      </trkpt>
      <trkpt lat="46.54462" lon="6.03975">
        <ele>851.43</ele>
        <time>2023-09-03T09:45:22Z</time>
      </trkpt>
      <trkpt lat="46.54462" lon="6.03972">
        <ele>851.46</ele>
        <time>2023-09-03T09:45:23Z</time>
      </trkpt>
      <trkpt lat="46.5446" lon="6.03959">
        <ele>851.56</ele>
        <time>2023-09-03T09:45:28Z</time>
      </trkpt>
      <trkpt lat="46.5446" lon="6.03956">
        <ele>851.57</ele>
        <time>2023-09-03T09:45:29Z</time>
      </trkpt>
      <trkpt lat="46.54458" lon="6.03954">
        <ele>851.58</ele>
        <time>2023-09-03T09:45:30Z</time>
      </trkpt>
      <trkpt lat="46.54457" lon="6.03952">
        <ele>851.59</ele>
        <time>2023-09-03T09:45:31Z</time>
      </trkpt>
      <trkpt lat="46.54456" lon="6.03951">
        <ele>851.6</ele>
        <time>2023-09-03T09:45:32Z</time>
      </trkpt>
      <trkpt lat="46.54455" lon="6.03948">
        <ele>851.58</ele>
        <time>2023-09-03T09:45:33Z</time>
      </trkpt>
      <trkpt lat="46.54454" lon="6.03946">
        <ele>851.59</ele>
        <time>2023-09-03T09:45:34Z</time>
      </trkpt>
      <trkpt lat="46.54453" lon="6.03944">
        <ele>851.6</ele>
        <time>2023-09-03T09:45:35Z</time>
      </trkpt>
      <trkpt lat="46.54452" lon="6.03942">
        <ele>851.61</ele>
        <time>2023-09-03T09:45:36Z</time>
      </trkpt>
      <trkpt lat="46.54452" lon="6.0394">
        <ele>851.62</ele>
        <time>2023-09-03T09:45:37Z</time>
      </trkpt>
      <trkpt lat="46.54451" lon="6.03938">
        <ele>851.62</ele>
        <time>2023-09-03T09:45:38Z</time>
      </trkpt>
      <trkpt lat="46.5445" lon="6.03936">
        <ele>851.62</ele>
        <time>2023-09-03T09:45:39Z</time>
      </trkpt>
      <trkpt lat="46.54434" lon="6.03915">
        <ele>851.69</ele>
        <time>2023-09-03T09:45:50Z</time>
      </trkpt>
      <trkpt lat="46.54419" lon="6.03888">
        <ele>851.04</ele>
        <time>2023-09-03T09:46:03Z</time>
      </trkpt>
      <trkpt lat="46.54406" lon="6.03857">
        <ele>851.19</ele>
        <time>2023-09-03T09:46:16Z</time>
      </trkpt>
      <trkpt lat="46.54406" lon="6.03833">
        <ele>851.2</ele>
        <time>2023-09-03T09:46:30Z</time>
      </trkpt>
      <trkpt lat="46.54406" lon="6.03813">
        <ele>851.28</ele>
        <time>2023-09-03T09:46:40Z</time>
      </trkpt>
      <trkpt lat="46.54406" lon="6.03811">
        <ele>851.29</ele>
        <time>2023-09-03T09:46:41Z</time>
      </trkpt>
      <trkpt lat="46.54405" lon="6.03809">
        <ele>851.34</ele>
        <time>2023-09-03T09:46:42Z</time>
      </trkpt>
      <trkpt lat="46.54405" lon="6.03807">
        <ele>851.31</ele>
        <time>2023-09-03T09:46:43Z</time>
      </trkpt>
      <trkpt lat="46.54405" lon="6.03805">
        <ele>851.36</ele>
        <time>2023-09-03T09:46:44Z</time>
      </trkpt>
      <trkpt lat="46.54403" lon="6.03796">
        <ele>851.43</ele>
        <time>2023-09-03T09:46:49Z</time>
      </trkpt>
      <trkpt lat="46.54403" lon="6.03794">
        <ele>851.44</ele>
        <time>2023-09-03T09:46:50Z</time>
      </trkpt>
      <trkpt lat="46.54402" lon="6.03792">
        <ele>851.45</ele>
        <time>2023-09-03T09:46:51Z</time>
      </trkpt>
      <trkpt lat="46.54402" lon="6.03791">
        <ele>851.52</ele>
        <time>2023-09-03T09:46:52Z</time>
      </trkpt>
      <trkpt lat="46.54401" lon="6.03789">
        <ele>851.51</ele>
        <time>2023-09-03T09:46:53Z</time>
      </trkpt>
      <trkpt lat="46.54401" lon="6.03787">
        <ele>851.57</ele>
        <time>2023-09-03T09:46:54Z</time>
      </trkpt>
      <trkpt lat="46.54399" lon="6.03781">
        <ele>853.94</ele>
        <time>2023-09-03T09:46:57Z</time>
      </trkpt>
      <trkpt lat="46.54397" lon="6.03766">
        <ele>854.01</ele>
        <time>2023-09-03T09:47:04Z</time>
      </trkpt>
      <trkpt lat="46.54397" lon="6.03764">
        <ele>853.98</ele>
        <time>2023-09-03T09:47:05Z</time>
      </trkpt>
      <trkpt lat="46.54393" lon="6.03743">
        <ele>854.83</ele>
        <time>2023-09-03T09:47:18Z</time>
      </trkpt>
      <trkpt lat="46.54389" lon="6.03729">
        <ele>854.9</ele>
        <time>2023-09-03T09:47:24Z</time>
      </trkpt>
      <trkpt lat="46.54388" lon="6.03725">
        <ele>854.91</ele>
        <time>2023-09-03T09:47:25Z</time>
      </trkpt>
      <trkpt lat="46.54387" lon="6.03722">
        <ele>854.92</ele>
        <time>2023-09-03T09:47:26Z</time>
      </trkpt>
      <trkpt lat="46.54374" lon="6.03683">
        <ele>857.48</ele>
        <time>2023-09-03T09:47:38Z</time>
      </trkpt>
      <trkpt lat="46.54373" lon="6.03679">
        <ele>857.47</ele>
        <time>2023-09-03T09:47:40Z</time>
      </trkpt>
      <trkpt lat="46.54372" lon="6.03676">
        <ele>857.53</ele>
        <time>2023-09-03T09:47:41Z</time>
      </trkpt>
      <trkpt lat="46.54372" lon="6.03675">
        <ele>857.5</ele>
        <time>2023-09-03T09:47:42Z</time>
      </trkpt>
      <trkpt lat="46.54374" lon="6.03672">
        <ele>857.52</ele>
        <time>2023-09-03T09:47:43Z</time>
      </trkpt>
      <trkpt lat="46.54375" lon="6.03671">
        <ele>858.3</ele>
        <time>2023-09-03T09:47:44Z</time>
      </trkpt>
      <trkpt lat="46.54381" lon="6.03647">
        <ele>859.42</ele>
        <time>2023-09-03T09:47:58Z</time>
      </trkpt>
      <trkpt lat="46.54384" lon="6.03631">
        <ele>861.29</ele>
        <time>2023-09-03T09:48:08Z</time>
      </trkpt>
      <trkpt lat="46.54383" lon="6.0363">
        <ele>861.18</ele>
        <time>2023-09-03T09:48:09Z</time>
      </trkpt>
      <trkpt lat="46.54383" lon="6.03605">
        <ele>863.51</ele>
        <time>2023-09-03T09:48:27Z</time>
      </trkpt>
      <trkpt lat="46.54378" lon="6.03567">
        <ele>866.2</ele>
        <time>2023-09-03T09:48:43Z</time>
      </trkpt>
      <trkpt lat="46.54376" lon="6.03543">
        <ele>867.85</ele>
        <time>2023-09-03T09:48:55Z</time>
      </trkpt>
      <trkpt lat="46.54371" lon="6.03507">
        <ele>869.44</ele>
        <time>2023-09-03T09:49:10Z</time>
      </trkpt>
      <trkpt lat="46.54371" lon="6.03504">
        <ele>869.5</ele>
        <time>2023-09-03T09:49:11Z</time>
      </trkpt>
      <trkpt lat="46.54368" lon="6.0345">
        <ele>871.56</ele>
        <time>2023-09-03T09:49:33Z</time>
      </trkpt>
      <trkpt lat="46.54366" lon="6.03439">
        <ele>872.3</ele>
        <time>2023-09-03T09:49:38Z</time>
      </trkpt>
      <trkpt lat="46.54365" lon="6.03434">
        <ele>873.17</ele>
        <time>2023-09-03T09:49:41Z</time>
      </trkpt>
      <trkpt lat="46.54364" lon="6.03431">
        <ele>873.14</ele>
        <time>2023-09-03T09:49:42Z</time>
      </trkpt>
      <trkpt lat="46.54362" lon="6.03422">
        <ele>873.8</ele>
        <time>2023-09-03T09:49:47Z</time>
      </trkpt>
      <trkpt lat="46.54362" lon="6.03417">
        <ele>873.94</ele>
        <time>2023-09-03T09:49:49Z</time>
      </trkpt>
      <trkpt lat="46.54362" lon="6.03397">
        <ele>874.7</ele>
        <time>2023-09-03T09:50:01Z</time>
      </trkpt>
      <trkpt lat="46.54359" lon="6.03371">
        <ele>876.54</ele>
        <time>2023-09-03T09:50:13Z</time>
      </trkpt>
      <trkpt lat="46.54358" lon="6.03368">
        <ele>877.37</ele>
        <time>2023-09-03T09:50:14Z</time>
      </trkpt>
      <trkpt lat="46.54357" lon="6.03364">
        <ele>877.38</ele>
        <time>2023-09-03T09:50:15Z</time>
      </trkpt>
      <trkpt lat="46.54356" lon="6.03362">
        <ele>877.38</ele>
        <time>2023-09-03T09:50:16Z</time>
      </trkpt>
      <trkpt lat="46.54355" lon="6.03359">
        <ele>877.31</ele>
        <time>2023-09-03T09:50:17Z</time>
      </trkpt>
      <trkpt lat="46.5435" lon="6.03349">
        <ele>878.28</ele>
        <time>2023-09-03T09:50:22Z</time>
      </trkpt>
      <trkpt lat="46.54349" lon="6.03346">
        <ele>878.32</ele>
        <time>2023-09-03T09:50:23Z</time>
      </trkpt>
      <trkpt lat="46.54346" lon="6.03335">
        <ele>879.33</ele>
        <time>2023-09-03T09:50:28Z</time>
      </trkpt>
      <trkpt lat="46.54343" lon="6.03324">
        <ele>880.33</ele>
        <time>2023-09-03T09:50:33Z</time>
      </trkpt>
      <trkpt lat="46.54342" lon="6.03316">
        <ele>880.25</ele>
        <time>2023-09-03T09:50:36Z</time>
      </trkpt>
      <trkpt lat="46.54342" lon="6.03314">
        <ele>880.33</ele>
        <time>2023-09-03T09:50:37Z</time>
      </trkpt>
      <trkpt lat="46.54341" lon="6.03307">
        <ele>881.66</ele>
        <time>2023-09-03T09:50:40Z</time>
      </trkpt>
      <trkpt lat="46.54334" lon="6.0328">
        <ele>882.33</ele>
        <time>2023-09-03T09:50:50Z</time>
      </trkpt>
      <trkpt lat="46.5433" lon="6.03266">
        <ele>884.22</ele>
        <time>2023-09-03T09:50:56Z</time>
      </trkpt>
      <trkpt lat="46.54329" lon="6.03264">
        <ele>884.23</ele>
        <time>2023-09-03T09:50:57Z</time>
      </trkpt>
      <trkpt lat="46.54329" lon="6.03261">
        <ele>884.22</ele>
        <time>2023-09-03T09:50:58Z</time>
      </trkpt>
      <trkpt lat="46.54321" lon="6.03231">
        <ele>886.05</ele>
        <time>2023-09-03T09:51:10Z</time>
      </trkpt>
      <trkpt lat="46.5432" lon="6.03228">
        <ele>886.05</ele>
        <time>2023-09-03T09:51:11Z</time>
      </trkpt>
      <trkpt lat="46.5432" lon="6.03226">
        <ele>887.22</ele>
        <time>2023-09-03T09:51:12Z</time>
      </trkpt>
      <trkpt lat="46.54317" lon="6.032">
        <ele>889.04</ele>
        <time>2023-09-03T09:51:27Z</time>
      </trkpt>
      <trkpt lat="46.54316" lon="6.03189">
        <ele>890.01</ele>
        <time>2023-09-03T09:51:32Z</time>
      </trkpt>
      <trkpt lat="46.54315" lon="6.03187">
        <ele>890.12</ele>
        <time>2023-09-03T09:51:33Z</time>
      </trkpt>
      <trkpt lat="46.54313" lon="6.0317">
        <ele>893.2</ele>
        <time>2023-09-03T09:51:45Z</time>
      </trkpt>
      <trkpt lat="46.54307" lon="6.03149">
        <ele>895.43</ele>
        <time>2023-09-03T09:51:57Z</time>
      </trkpt>
      <trkpt lat="46.54303" lon="6.03136">
        <ele>896.61</ele>
        <time>2023-09-03T09:52:07Z</time>
      </trkpt>
      <trkpt lat="46.54299" lon="6.03118">
        <ele>898.19</ele>
        <time>2023-09-03T09:52:17Z</time>
      </trkpt>
      <trkpt lat="46.54296" lon="6.0311">
        <ele>899.65</ele>
        <time>2023-09-03T09:52:21Z</time>
      </trkpt>
      <trkpt lat="46.54295" lon="6.03108">
        <ele>899.73</ele>
        <time>2023-09-03T09:52:22Z</time>
      </trkpt>
      <trkpt lat="46.54284" lon="6.03082">
        <ele>902.35</ele>
        <time>2023-09-03T09:52:38Z</time>
      </trkpt>
      <trkpt lat="46.54283" lon="6.03074">
        <ele>903.4</ele>
        <time>2023-09-03T09:52:43Z</time>
      </trkpt>
      <trkpt lat="46.5428" lon="6.03063">
        <ele>903.4</ele>
        <time>2023-09-03T09:52:49Z</time>
      </trkpt>
      <trkpt lat="46.54277" lon="6.03047">
        <ele>905.26</ele>
        <time>2023-09-03T09:52:58Z</time>
      </trkpt>
      <trkpt lat="46.54274" lon="6.03032">
        <ele>906.55</ele>
        <time>2023-09-03T09:53:05Z</time>
      </trkpt>
      <trkpt lat="46.54267" lon="6.03012">
        <ele>908.28</ele>
        <time>2023-09-03T09:53:18Z</time>
      </trkpt>
      <trkpt lat="46.54263" lon="6.02998">
        <ele>909.14</ele>
        <time>2023-09-03T09:53:24Z</time>
      </trkpt>
      <trkpt lat="46.54262" lon="6.02992">
        <ele>910.3</ele>
        <time>2023-09-03T09:53:26Z</time>
      </trkpt>
      <trkpt lat="46.54261" lon="6.02991">
        <ele>910.45</ele>
        <time>2023-09-03T09:53:27Z</time>
      </trkpt>
      <trkpt lat="46.54258" lon="6.02982">
        <ele>911.67</ele>
        <time>2023-09-03T09:53:31Z</time>
      </trkpt>
      <trkpt lat="46.54256" lon="6.02978">
        <ele>911.57</ele>
        <time>2023-09-03T09:53:33Z</time>
      </trkpt>
      <trkpt lat="46.54255" lon="6.02976">
        <ele>911.64</ele>
        <time>2023-09-03T09:53:34Z</time>
      </trkpt>
      <trkpt lat="46.54254" lon="6.02974">
        <ele>911.64</ele>
        <time>2023-09-03T09:53:35Z</time>
      </trkpt>
      <trkpt lat="46.54245" lon="6.02952">
        <ele>912.82</ele>
        <time>2023-09-03T09:53:48Z</time>
      </trkpt>
      <trkpt lat="46.54244" lon="6.02949">
        <ele>914.37</ele>
        <time>2023-09-03T09:53:50Z</time>
      </trkpt>
      <trkpt lat="46.54236" lon="6.02926">
        <ele>916.14</ele>
        <time>2023-09-03T09:54:01Z</time>
      </trkpt>
      <trkpt lat="46.54235" lon="6.02924">
        <ele>916.18</ele>
        <time>2023-09-03T09:54:02Z</time>
      </trkpt>
      <trkpt lat="46.54225" lon="6.02898">
        <ele>918.37</ele>
        <time>2023-09-03T09:54:19Z</time>
      </trkpt>
      <trkpt lat="46.54217" lon="6.02881">
        <ele>920.47</ele>
        <time>2023-09-03T09:54:29Z</time>
      </trkpt>
      <trkpt lat="46.54207" lon="6.02866">
        <ele>922.77</ele>
        <time>2023-09-03T09:54:39Z</time>
      </trkpt>
      <trkpt lat="46.54195" lon="6.02838">
        <ele>925.92</ele>
        <time>2023-09-03T09:54:55Z</time>
      </trkpt>
      <trkpt lat="46.54192" lon="6.02834">
        <ele>925.96</ele>
        <time>2023-09-03T09:54:57Z</time>
      </trkpt>
      <trkpt lat="46.5419" lon="6.02832">
        <ele>925.96</ele>
        <time>2023-09-03T09:54:58Z</time>
      </trkpt>
      <trkpt lat="46.54188" lon="6.02828">
        <ele>926.79</ele>
        <time>2023-09-03T09:55:00Z</time>
      </trkpt>
      <trkpt lat="46.54187" lon="6.02827">
        <ele>926.84</ele>
        <time>2023-09-03T09:55:01Z</time>
      </trkpt>
      <trkpt lat="46.54183" lon="6.02818">
        <ele>928.1</ele>
        <time>2023-09-03T09:55:07Z</time>
      </trkpt>
      <trkpt lat="46.54182" lon="6.02815">
        <ele>928.14</ele>
        <time>2023-09-03T09:55:09Z</time>
      </trkpt>
      <trkpt lat="46.54181" lon="6.02814">
        <ele>928.91</ele>
        <time>2023-09-03T09:55:10Z</time>
      </trkpt>
      <trkpt lat="46.54173" lon="6.02793">
        <ele>930.01</ele>
        <time>2023-09-03T09:55:24Z</time>
      </trkpt>
      <trkpt lat="46.54169" lon="6.0276">
        <ele>933.02</ele>
        <time>2023-09-03T09:55:42Z</time>
      </trkpt>
      <trkpt lat="46.54164" lon="6.02739">
        <ele>935.26</ele>
        <time>2023-09-03T09:55:52Z</time>
      </trkpt>
      <trkpt lat="46.54156" lon="6.02713">
        <ele>937.69</ele>
        <time>2023-09-03T09:56:03Z</time>
      </trkpt>
      <trkpt lat="46.54154" lon="6.02703">
        <ele>938.63</ele>
        <time>2023-09-03T09:56:08Z</time>
      </trkpt>
      <trkpt lat="46.54154" lon="6.02701">
        <ele>938.64</ele>
        <time>2023-09-03T09:56:09Z</time>
      </trkpt>
      <trkpt lat="46.54154" lon="6.02699">
        <ele>938.57</ele>
        <time>2023-09-03T09:56:10Z</time>
      </trkpt>
      <trkpt lat="46.54153" lon="6.02697">
        <ele>938.6</ele>
        <time>2023-09-03T09:56:11Z</time>
      </trkpt>
      <trkpt lat="46.54153" lon="6.02695">
        <ele>938.56</ele>
        <time>2023-09-03T09:56:12Z</time>
      </trkpt>
      <trkpt lat="46.54153" lon="6.02692">
        <ele>938.6</ele>
        <time>2023-09-03T09:56:13Z</time>
      </trkpt>
      <trkpt lat="46.54153" lon="6.02691">
        <ele>938.59</ele>
        <time>2023-09-03T09:56:14Z</time>
      </trkpt>
      <trkpt lat="46.54153" lon="6.02689">
        <ele>938.65</ele>
        <time>2023-09-03T09:56:15Z</time>
      </trkpt>
      <trkpt lat="46.54153" lon="6.02683">
        <ele>939.93</ele>
        <time>2023-09-03T09:56:18Z</time>
      </trkpt>
      <trkpt lat="46.54155" lon="6.02675">
        <ele>940.76</ele>
        <time>2023-09-03T09:56:25Z</time>
      </trkpt>
      <trkpt lat="46.54153" lon="6.02659">
        <ele>941.04</ele>
        <time>2023-09-03T09:56:48Z</time>
      </trkpt>
      <trkpt lat="46.54148" lon="6.02663">
        <ele>941.46</ele>
        <time>2023-09-03T09:57:24Z</time>
      </trkpt>
      <trkpt lat="46.54138" lon="6.02657">
        <ele>941.62</ele>
        <time>2023-09-03T09:57:36Z</time>
      </trkpt>
      <trkpt lat="46.54139" lon="6.02655">
        <ele>942.19</ele>
        <time>2023-09-03T09:58:07Z</time>
      </trkpt>
      <trkpt lat="46.5414" lon="6.02657">
        <ele>943.67</ele>
        <time>2023-09-03T09:58:36Z</time>
      </trkpt>
      <trkpt lat="46.54142" lon="6.0266">
        <ele>944.23</ele>
        <time>2023-09-03T09:59:00Z</time>
      </trkpt>
      <trkpt lat="46.54142" lon="6.02662">
        <ele>944.74</ele>
        <time>2023-09-03T09:59:21Z</time>
      </trkpt>
      <trkpt lat="46.54151" lon="6.02664">
        <ele>945.34</ele>
        <time>2023-09-03T09:59:45Z</time>
      </trkpt>
      <trkpt lat="46.5416" lon="6.02671">
        <ele>947.8</ele>
        <time>2023-09-03T10:00:00Z</time>
      </trkpt>
      <trkpt lat="46.54169" lon="6.02688">
        <ele>950.15</ele>
        <time>2023-09-03T10:00:18Z</time>
      </trkpt>
      <trkpt lat="46.54169" lon="6.02689">
        <ele>950.16</ele>
        <time>2023-09-03T10:00:19Z</time>
      </trkpt>
      <trkpt lat="46.54172" lon="6.02705">
        <ele>951.95</ele>
        <time>2023-09-03T10:00:29Z</time>
      </trkpt>
      <trkpt lat="46.54173" lon="6.02707">
        <ele>951.95</ele>
        <time>2023-09-03T10:00:30Z</time>
      </trkpt>
      <trkpt lat="46.54177" lon="6.0272">
        <ele>954.04</ele>
        <time>2023-09-03T10:00:38Z</time>
      </trkpt>
      <trkpt lat="46.54184" lon="6.02731">
        <ele>956.07</ele>
        <time>2023-09-03T10:00:48Z</time>
      </trkpt>
      <trkpt lat="46.54185" lon="6.02732">
        <ele>956.08</ele>
        <time>2023-09-03T10:00:49Z</time>
      </trkpt>
      <trkpt lat="46.54188" lon="6.02733">
        <ele>956.14</ele>
        <time>2023-09-03T10:00:53Z</time>
      </trkpt>
      <trkpt lat="46.5419" lon="6.02735">
        <ele>957.03</ele>
        <time>2023-09-03T10:00:55Z</time>
      </trkpt>
      <trkpt lat="46.54191" lon="6.02736">
        <ele>957.05</ele>
        <time>2023-09-03T10:00:56Z</time>
      </trkpt>
      <trkpt lat="46.54207" lon="6.0274">
        <ele>959.13</ele>
        <time>2023-09-03T10:01:10Z</time>
      </trkpt>
      <trkpt lat="46.5421" lon="6.02741">
        <ele>960.5</ele>
        <time>2023-09-03T10:01:11Z</time>
      </trkpt>
      <trkpt lat="46.5421" lon="6.02741">
        <ele>960.59</ele>
        <time>2023-09-03T10:01:12Z</time>
      </trkpt>
      <trkpt lat="46.54214" lon="6.02741">
        <ele>961.44</ele>
        <time>2023-09-03T10:01:18Z</time>
      </trkpt>
      <trkpt lat="46.54218" lon="6.02742">
        <ele>962.32</ele>
        <time>2023-09-03T10:01:24Z</time>
      </trkpt>
      <trkpt lat="46.54219" lon="6.02743">
        <ele>962.32</ele>
        <time>2023-09-03T10:01:25Z</time>
      </trkpt>
      <trkpt lat="46.54228" lon="6.02747">
        <ele>963.57</ele>
        <time>2023-09-03T10:01:37Z</time>
      </trkpt>
      <trkpt lat="46.5423" lon="6.02747">
        <ele>964.61</ele>
        <time>2023-09-03T10:01:41Z</time>
      </trkpt>
      <trkpt lat="46.54231" lon="6.02747">
        <ele>964.63</ele>
        <time>2023-09-03T10:01:43Z</time>
      </trkpt>
      <trkpt lat="46.54235" lon="6.02753">
        <ele>965.87</ele>
        <time>2023-09-03T10:01:50Z</time>
      </trkpt>
      <trkpt lat="46.54248" lon="6.02763">
        <ele>969.39</ele>
        <time>2023-09-03T10:02:06Z</time>
      </trkpt>
      <trkpt lat="46.54259" lon="6.02778">
        <ele>971.26</ele>
        <time>2023-09-03T10:02:19Z</time>
      </trkpt>
      <trkpt lat="46.54283" lon="6.02792">
        <ele>975.11</ele>
        <time>2023-09-03T10:02:39Z</time>
      </trkpt>
      <trkpt lat="46.54302" lon="6.028">
        <ele>977.38</ele>
        <time>2023-09-03T10:02:56Z</time>
      </trkpt>
      <trkpt lat="46.54312" lon="6.02804">
        <ele>978.3</ele>
        <time>2023-09-03T10:03:02Z</time>
      </trkpt>
      <trkpt lat="46.54324" lon="6.02808">
        <ele>980.74</ele>
        <time>2023-09-03T10:03:13Z</time>
      </trkpt>
      <trkpt lat="46.54337" lon="6.02812">
        <ele>981.67</ele>
        <time>2023-09-03T10:03:22Z</time>
      </trkpt>
      <trkpt lat="46.54348" lon="6.02816">
        <ele>984.19</ele>
        <time>2023-09-03T10:03:33Z</time>
      </trkpt>
      <trkpt lat="46.5436" lon="6.02821">
        <ele>986.32</ele>
        <time>2023-09-03T10:03:42Z</time>
      </trkpt>
      <trkpt lat="46.54386" lon="6.02832">
        <ele>989.83</ele>
        <time>2023-09-03T10:04:04Z</time>
      </trkpt>
      <trkpt lat="46.54386" lon="6.02832">
        <ele>989.84</ele>
        <time>2023-09-03T10:04:05Z</time>
      </trkpt>
      <trkpt lat="46.54392" lon="6.02836">
        <ele>991.26</ele>
        <time>2023-09-03T10:04:14Z</time>
      </trkpt>
      <trkpt lat="46.54397" lon="6.02839">
        <ele>992.1</ele>
        <time>2023-09-03T10:04:20Z</time>
      </trkpt>
      <trkpt lat="46.54399" lon="6.02848">
        <ele>993.42</ele>
        <time>2023-09-03T10:04:27Z</time>
      </trkpt>
      <trkpt lat="46.544" lon="6.02859">
        <ele>993.46</ele>
        <time>2023-09-03T10:04:35Z</time>
      </trkpt>
      <trkpt lat="46.54403" lon="6.02865">
        <ele>994.22</ele>
        <time>2023-09-03T10:04:39Z</time>
      </trkpt>
      <trkpt lat="46.54405" lon="6.02874">
        <ele>994.26</ele>
        <time>2023-09-03T10:04:44Z</time>
      </trkpt>
      <trkpt lat="46.54412" lon="6.02888">
        <ele>995.91</ele>
        <time>2023-09-03T10:04:52Z</time>
      </trkpt>
      <trkpt lat="46.54414" lon="6.02897">
        <ele>995.91</ele>
        <time>2023-09-03T10:04:56Z</time>
      </trkpt>
      <trkpt lat="46.54408" lon="6.02915">
        <ele>995.94</ele>
        <time>2023-09-03T10:05:09Z</time>
      </trkpt>
      <trkpt lat="46.54402" lon="6.02917">
        <ele>995.98</ele>
        <time>2023-09-03T10:05:16Z</time>
      </trkpt>
      <trkpt lat="46.54392" lon="6.02921">
        <ele>993.34</ele>
        <time>2023-09-03T10:05:23Z</time>
      </trkpt>
      <trkpt lat="46.54389" lon="6.02934">
        <ele>992.51</ele>
        <time>2023-09-03T10:05:31Z</time>
      </trkpt>
      <trkpt lat="46.54392" lon="6.0294">
        <ele>992.54</ele>
        <time>2023-09-03T10:05:37Z</time>
      </trkpt>
      <trkpt lat="46.54397" lon="6.0295">
        <ele>992.6</ele>
        <time>2023-09-03T10:05:48Z</time>
      </trkpt>
      <trkpt lat="46.54398" lon="6.02957">
        <ele>992.61</ele>
        <time>2023-09-03T10:05:52Z</time>
      </trkpt>
      <trkpt lat="46.54399" lon="6.0296">
        <ele>992.62</ele>
        <time>2023-09-03T10:05:53Z</time>
      </trkpt>
      <trkpt lat="46.54401" lon="6.02965">
        <ele>994.89</ele>
        <time>2023-09-03T10:05:56Z</time>
      </trkpt>
      <trkpt lat="46.54404" lon="6.02968">
        <ele>994.9</ele>
        <time>2023-09-03T10:05:59Z</time>
      </trkpt>
      <trkpt lat="46.54406" lon="6.0297">
        <ele>994.9</ele>
        <time>2023-09-03T10:06:01Z</time>
      </trkpt>
      <trkpt lat="46.5441" lon="6.02977">
        <ele>995.78</ele>
        <time>2023-09-03T10:06:06Z</time>
      </trkpt>
      <trkpt lat="46.54411" lon="6.0298">
        <ele>995.77</ele>
        <time>2023-09-03T10:06:08Z</time>
      </trkpt>
      <trkpt lat="46.54412" lon="6.02982">
        <ele>995.79</ele>
        <time>2023-09-03T10:06:09Z</time>
      </trkpt>
      <trkpt lat="46.54417" lon="6.02992">
        <ele>995.78</ele>
        <time>2023-09-03T10:06:15Z</time>
      </trkpt>
      <trkpt lat="46.54418" lon="6.02995">
        <ele>995.79</ele>
        <time>2023-09-03T10:06:17Z</time>
      </trkpt>
      <trkpt lat="46.54422" lon="6.03002">
        <ele>995.79</ele>
        <time>2023-09-03T10:06:21Z</time>
      </trkpt>
      <trkpt lat="46.54425" lon="6.03008">
        <ele>995.79</ele>
        <time>2023-09-03T10:06:24Z</time>
      </trkpt>
      <trkpt lat="46.54428" lon="6.03011">
        <ele>996.73</ele>
        <time>2023-09-03T10:06:27Z</time>
      </trkpt>
      <trkpt lat="46.54433" lon="6.03014">
        <ele>996.74</ele>
        <time>2023-09-03T10:06:33Z</time>
      </trkpt>
      <trkpt lat="46.54444" lon="6.03024">
        <ele>998.49</ele>
        <time>2023-09-03T10:06:44Z</time>
      </trkpt>
      <trkpt lat="46.54455" lon="6.03034">
        <ele>1000.13</ele>
        <time>2023-09-03T10:06:59Z</time>
      </trkpt>
      <trkpt lat="46.54456" lon="6.03034">
        <ele>1000.12</ele>
        <time>2023-09-03T10:07:00Z</time>
      </trkpt>
      <trkpt lat="46.54477" lon="6.03049">
        <ele>1000.13</ele>
        <time>2023-09-03T10:07:14Z</time>
      </trkpt>
      <trkpt lat="46.54486" lon="6.03057">
        <ele>1000.14</ele>
        <time>2023-09-03T10:07:19Z</time>
      </trkpt>
      <trkpt lat="46.54497" lon="6.03082">
        <ele>1000.17</ele>
        <time>2023-09-03T10:07:29Z</time>
      </trkpt>
      <trkpt lat="46.54497" lon="6.03084">
        <ele>1000.17</ele>
        <time>2023-09-03T10:07:30Z</time>
      </trkpt>
      <trkpt lat="46.545" lon="6.03101">
        <ele>1000.98</ele>
        <time>2023-09-03T10:07:40Z</time>
      </trkpt>
      <trkpt lat="46.54503" lon="6.03112">
        <ele>1000.99</ele>
        <time>2023-09-03T10:07:50Z</time>
      </trkpt>
      <trkpt lat="46.54504" lon="6.03119">
        <ele>1001.09</ele>
        <time>2023-09-03T10:07:56Z</time>
      </trkpt>
      <trkpt lat="46.54508" lon="6.03136">
        <ele>1003.1</ele>
        <time>2023-09-03T10:08:06Z</time>
      </trkpt>
      <trkpt lat="46.54507" lon="6.03151">
        <ele>1003.12</ele>
        <time>2023-09-03T10:08:11Z</time>
      </trkpt>
      <trkpt lat="46.54508" lon="6.03157">
        <ele>1003.12</ele>
        <time>2023-09-03T10:08:14Z</time>
      </trkpt>
      <trkpt lat="46.54507" lon="6.03159">
        <ele>1003.16</ele>
        <time>2023-09-03T10:08:16Z</time>
      </trkpt>
      <trkpt lat="46.54504" lon="6.03167">
        <ele>1003.21</ele>
        <time>2023-09-03T10:08:25Z</time>
      </trkpt>
      <trkpt lat="46.54505" lon="6.03179">
        <ele>1003.31</ele>
        <time>2023-09-03T10:08:39Z</time>
      </trkpt>
      <trkpt lat="46.54504" lon="6.03192">
        <ele>1001.17</ele>
        <time>2023-09-03T10:08:52Z</time>
      </trkpt>
      <trkpt lat="46.545" lon="6.03198">
        <ele>1000.21</ele>
        <time>2023-09-03T10:09:01Z</time>
      </trkpt>
      <trkpt lat="46.54493" lon="6.032">
        <ele>997.05</ele>
        <time>2023-09-03T10:09:09Z</time>
      </trkpt>
      <trkpt lat="46.54491" lon="6.03204">
        <ele>995.48</ele>
        <time>2023-09-03T10:09:12Z</time>
      </trkpt>
      <trkpt lat="46.54486" lon="6.03213">
        <ele>992.16</ele>
        <time>2023-09-03T10:09:24Z</time>
      </trkpt>
      <trkpt lat="46.54484" lon="6.03228">
        <ele>992.27</ele>
        <time>2023-09-03T10:09:31Z</time>
      </trkpt>
      <trkpt lat="46.54484" lon="6.0323">
        <ele>992.18</ele>
        <time>2023-09-03T10:09:32Z</time>
      </trkpt>
      <trkpt lat="46.54485" lon="6.03235">
        <ele>991.43</ele>
        <time>2023-09-03T10:09:36Z</time>
      </trkpt>
      <trkpt lat="46.54494" lon="6.03251">
        <ele>989.75</ele>
        <time>2023-09-03T10:09:52Z</time>
      </trkpt>
      <trkpt lat="46.54495" lon="6.03253">
        <ele>989.71</ele>
        <time>2023-09-03T10:09:53Z</time>
      </trkpt>
      <trkpt lat="46.54498" lon="6.03255">
        <ele>989.82</ele>
        <time>2023-09-03T10:09:55Z</time>
      </trkpt>
      <trkpt lat="46.54502" lon="6.03263">
        <ele>989.9</ele>
        <time>2023-09-03T10:10:00Z</time>
      </trkpt>
      <trkpt lat="46.54503" lon="6.03263">
        <ele>989.9</ele>
        <time>2023-09-03T10:10:01Z</time>
      </trkpt>
      <trkpt lat="46.54504" lon="6.03276">
        <ele>992.55</ele>
        <time>2023-09-03T10:10:08Z</time>
      </trkpt>
      <trkpt lat="46.5451" lon="6.03279">
        <ele>994.29</ele>
        <time>2023-09-03T10:10:16Z</time>
      </trkpt>
      <trkpt lat="46.54519" lon="6.03279">
        <ele>997.03</ele>
        <time>2023-09-03T10:10:25Z</time>
      </trkpt>
      <trkpt lat="46.54541" lon="6.03276">
        <ele>998.01</ele>
        <time>2023-09-03T10:10:37Z</time>
      </trkpt>
      <trkpt lat="46.54551" lon="6.03276">
        <ele>999.21</ele>
        <time>2023-09-03T10:10:45Z</time>
      </trkpt>
      <trkpt lat="46.54553" lon="6.03276">
        <ele>999.23</ele>
        <time>2023-09-03T10:10:47Z</time>
      </trkpt>
      <trkpt lat="46.54554" lon="6.03272">
        <ele>999.18</ele>
        <time>2023-09-03T10:10:50Z</time>
      </trkpt>
      <trkpt lat="46.54556" lon="6.03271">
        <ele>1000.43</ele>
        <time>2023-09-03T10:10:52Z</time>
      </trkpt>
      <trkpt lat="46.54558" lon="6.03268">
        <ele>1000.46</ele>
        <time>2023-09-03T10:10:54Z</time>
      </trkpt>
      <trkpt lat="46.5456" lon="6.0327">
        <ele>1001.73</ele>
        <time>2023-09-03T10:10:58Z</time>
      </trkpt>
      <trkpt lat="46.54567" lon="6.03282">
        <ele>1003.61</ele>
        <time>2023-09-03T10:11:09Z</time>
      </trkpt>
      <trkpt lat="46.54575" lon="6.03301">
        <ele>1004.27</ele>
        <time>2023-09-03T10:11:27Z</time>
      </trkpt>
      <trkpt lat="46.5458" lon="6.03311">
        <ele>1001.62</ele>
        <time>2023-09-03T10:11:35Z</time>
      </trkpt>
      <trkpt lat="46.54586" lon="6.03322">
        <ele>999.8</ele>
        <time>2023-09-03T10:11:43Z</time>
      </trkpt>
      <trkpt lat="46.54594" lon="6.03342">
        <ele>999.15</ele>
        <time>2023-09-03T10:12:01Z</time>
      </trkpt>
      <trkpt lat="46.54598" lon="6.0335">
        <ele>999.25</ele>
        <time>2023-09-03T10:12:07Z</time>
      </trkpt>
      <trkpt lat="46.54602" lon="6.03366">
        <ele>999.37</ele>
        <time>2023-09-03T10:12:17Z</time>
      </trkpt>
      <trkpt lat="46.54605" lon="6.03376">
        <ele>1002.07</ele>
        <time>2023-09-03T10:12:25Z</time>
      </trkpt>
      <trkpt lat="46.54609" lon="6.03391">
        <ele>1003.88</ele>
        <time>2023-09-03T10:12:38Z</time>
      </trkpt>
      <trkpt lat="46.54615" lon="6.03403">
        <ele>1004.83</ele>
        <time>2023-09-03T10:12:50Z</time>
      </trkpt>
      <trkpt lat="46.54616" lon="6.03407">
        <ele>1005.89</ele>
        <time>2023-09-03T10:12:54Z</time>
      </trkpt>
      <trkpt lat="46.54624" lon="6.0342">
        <ele>1008.94</ele>
        <time>2023-09-03T10:13:06Z</time>
      </trkpt>
      <trkpt lat="46.54632" lon="6.03436">
        <ele>1008.94</ele>
        <time>2023-09-03T10:13:18Z</time>
      </trkpt>
      <trkpt lat="46.54636" lon="6.03447">
        <ele>1009.69</ele>
        <time>2023-09-03T10:13:24Z</time>
      </trkpt>
      <trkpt lat="46.54641" lon="6.03457">
        <ele>1009.67</ele>
        <time>2023-09-03T10:13:33Z</time>
      </trkpt>
      <trkpt lat="46.54643" lon="6.03462">
        <ele>1009.71</ele>
        <time>2023-09-03T10:13:35Z</time>
      </trkpt>
      <trkpt lat="46.54646" lon="6.03473">
        <ele>1009.74</ele>
        <time>2023-09-03T10:13:41Z</time>
      </trkpt>
      <trkpt lat="46.5465" lon="6.03482">
        <ele>1012.21</ele>
        <time>2023-09-03T10:13:50Z</time>
      </trkpt>
      <trkpt lat="46.5466" lon="6.03506">
        <ele>1015.34</ele>
        <time>2023-09-03T10:14:02Z</time>
      </trkpt>
      <trkpt lat="46.54663" lon="6.03513">
        <ele>1016.63</ele>
        <time>2023-09-03T10:14:05Z</time>
      </trkpt>
      <trkpt lat="46.54673" lon="6.03534">
        <ele>1017.5</ele>
        <time>2023-09-03T10:14:21Z</time>
      </trkpt>
      <trkpt lat="46.54682" lon="6.03552">
        <ele>1015.07</ele>
        <time>2023-09-03T10:14:35Z</time>
      </trkpt>
      <trkpt lat="46.54692" lon="6.03561">
        <ele>1012.71</ele>
        <time>2023-09-03T10:14:45Z</time>
      </trkpt>
      <trkpt lat="46.54704" lon="6.03577">
        <ele>1012.82</ele>
        <time>2023-09-03T10:14:59Z</time>
      </trkpt>
      <trkpt lat="46.54707" lon="6.03582">
        <ele>1012.87</ele>
        <time>2023-09-03T10:15:02Z</time>
      </trkpt>
      <trkpt lat="46.54717" lon="6.03592">
        <ele>1015.37</ele>
        <time>2023-09-03T10:15:14Z</time>
      </trkpt>
      <trkpt lat="46.54719" lon="6.03594">
        <ele>1016.61</ele>
        <time>2023-09-03T10:15:17Z</time>
      </trkpt>
      <trkpt lat="46.54721" lon="6.036">
        <ele>1017.28</ele>
        <time>2023-09-03T10:15:21Z</time>
      </trkpt>
      <trkpt lat="46.54722" lon="6.03602">
        <ele>1018.71</ele>
        <time>2023-09-03T10:15:23Z</time>
      </trkpt>
      <trkpt lat="46.5473" lon="6.03619">
        <ele>1021.63</ele>
        <time>2023-09-03T10:15:32Z</time>
      </trkpt>
      <trkpt lat="46.54738" lon="6.03625">
        <ele>1022.66</ele>
        <time>2023-09-03T10:15:39Z</time>
      </trkpt>
      <trkpt lat="46.54739" lon="6.03626">
        <ele>1022.87</ele>
        <time>2023-09-03T10:15:40Z</time>
      </trkpt>
      <trkpt lat="46.54762" lon="6.03635">
        <ele>1025.73</ele>
        <time>2023-09-03T10:15:57Z</time>
      </trkpt>
      <trkpt lat="46.54778" lon="6.03637">
        <ele>1027.46</ele>
        <time>2023-09-03T10:16:13Z</time>
      </trkpt>
      <trkpt lat="46.54782" lon="6.03638">
        <ele>1027.34</ele>
        <time>2023-09-03T10:16:17Z</time>
      </trkpt>
      <trkpt lat="46.54783" lon="6.03639">
        <ele>1027.47</ele>
        <time>2023-09-03T10:16:18Z</time>
      </trkpt>
      <trkpt lat="46.54784" lon="6.0364">
        <ele>1028.09</ele>
        <time>2023-09-03T10:16:21Z</time>
      </trkpt>
      <trkpt lat="46.54793" lon="6.03647">
        <ele>1029</ele>
        <time>2023-09-03T10:16:29Z</time>
      </trkpt>
      <trkpt lat="46.54794" lon="6.03652">
        <ele>1030.36</ele>
        <time>2023-09-03T10:16:33Z</time>
      </trkpt>
      <trkpt lat="46.54796" lon="6.03655">
        <ele>1030.47</ele>
        <time>2023-09-03T10:16:36Z</time>
      </trkpt>
      <trkpt lat="46.548" lon="6.03664">
        <ele>1031.77</ele>
        <time>2023-09-03T10:16:43Z</time>
      </trkpt>
      <trkpt lat="46.54803" lon="6.0367">
        <ele>1032.63</ele>
        <time>2023-09-03T10:16:50Z</time>
      </trkpt>
      <trkpt lat="46.54808" lon="6.03686">
        <ele>1032.62</ele>
        <time>2023-09-03T10:16:58Z</time>
      </trkpt>
      <trkpt lat="46.54822" lon="6.03713">
        <ele>1033.39</ele>
        <time>2023-09-03T10:17:15Z</time>
      </trkpt>
      <trkpt lat="46.54833" lon="6.03727">
        <ele>1033.4</ele>
        <time>2023-09-03T10:17:24Z</time>
      </trkpt>
      <trkpt lat="46.54839" lon="6.0373">
        <ele>1033.41</ele>
        <time>2023-09-03T10:17:27Z</time>
      </trkpt>
      <trkpt lat="46.54841" lon="6.03731">
        <ele>1034.34</ele>
        <time>2023-09-03T10:17:28Z</time>
      </trkpt>
      <trkpt lat="46.54844" lon="6.03731">
        <ele>1034.38</ele>
        <time>2023-09-03T10:17:29Z</time>
      </trkpt>
      <trkpt lat="46.5486" lon="6.03728">
        <ele>1034.41</ele>
        <time>2023-09-03T10:17:40Z</time>
      </trkpt>
      <trkpt lat="46.54865" lon="6.03726">
        <ele>1034.41</ele>
        <time>2023-09-03T10:17:42Z</time>
      </trkpt>
      <trkpt lat="46.54877" lon="6.03714">
        <ele>1035.14</ele>
        <time>2023-09-03T10:17:56Z</time>
      </trkpt>
      <trkpt lat="46.5488" lon="6.03713">
        <ele>1036.08</ele>
        <time>2023-09-03T10:17:59Z</time>
      </trkpt>
      <trkpt lat="46.5488" lon="6.03711">
        <ele>1036.11</ele>
        <time>2023-09-03T10:18:00Z</time>
      </trkpt>
      <trkpt lat="46.54888" lon="6.03701">
        <ele>1037.91</ele>
        <time>2023-09-03T10:18:14Z</time>
      </trkpt>
      <trkpt lat="46.54892" lon="6.03701">
        <ele>1038.9</ele>
        <time>2023-09-03T10:18:18Z</time>
      </trkpt>
      <trkpt lat="46.54897" lon="6.03701">
        <ele>1038.87</ele>
        <time>2023-09-03T10:18:22Z</time>
      </trkpt>
      <trkpt lat="46.54908" lon="6.03695">
        <ele>1038.8</ele>
        <time>2023-09-03T10:18:33Z</time>
      </trkpt>
      <trkpt lat="46.54915" lon="6.03691">
        <ele>1035.94</ele>
        <time>2023-09-03T10:18:44Z</time>
      </trkpt>
      <trkpt lat="46.54918" lon="6.0369">
        <ele>1036.12</ele>
        <time>2023-09-03T10:18:45Z</time>
      </trkpt>
      <trkpt lat="46.54924" lon="6.03688">
        <ele>1035.35</ele>
        <time>2023-09-03T10:18:50Z</time>
      </trkpt>
      <trkpt lat="46.54926" lon="6.03684">
        <ele>1034.36</ele>
        <time>2023-09-03T10:18:53Z</time>
      </trkpt>
      <trkpt lat="46.54933" lon="6.03663">
        <ele>1033.07</ele>
        <time>2023-09-03T10:19:04Z</time>
      </trkpt>
      <trkpt lat="46.54933" lon="6.03659">
        <ele>1033.22</ele>
        <time>2023-09-03T10:19:06Z</time>
      </trkpt>
      <trkpt lat="46.54936" lon="6.03652">
        <ele>1030.84</ele>
        <time>2023-09-03T10:19:12Z</time>
      </trkpt>
      <trkpt lat="46.54943" lon="6.03644">
        <ele>1030.97</ele>
        <time>2023-09-03T10:19:15Z</time>
      </trkpt>
      <trkpt lat="46.54946" lon="6.03631">
        <ele>1030.05</ele>
        <time>2023-09-03T10:19:22Z</time>
      </trkpt>
      <trkpt lat="46.5495" lon="6.03621">
        <ele>1026.78</ele>
        <time>2023-09-03T10:19:31Z</time>
      </trkpt>
      <trkpt lat="46.5495" lon="6.03619">
        <ele>1026.8</ele>
        <time>2023-09-03T10:19:32Z</time>
      </trkpt>
      <trkpt lat="46.54958" lon="6.03613">
        <ele>1024.83</ele>
        <time>2023-09-03T10:19:39Z</time>
      </trkpt>
      <trkpt lat="46.54962" lon="6.0361">
        <ele>1023.82</ele>
        <time>2023-09-03T10:19:43Z</time>
      </trkpt>
      <trkpt lat="46.54968" lon="6.03605">
        <ele>1022.15</ele>
        <time>2023-09-03T10:19:48Z</time>
      </trkpt>
      <trkpt lat="46.54974" lon="6.03603">
        <ele>1019.84</ele>
        <time>2023-09-03T10:19:53Z</time>
      </trkpt>
      <trkpt lat="46.54976" lon="6.03602">
        <ele>1019.25</ele>
        <time>2023-09-03T10:19:55Z</time>
      </trkpt>
      <trkpt lat="46.54977" lon="6.03603">
        <ele>1019.01</ele>
        <time>2023-09-03T10:19:56Z</time>
      </trkpt>
      <trkpt lat="46.54976" lon="6.03598">
        <ele>1018.1</ele>
        <time>2023-09-03T10:20:01Z</time>
      </trkpt>
      <trkpt lat="46.54977" lon="6.03599">
        <ele>1018.11</ele>
        <time>2023-09-03T10:20:02Z</time>
      </trkpt>
      <trkpt lat="46.54985" lon="6.03607">
        <ele>1014.41</ele>
        <time>2023-09-03T10:20:14Z</time>
      </trkpt>
      <trkpt lat="46.54988" lon="6.03607">
        <ele>1014.64</ele>
        <time>2023-09-03T10:20:16Z</time>
      </trkpt>
      <trkpt lat="46.55" lon="6.03613">
        <ele>1011.49</ele>
        <time>2023-09-03T10:20:26Z</time>
      </trkpt>
      <trkpt lat="46.55" lon="6.03613">
        <ele>1011.37</ele>
        <time>2023-09-03T10:20:27Z</time>
      </trkpt>
      <trkpt lat="46.55005" lon="6.03615">
        <ele>1010.53</ele>
        <time>2023-09-03T10:20:30Z</time>
      </trkpt>
      <trkpt lat="46.55015" lon="6.03624">
        <ele>1007.5</ele>
        <time>2023-09-03T10:20:36Z</time>
      </trkpt>
      <trkpt lat="46.55021" lon="6.03634">
        <ele>1004.22</ele>
        <time>2023-09-03T10:20:47Z</time>
      </trkpt>
      <trkpt lat="46.55022" lon="6.03636">
        <ele>1004.22</ele>
        <time>2023-09-03T10:20:48Z</time>
      </trkpt>
      <trkpt lat="46.55023" lon="6.03638">
        <ele>1002.78</ele>
        <time>2023-09-03T10:20:52Z</time>
      </trkpt>
      <trkpt lat="46.55028" lon="6.03647">
        <ele>1001.05</ele>
        <time>2023-09-03T10:21:02Z</time>
      </trkpt>
      <trkpt lat="46.55034" lon="6.03657">
        <ele>997.56</ele>
        <time>2023-09-03T10:21:12Z</time>
      </trkpt>
      <trkpt lat="46.55034" lon="6.03657">
        <ele>996.77</ele>
        <time>2023-09-03T10:21:14Z</time>
      </trkpt>
      <trkpt lat="46.55056" lon="6.03658">
        <ele>993.39</ele>
        <time>2023-09-03T10:21:27Z</time>
      </trkpt>
      <trkpt lat="46.55059" lon="6.03657">
        <ele>993.68</ele>
        <time>2023-09-03T10:21:29Z</time>
      </trkpt>
      <trkpt lat="46.5506" lon="6.03655">
        <ele>993.53</ele>
        <time>2023-09-03T10:21:31Z</time>
      </trkpt>
      <trkpt lat="46.55064" lon="6.03653">
        <ele>992.09</ele>
        <time>2023-09-03T10:21:35Z</time>
      </trkpt>
      <trkpt lat="46.55073" lon="6.03657">
        <ele>991.45</ele>
        <time>2023-09-03T10:21:41Z</time>
      </trkpt>
      <trkpt lat="46.55074" lon="6.03658">
        <ele>989.69</ele>
        <time>2023-09-03T10:21:43Z</time>
      </trkpt>
      <trkpt lat="46.5508" lon="6.03669">
        <ele>986.95</ele>
        <time>2023-09-03T10:21:53Z</time>
      </trkpt>
      <trkpt lat="46.55084" lon="6.03669">
        <ele>984.51</ele>
        <time>2023-09-03T10:21:58Z</time>
      </trkpt>
      <trkpt lat="46.55092" lon="6.03673">
        <ele>983.58</ele>
        <time>2023-09-03T10:22:03Z</time>
      </trkpt>
      <trkpt lat="46.55092" lon="6.03673">
        <ele>983.32</ele>
        <time>2023-09-03T10:22:04Z</time>
      </trkpt>
      <trkpt lat="46.55096" lon="6.03675">
        <ele>982.37</ele>
        <time>2023-09-03T10:22:06Z</time>
      </trkpt>
      <trkpt lat="46.55102" lon="6.03676">
        <ele>980.02</ele>
        <time>2023-09-03T10:22:11Z</time>
      </trkpt>
      <trkpt lat="46.55104" lon="6.03677">
        <ele>978.19</ele>
        <time>2023-09-03T10:22:14Z</time>
      </trkpt>
      <trkpt lat="46.5512" lon="6.03697">
        <ele>974.41</ele>
        <time>2023-09-03T10:22:30Z</time>
      </trkpt>
      <trkpt lat="46.55146" lon="6.03717">
        <ele>971.02</ele>
        <time>2023-09-03T10:22:47Z</time>
      </trkpt>
      <trkpt lat="46.55153" lon="6.03722">
        <ele>970.32</ele>
        <time>2023-09-03T10:22:51Z</time>
      </trkpt>
      <trkpt lat="46.55165" lon="6.03725">
        <ele>970.31</ele>
        <time>2023-09-03T10:22:57Z</time>
      </trkpt>
      <trkpt lat="46.55168" lon="6.03733">
        <ele>968.51</ele>
        <time>2023-09-03T10:23:03Z</time>
      </trkpt>
      <trkpt lat="46.55179" lon="6.03738">
        <ele>968.78</ele>
        <time>2023-09-03T10:23:10Z</time>
      </trkpt>
      <trkpt lat="46.55182" lon="6.03739">
        <ele>971.18</ele>
        <time>2023-09-03T10:23:13Z</time>
      </trkpt>
      <trkpt lat="46.55207" lon="6.03741">
        <ele>968.79</ele>
        <time>2023-09-03T10:23:36Z</time>
      </trkpt>
      <trkpt lat="46.55218" lon="6.03745">
        <ele>967.59</ele>
        <time>2023-09-03T10:23:41Z</time>
      </trkpt>
      <trkpt lat="46.55219" lon="6.03744">
        <ele>966.61</ele>
        <time>2023-09-03T10:23:43Z</time>
      </trkpt>
      <trkpt lat="46.55238" lon="6.03746">
        <ele>966.06</ele>
        <time>2023-09-03T10:23:52Z</time>
      </trkpt>
      <trkpt lat="46.55246" lon="6.03743">
        <ele>965.29</ele>
        <time>2023-09-03T10:23:59Z</time>
      </trkpt>
      <trkpt lat="46.55246" lon="6.03736">
        <ele>964.61</ele>
        <time>2023-09-03T10:24:03Z</time>
      </trkpt>
      <trkpt lat="46.55262" lon="6.03718">
        <ele>960.36</ele>
        <time>2023-09-03T10:24:18Z</time>
      </trkpt>
      <trkpt lat="46.55278" lon="6.03711">
        <ele>959.82</ele>
        <time>2023-09-03T10:24:29Z</time>
      </trkpt>
      <trkpt lat="46.55298" lon="6.03708">
        <ele>959.09</ele>
        <time>2023-09-03T10:24:34Z</time>
      </trkpt>
      <trkpt lat="46.55308" lon="6.03704">
        <ele>958.24</ele>
        <time>2023-09-03T10:24:39Z</time>
      </trkpt>
      <trkpt lat="46.55317" lon="6.037">
        <ele>957.6</ele>
        <time>2023-09-03T10:24:45Z</time>
      </trkpt>
      <trkpt lat="46.55331" lon="6.03692">
        <ele>957.8</ele>
        <time>2023-09-03T10:24:57Z</time>
      </trkpt>
      <trkpt lat="46.55339" lon="6.03689">
        <ele>956.75</ele>
        <time>2023-09-03T10:25:05Z</time>
      </trkpt>
      <trkpt lat="46.55352" lon="6.03687">
        <ele>953.34</ele>
        <time>2023-09-03T10:25:18Z</time>
      </trkpt>
      <trkpt lat="46.55352" lon="6.03687">
        <ele>953.33</ele>
        <time>2023-09-03T10:25:19Z</time>
      </trkpt>
      <trkpt lat="46.55365" lon="6.03687">
        <ele>951.39</ele>
        <time>2023-09-03T10:25:26Z</time>
      </trkpt>
      <trkpt lat="46.5538" lon="6.03672">
        <ele>948.09</ele>
        <time>2023-09-03T10:25:36Z</time>
      </trkpt>
      <trkpt lat="46.554" lon="6.03658">
        <ele>945.04</ele>
        <time>2023-09-03T10:25:49Z</time>
      </trkpt>
      <trkpt lat="46.55406" lon="6.03651">
        <ele>943.27</ele>
        <time>2023-09-03T10:25:54Z</time>
      </trkpt>
      <trkpt lat="46.55408" lon="6.03638">
        <ele>942.39</ele>
        <time>2023-09-03T10:26:01Z</time>
      </trkpt>
      <trkpt lat="46.5541" lon="6.03633">
        <ele>940.96</ele>
        <time>2023-09-03T10:26:04Z</time>
      </trkpt>
      <trkpt lat="46.55411" lon="6.03626">
        <ele>939.95</ele>
        <time>2023-09-03T10:26:08Z</time>
      </trkpt>
      <trkpt lat="46.55415" lon="6.03619">
        <ele>939.37</ele>
        <time>2023-09-03T10:26:12Z</time>
      </trkpt>
      <trkpt lat="46.55416" lon="6.03618">
        <ele>938.07</ele>
        <time>2023-09-03T10:26:14Z</time>
      </trkpt>
      <trkpt lat="46.55422" lon="6.03609">
        <ele>936.89</ele>
        <time>2023-09-03T10:26:18Z</time>
      </trkpt>
      <trkpt lat="46.5543" lon="6.03592">
        <ele>933.82</ele>
        <time>2023-09-03T10:26:26Z</time>
      </trkpt>
      <trkpt lat="46.55434" lon="6.03584">
        <ele>932.16</ele>
        <time>2023-09-03T10:26:31Z</time>
      </trkpt>
      <trkpt lat="46.55435" lon="6.03578">
        <ele>929.92</ele>
        <time>2023-09-03T10:26:36Z</time>
      </trkpt>
      <trkpt lat="46.55437" lon="6.03564">
        <ele>927.73</ele>
        <time>2023-09-03T10:26:43Z</time>
      </trkpt>
      <trkpt lat="46.55438" lon="6.0353">
        <ele>926.21</ele>
        <time>2023-09-03T10:26:57Z</time>
      </trkpt>
      <trkpt lat="46.55441" lon="6.03513">
        <ele>925.36</ele>
        <time>2023-09-03T10:27:04Z</time>
      </trkpt>
      <trkpt lat="46.55444" lon="6.03506">
        <ele>925.32</ele>
        <time>2023-09-03T10:27:08Z</time>
      </trkpt>
      <trkpt lat="46.55446" lon="6.03493">
        <ele>925.39</ele>
        <time>2023-09-03T10:27:12Z</time>
      </trkpt>
      <trkpt lat="46.55437" lon="6.03458">
        <ele>922.18</ele>
        <time>2023-09-03T10:27:23Z</time>
      </trkpt>
      <trkpt lat="46.55434" lon="6.0345">
        <ele>922.29</ele>
        <time>2023-09-03T10:27:25Z</time>
      </trkpt>
      <trkpt lat="46.55436" lon="6.03442">
        <ele>922.22</ele>
        <time>2023-09-03T10:27:28Z</time>
      </trkpt>
      <trkpt lat="46.55438" lon="6.03428">
        <ele>920.32</ele>
        <time>2023-09-03T10:27:35Z</time>
      </trkpt>
      <trkpt lat="46.5544" lon="6.03417">
        <ele>920.26</ele>
        <time>2023-09-03T10:27:39Z</time>
      </trkpt>
      <trkpt lat="46.55442" lon="6.03409">
        <ele>920.39</ele>
        <time>2023-09-03T10:27:43Z</time>
      </trkpt>
      <trkpt lat="46.55447" lon="6.03394">
        <ele>919.56</ele>
        <time>2023-09-03T10:27:51Z</time>
      </trkpt>
      <trkpt lat="46.55447" lon="6.0339">
        <ele>919.58</ele>
        <time>2023-09-03T10:27:53Z</time>
      </trkpt>
      <trkpt lat="46.55448" lon="6.03381">
        <ele>919.62</ele>
        <time>2023-09-03T10:27:57Z</time>
      </trkpt>
      <trkpt lat="46.55454" lon="6.03358">
        <ele>918.76</ele>
        <time>2023-09-03T10:28:09Z</time>
      </trkpt>
      <trkpt lat="46.55457" lon="6.03351">
        <ele>917.99</ele>
        <time>2023-09-03T10:28:13Z</time>
      </trkpt>
      <trkpt lat="46.55461" lon="6.03327">
        <ele>917.39</ele>
        <time>2023-09-03T10:28:24Z</time>
      </trkpt>
      <trkpt lat="46.55473" lon="6.03293">
        <ele>915.12</ele>
        <time>2023-09-03T10:28:39Z</time>
      </trkpt>
      <trkpt lat="46.55482" lon="6.03261">
        <ele>913.61</ele>
        <time>2023-09-03T10:28:54Z</time>
      </trkpt>
      <trkpt lat="46.55483" lon="6.03256">
        <ele>913.68</ele>
        <time>2023-09-03T10:28:56Z</time>
      </trkpt>
      <trkpt lat="46.55485" lon="6.03242">
        <ele>912.94</ele>
        <time>2023-09-03T10:29:02Z</time>
      </trkpt>
      <trkpt lat="46.55502" lon="6.03214">
        <ele>912.11</ele>
        <time>2023-09-03T10:29:18Z</time>
      </trkpt>
      <trkpt lat="46.5552" lon="6.03186">
        <ele>911.58</ele>
        <time>2023-09-03T10:29:35Z</time>
      </trkpt>
      <trkpt lat="46.55525" lon="6.03175">
        <ele>911.67</ele>
        <time>2023-09-03T10:29:41Z</time>
      </trkpt>
      <trkpt lat="46.5553" lon="6.03168">
        <ele>911.74</ele>
        <time>2023-09-03T10:29:45Z</time>
      </trkpt>
      <trkpt lat="46.55533" lon="6.03163">
        <ele>911.78</ele>
        <time>2023-09-03T10:29:48Z</time>
      </trkpt>
      <trkpt lat="46.55542" lon="6.03148">
        <ele>912</ele>
        <time>2023-09-03T10:29:57Z</time>
      </trkpt>
      <trkpt lat="46.55543" lon="6.03143">
        <ele>912.04</ele>
        <time>2023-09-03T10:29:59Z</time>
      </trkpt>
      <trkpt lat="46.55545" lon="6.03114">
        <ele>912.34</ele>
        <time>2023-09-03T10:30:13Z</time>
      </trkpt>
      <trkpt lat="46.55535" lon="6.03096">
        <ele>911.67</ele>
        <time>2023-09-03T10:30:24Z</time>
      </trkpt>
      <trkpt lat="46.55531" lon="6.03086">
        <ele>911.76</ele>
        <time>2023-09-03T10:30:30Z</time>
      </trkpt>
      <trkpt lat="46.55527" lon="6.03065">
        <ele>911.23</ele>
        <time>2023-09-03T10:30:40Z</time>
      </trkpt>
      <trkpt lat="46.55526" lon="6.03058">
        <ele>911.33</ele>
        <time>2023-09-03T10:30:44Z</time>
      </trkpt>
      <trkpt lat="46.55523" lon="6.03029">
        <ele>911.57</ele>
        <time>2023-09-03T10:30:56Z</time>
      </trkpt>
      <trkpt lat="46.55522" lon="6.03016">
        <ele>910.89</ele>
        <time>2023-09-03T10:31:02Z</time>
      </trkpt>
      <trkpt lat="46.55522" lon="6.02996">
        <ele>911.09</ele>
        <time>2023-09-03T10:31:11Z</time>
      </trkpt>
      <trkpt lat="46.55522" lon="6.02961">
        <ele>910.68</ele>
        <time>2023-09-03T10:31:27Z</time>
      </trkpt>
      <trkpt lat="46.55523" lon="6.02945">
        <ele>910.08</ele>
        <time>2023-09-03T10:31:34Z</time>
      </trkpt>
      <trkpt lat="46.55525" lon="6.02899">
        <ele>909.84</ele>
        <time>2023-09-03T10:31:54Z</time>
      </trkpt>
      <trkpt lat="46.55529" lon="6.02862">
        <ele>909.41</ele>
        <time>2023-09-03T10:32:10Z</time>
      </trkpt>
      <trkpt lat="46.55532" lon="6.0283">
        <ele>909.76</ele>
        <time>2023-09-03T10:32:24Z</time>
      </trkpt>
      <trkpt lat="46.55534" lon="6.02822">
        <ele>909.08</ele>
        <time>2023-09-03T10:32:28Z</time>
      </trkpt>
      <trkpt lat="46.55538" lon="6.02785">
        <ele>909.52</ele>
        <time>2023-09-03T10:32:44Z</time>
      </trkpt>
      <trkpt lat="46.55542" lon="6.02751">
        <ele>909.09</ele>
        <time>2023-09-03T10:33:00Z</time>
      </trkpt>
      <trkpt lat="46.55548" lon="6.02717">
        <ele>908.72</ele>
        <time>2023-09-03T10:33:16Z</time>
      </trkpt>
      <trkpt lat="46.5555" lon="6.02707">
        <ele>908.83</ele>
        <time>2023-09-03T10:33:21Z</time>
      </trkpt>
      <trkpt lat="46.55554" lon="6.02689">
        <ele>909.07</ele>
        <time>2023-09-03T10:33:30Z</time>
      </trkpt>
      <trkpt lat="46.55561" lon="6.02655">
        <ele>908.58</ele>
        <time>2023-09-03T10:33:47Z</time>
      </trkpt>
      <trkpt lat="46.55563" lon="6.02617">
        <ele>908.99</ele>
        <time>2023-09-03T10:34:04Z</time>
      </trkpt>
      <trkpt lat="46.55566" lon="6.02577">
        <ele>908.61</ele>
        <time>2023-09-03T10:34:22Z</time>
      </trkpt>
      <trkpt lat="46.55565" lon="6.02574">
        <ele>908.65</ele>
        <time>2023-09-03T10:34:23Z</time>
      </trkpt>
      <trkpt lat="46.55572" lon="6.02559">
        <ele>907.44</ele>
        <time>2023-09-03T10:34:31Z</time>
      </trkpt>
      <trkpt lat="46.55584" lon="6.02534">
        <ele>906.69</ele>
        <time>2023-09-03T10:34:44Z</time>
      </trkpt>
      <trkpt lat="46.55597" lon="6.02505">
        <ele>906.17</ele>
        <time>2023-09-03T10:35:00Z</time>
      </trkpt>
      <trkpt lat="46.55605" lon="6.02494">
        <ele>906.39</ele>
        <time>2023-09-03T10:35:09Z</time>
      </trkpt>
      <trkpt lat="46.55611" lon="6.02483">
        <ele>906.53</ele>
        <time>2023-09-03T10:35:15Z</time>
      </trkpt>
      <trkpt lat="46.55612" lon="6.02481">
        <ele>906.59</ele>
        <time>2023-09-03T10:35:17Z</time>
      </trkpt>
      <trkpt lat="46.55623" lon="6.02464">
        <ele>906.07</ele>
        <time>2023-09-03T10:35:30Z</time>
      </trkpt>
      <trkpt lat="46.55628" lon="6.02447">
        <ele>906.32</ele>
        <time>2023-09-03T10:35:40Z</time>
      </trkpt>
      <trkpt lat="46.55629" lon="6.02437">
        <ele>905.74</ele>
        <time>2023-09-03T10:35:48Z</time>
      </trkpt>
      <trkpt lat="46.55634" lon="6.02435">
        <ele>905.83</ele>
        <time>2023-09-03T10:35:52Z</time>
      </trkpt>
      <trkpt lat="46.55647" lon="6.02403">
        <ele>906.18</ele>
        <time>2023-09-03T10:36:09Z</time>
      </trkpt>
      <trkpt lat="46.55657" lon="6.02382">
        <ele>906.5</ele>
        <time>2023-09-03T10:36:26Z</time>
      </trkpt>
      <trkpt lat="46.55655" lon="6.02382">
        <ele>906.83</ele>
        <time>2023-09-03T10:36:45Z</time>
      </trkpt>
      <trkpt lat="46.55654" lon="6.0238">
        <ele>907.18</ele>
        <time>2023-09-03T10:37:10Z</time>
      </trkpt>
    </trkseg>
  </trk>
</gpx>